<?xml version="1.0" encoding="UTF-8" standalone="no" ?>
<gpx xmlns="http://www.topografix.com/GPX/1/1" xmlns:xsi="http://www.w3.org/2001/XMLSchema-instance" xsi:schemaLocation="http://www.topografix.com/GPX/1/1 http://www.topografix.com/GPX/1/1/gpx.xsd" version="1.1" creator="VisuGPX - https://www.visugpx.com">
  <metadata>
    <name>Luberon VTT en boucle</name>
    <desc><![CDATA[Luberon VTT en boucle depuis l\'étang de la bonde]]></desc>
  </metadata>
  <trk>
    <name><![CDATA[2015-04-05 11:06]]></name>
    <desc><![CDATA[<h1>OruxMaps</h1><br /><hr align="center" width="480" style="height: 2px; width: 517px"/><h2>Nom: 2015-04-05 11:06</h2><br /><p>Temps de départ: 04/05/2015 11:06</p><p>Temps d'arrivée: 04/05/2015 16:19</p><p>Distance: 41,3km (05:13)</p><p>Temps déplacement: 03:06</p><p>Vitesse moyenne: 7,9km/h</p><p>Vitesse moyenne: 13,3km/h</p><p>Vitess Max.: 40km/h</p><p>Altitude minimale: 337m</p><p>Altitude maximale: 1172m</p><p>Vitesse d'élévation: 506,1m/h</p><p>Vitesse de descente: -810,2m/h</p><p>Gain Altitude: 1529m</p><p>Perte Altitude: -1513m</p><p>Temps d'élévation: 03:01</p><p>Temps de descente: 01:52</p><hr align="center" width="480" style="height: 2px; width: 517px"/>]]></desc>
    <trkseg>
      <trkpt lat="43.7588" lon="5.50708">
        <ele>381.16</ele>
        <time>2015-04-05T09:06:18Z</time>
      </trkpt>
      <trkpt lat="43.75875" lon="5.50681">
        <ele>379.6</ele>
        <time>2015-04-05T09:18:28Z</time>
      </trkpt>
      <trkpt lat="43.75876" lon="5.50655">
        <ele>379.01</ele>
        <time>2015-04-05T09:18:37Z</time>
      </trkpt>
      <trkpt lat="43.75867" lon="5.50632">
        <ele>379.5</ele>
        <time>2015-04-05T09:19:01Z</time>
      </trkpt>
      <trkpt lat="43.7586" lon="5.50606">
        <ele>379.47</ele>
        <time>2015-04-05T09:19:09Z</time>
      </trkpt>
      <trkpt lat="43.75852" lon="5.50581">
        <ele>376.26</ele>
        <time>2015-04-05T09:19:13Z</time>
      </trkpt>
      <trkpt lat="43.75842" lon="5.50556">
        <ele>374.17</ele>
        <time>2015-04-05T09:19:17Z</time>
      </trkpt>
      <trkpt lat="43.7583" lon="5.50535">
        <ele>373.84</ele>
        <time>2015-04-05T09:19:21Z</time>
      </trkpt>
      <trkpt lat="43.75824" lon="5.50511">
        <ele>373.99</ele>
        <time>2015-04-05T09:19:27Z</time>
      </trkpt>
      <trkpt lat="43.75829" lon="5.50485">
        <ele>374.07</ele>
        <time>2015-04-05T09:19:36Z</time>
      </trkpt>
      <trkpt lat="43.75837" lon="5.50462">
        <ele>372.86</ele>
        <time>2015-04-05T09:19:45Z</time>
      </trkpt>
      <trkpt lat="43.75821" lon="5.50448">
        <ele>365.72</ele>
        <time>2015-04-05T09:20:23Z</time>
      </trkpt>
      <trkpt lat="43.75836" lon="5.50428">
        <ele>356.74</ele>
        <time>2015-04-05T09:21:06Z</time>
      </trkpt>
      <trkpt lat="43.75848" lon="5.50409">
        <ele>357.65</ele>
        <time>2015-04-05T09:21:14Z</time>
      </trkpt>
      <trkpt lat="43.75868" lon="5.50402">
        <ele>357.41</ele>
        <time>2015-04-05T09:21:19Z</time>
      </trkpt>
      <trkpt lat="43.75887" lon="5.50403">
        <ele>357.21</ele>
        <time>2015-04-05T09:21:23Z</time>
      </trkpt>
      <trkpt lat="43.75907" lon="5.50402">
        <ele>360.26</ele>
        <time>2015-04-05T09:21:26Z</time>
      </trkpt>
      <trkpt lat="43.75927" lon="5.50392">
        <ele>362.39</ele>
        <time>2015-04-05T09:21:31Z</time>
      </trkpt>
      <trkpt lat="43.75946" lon="5.50374">
        <ele>363.62</ele>
        <time>2015-04-05T09:21:36Z</time>
      </trkpt>
      <trkpt lat="43.75964" lon="5.5036">
        <ele>364.76</ele>
        <time>2015-04-05T09:21:40Z</time>
      </trkpt>
      <trkpt lat="43.75981" lon="5.50349">
        <ele>365.63</ele>
        <time>2015-04-05T09:21:44Z</time>
      </trkpt>
      <trkpt lat="43.76002" lon="5.50338">
        <ele>366.76</ele>
        <time>2015-04-05T09:21:48Z</time>
      </trkpt>
      <trkpt lat="43.7602" lon="5.5033">
        <ele>367.04</ele>
        <time>2015-04-05T09:21:52Z</time>
      </trkpt>
      <trkpt lat="43.76041" lon="5.50319">
        <ele>367.55</ele>
        <time>2015-04-05T09:21:57Z</time>
      </trkpt>
      <trkpt lat="43.76065" lon="5.50309">
        <ele>368.83</ele>
        <time>2015-04-05T09:22:01Z</time>
      </trkpt>
      <trkpt lat="43.76085" lon="5.50298">
        <ele>370.29</ele>
        <time>2015-04-05T09:22:04Z</time>
      </trkpt>
      <trkpt lat="43.76106" lon="5.50287">
        <ele>365.77</ele>
        <time>2015-04-05T09:22:08Z</time>
      </trkpt>
      <trkpt lat="43.76125" lon="5.50282">
        <ele>361.37</ele>
        <time>2015-04-05T09:22:11Z</time>
      </trkpt>
      <trkpt lat="43.76147" lon="5.50278">
        <ele>360.33</ele>
        <time>2015-04-05T09:22:15Z</time>
      </trkpt>
      <trkpt lat="43.76166" lon="5.50271">
        <ele>367.57</ele>
        <time>2015-04-05T09:22:20Z</time>
      </trkpt>
      <trkpt lat="43.76182" lon="5.50254">
        <ele>369.39</ele>
        <time>2015-04-05T09:22:25Z</time>
      </trkpt>
      <trkpt lat="43.76202" lon="5.50241">
        <ele>369.41</ele>
        <time>2015-04-05T09:22:30Z</time>
      </trkpt>
      <trkpt lat="43.76218" lon="5.5023">
        <ele>369.38</ele>
        <time>2015-04-05T09:22:34Z</time>
      </trkpt>
      <trkpt lat="43.76238" lon="5.50218">
        <ele>369.47</ele>
        <time>2015-04-05T09:22:39Z</time>
      </trkpt>
      <trkpt lat="43.76255" lon="5.50207">
        <ele>369.03</ele>
        <time>2015-04-05T09:22:43Z</time>
      </trkpt>
      <trkpt lat="43.76275" lon="5.50199">
        <ele>368.3</ele>
        <time>2015-04-05T09:22:49Z</time>
      </trkpt>
      <trkpt lat="43.76293" lon="5.50212">
        <ele>365.63</ele>
        <time>2015-04-05T09:23:04Z</time>
      </trkpt>
      <trkpt lat="43.76311" lon="5.50224">
        <ele>365.46</ele>
        <time>2015-04-05T09:23:12Z</time>
      </trkpt>
      <trkpt lat="43.76329" lon="5.5024">
        <ele>365.31</ele>
        <time>2015-04-05T09:23:18Z</time>
      </trkpt>
      <trkpt lat="43.7634" lon="5.50261">
        <ele>365.12</ele>
        <time>2015-04-05T09:23:23Z</time>
      </trkpt>
      <trkpt lat="43.76348" lon="5.50285">
        <ele>365.05</ele>
        <time>2015-04-05T09:23:28Z</time>
      </trkpt>
      <trkpt lat="43.76351" lon="5.50312">
        <ele>364.78</ele>
        <time>2015-04-05T09:23:34Z</time>
      </trkpt>
      <trkpt lat="43.76347" lon="5.50337">
        <ele>363.84</ele>
        <time>2015-04-05T09:23:41Z</time>
      </trkpt>
      <trkpt lat="43.76349" lon="5.50366">
        <ele>362.89</ele>
        <time>2015-04-05T09:23:47Z</time>
      </trkpt>
      <trkpt lat="43.76354" lon="5.50394">
        <ele>362.08</ele>
        <time>2015-04-05T09:23:54Z</time>
      </trkpt>
      <trkpt lat="43.76353" lon="5.50421">
        <ele>362.01</ele>
        <time>2015-04-05T09:23:58Z</time>
      </trkpt>
      <trkpt lat="43.76351" lon="5.50446">
        <ele>362.33</ele>
        <time>2015-04-05T09:24:03Z</time>
      </trkpt>
      <trkpt lat="43.76364" lon="5.50465">
        <ele>362.05</ele>
        <time>2015-04-05T09:24:10Z</time>
      </trkpt>
      <trkpt lat="43.76374" lon="5.50489">
        <ele>362.02</ele>
        <time>2015-04-05T09:24:17Z</time>
      </trkpt>
      <trkpt lat="43.76383" lon="5.50512">
        <ele>361.71</ele>
        <time>2015-04-05T09:24:25Z</time>
      </trkpt>
      <trkpt lat="43.76389" lon="5.50538">
        <ele>361.15</ele>
        <time>2015-04-05T09:24:32Z</time>
      </trkpt>
      <trkpt lat="43.76396" lon="5.50561">
        <ele>360.73</ele>
        <time>2015-04-05T09:24:37Z</time>
      </trkpt>
      <trkpt lat="43.76408" lon="5.50585">
        <ele>356.62</ele>
        <time>2015-04-05T09:24:42Z</time>
      </trkpt>
      <trkpt lat="43.76416" lon="5.50609">
        <ele>355.45</ele>
        <time>2015-04-05T09:24:47Z</time>
      </trkpt>
      <trkpt lat="43.76429" lon="5.5063">
        <ele>350.96</ele>
        <time>2015-04-05T09:24:51Z</time>
      </trkpt>
      <trkpt lat="43.76446" lon="5.50651">
        <ele>349.37</ele>
        <time>2015-04-05T09:24:56Z</time>
      </trkpt>
      <trkpt lat="43.76458" lon="5.50676">
        <ele>348.87</ele>
        <time>2015-04-05T09:25:00Z</time>
      </trkpt>
      <trkpt lat="43.76464" lon="5.50701">
        <ele>348.2</ele>
        <time>2015-04-05T09:25:04Z</time>
      </trkpt>
      <trkpt lat="43.76466" lon="5.50734">
        <ele>342.83</ele>
        <time>2015-04-05T09:25:08Z</time>
      </trkpt>
      <trkpt lat="43.76468" lon="5.5076">
        <ele>339.98</ele>
        <time>2015-04-05T09:25:11Z</time>
      </trkpt>
      <trkpt lat="43.76474" lon="5.50786">
        <ele>339.04</ele>
        <time>2015-04-05T09:25:15Z</time>
      </trkpt>
      <trkpt lat="43.76484" lon="5.50811">
        <ele>338.69</ele>
        <time>2015-04-05T09:25:20Z</time>
      </trkpt>
      <trkpt lat="43.76495" lon="5.50833">
        <ele>337.88</ele>
        <time>2015-04-05T09:25:29Z</time>
      </trkpt>
      <trkpt lat="43.76507" lon="5.50855">
        <ele>350.56</ele>
        <time>2015-04-05T09:26:35Z</time>
      </trkpt>
      <trkpt lat="43.76524" lon="5.50867">
        <ele>353.58</ele>
        <time>2015-04-05T09:26:42Z</time>
      </trkpt>
      <trkpt lat="43.76537" lon="5.50885">
        <ele>357.78</ele>
        <time>2015-04-05T09:26:52Z</time>
      </trkpt>
      <trkpt lat="43.76534" lon="5.50914">
        <ele>362.41</ele>
        <time>2015-04-05T09:27:04Z</time>
      </trkpt>
      <trkpt lat="43.76534" lon="5.5094">
        <ele>363.63</ele>
        <time>2015-04-05T09:27:08Z</time>
      </trkpt>
      <trkpt lat="43.76533" lon="5.50968">
        <ele>369.36</ele>
        <time>2015-04-05T09:27:13Z</time>
      </trkpt>
      <trkpt lat="43.76533" lon="5.50993">
        <ele>371.22</ele>
        <time>2015-04-05T09:27:18Z</time>
      </trkpt>
      <trkpt lat="43.76532" lon="5.51021">
        <ele>372.21</ele>
        <time>2015-04-05T09:27:24Z</time>
      </trkpt>
      <trkpt lat="43.76533" lon="5.51048">
        <ele>373.04</ele>
        <time>2015-04-05T09:27:30Z</time>
      </trkpt>
      <trkpt lat="43.76531" lon="5.51074">
        <ele>374.46</ele>
        <time>2015-04-05T09:27:36Z</time>
      </trkpt>
      <trkpt lat="43.76528" lon="5.51099">
        <ele>377.49</ele>
        <time>2015-04-05T09:27:55Z</time>
      </trkpt>
      <trkpt lat="43.76528" lon="5.51128">
        <ele>380.32</ele>
        <time>2015-04-05T09:28:13Z</time>
      </trkpt>
      <trkpt lat="43.76543" lon="5.51142">
        <ele>381.21</ele>
        <time>2015-04-05T09:28:20Z</time>
      </trkpt>
      <trkpt lat="43.76564" lon="5.51145">
        <ele>382.32</ele>
        <time>2015-04-05T09:28:27Z</time>
      </trkpt>
      <trkpt lat="43.7658" lon="5.51156">
        <ele>383.55</ele>
        <time>2015-04-05T09:28:33Z</time>
      </trkpt>
      <trkpt lat="43.76596" lon="5.51169">
        <ele>384.69</ele>
        <time>2015-04-05T09:28:39Z</time>
      </trkpt>
      <trkpt lat="43.76614" lon="5.51181">
        <ele>385.68</ele>
        <time>2015-04-05T09:28:45Z</time>
      </trkpt>
      <trkpt lat="43.76634" lon="5.51189">
        <ele>386.72</ele>
        <time>2015-04-05T09:28:50Z</time>
      </trkpt>
      <trkpt lat="43.76653" lon="5.51199">
        <ele>388.98</ele>
        <time>2015-04-05T09:28:55Z</time>
      </trkpt>
      <trkpt lat="43.76672" lon="5.51211">
        <ele>391.07</ele>
        <time>2015-04-05T09:29:00Z</time>
      </trkpt>
      <trkpt lat="43.76688" lon="5.51223">
        <ele>392.38</ele>
        <time>2015-04-05T09:29:06Z</time>
      </trkpt>
      <trkpt lat="43.76705" lon="5.51234">
        <ele>393.28</ele>
        <time>2015-04-05T09:29:12Z</time>
      </trkpt>
      <trkpt lat="43.76721" lon="5.51247">
        <ele>394.32</ele>
        <time>2015-04-05T09:29:19Z</time>
      </trkpt>
      <trkpt lat="43.76737" lon="5.51264">
        <ele>395.16</ele>
        <time>2015-04-05T09:29:25Z</time>
      </trkpt>
      <trkpt lat="43.76753" lon="5.51282">
        <ele>395.92</ele>
        <time>2015-04-05T09:29:31Z</time>
      </trkpt>
      <trkpt lat="43.76767" lon="5.51298">
        <ele>396.51</ele>
        <time>2015-04-05T09:29:36Z</time>
      </trkpt>
      <trkpt lat="43.76786" lon="5.51315">
        <ele>399.32</ele>
        <time>2015-04-05T09:29:42Z</time>
      </trkpt>
      <trkpt lat="43.76804" lon="5.5133">
        <ele>400.55</ele>
        <time>2015-04-05T09:29:47Z</time>
      </trkpt>
      <trkpt lat="43.76822" lon="5.51343">
        <ele>403.24</ele>
        <time>2015-04-05T09:29:51Z</time>
      </trkpt>
      <trkpt lat="43.7684" lon="5.51351">
        <ele>404.46</ele>
        <time>2015-04-05T09:29:54Z</time>
      </trkpt>
      <trkpt lat="43.7686" lon="5.51359">
        <ele>404.03</ele>
        <time>2015-04-05T09:29:57Z</time>
      </trkpt>
      <trkpt lat="43.76881" lon="5.51368">
        <ele>403.86</ele>
        <time>2015-04-05T09:30:00Z</time>
      </trkpt>
      <trkpt lat="43.76898" lon="5.51376">
        <ele>403.03</ele>
        <time>2015-04-05T09:30:03Z</time>
      </trkpt>
      <trkpt lat="43.76916" lon="5.51384">
        <ele>404.58</ele>
        <time>2015-04-05T09:30:07Z</time>
      </trkpt>
      <trkpt lat="43.76936" lon="5.51393">
        <ele>405.84</ele>
        <time>2015-04-05T09:30:12Z</time>
      </trkpt>
      <trkpt lat="43.76955" lon="5.51403">
        <ele>406.03</ele>
        <time>2015-04-05T09:30:17Z</time>
      </trkpt>
      <trkpt lat="43.76974" lon="5.51413">
        <ele>405.67</ele>
        <time>2015-04-05T09:30:22Z</time>
      </trkpt>
      <trkpt lat="43.7699" lon="5.51431">
        <ele>405.36</ele>
        <time>2015-04-05T09:30:27Z</time>
      </trkpt>
      <trkpt lat="43.77003" lon="5.51454">
        <ele>404.8</ele>
        <time>2015-04-05T09:30:32Z</time>
      </trkpt>
      <trkpt lat="43.77012" lon="5.51481">
        <ele>404.11</ele>
        <time>2015-04-05T09:30:37Z</time>
      </trkpt>
      <trkpt lat="43.77019" lon="5.51508">
        <ele>403.04</ele>
        <time>2015-04-05T09:30:42Z</time>
      </trkpt>
      <trkpt lat="43.77026" lon="5.51533">
        <ele>402.63</ele>
        <time>2015-04-05T09:30:47Z</time>
      </trkpt>
      <trkpt lat="43.77033" lon="5.51556">
        <ele>403.6</ele>
        <time>2015-04-05T09:30:52Z</time>
      </trkpt>
      <trkpt lat="43.77042" lon="5.51583">
        <ele>403.4</ele>
        <time>2015-04-05T09:30:57Z</time>
      </trkpt>
      <trkpt lat="43.77052" lon="5.51608">
        <ele>404.21</ele>
        <time>2015-04-05T09:31:02Z</time>
      </trkpt>
      <trkpt lat="43.77062" lon="5.51631">
        <ele>405.91</ele>
        <time>2015-04-05T09:31:07Z</time>
      </trkpt>
      <trkpt lat="43.77074" lon="5.51653">
        <ele>408</ele>
        <time>2015-04-05T09:31:12Z</time>
      </trkpt>
      <trkpt lat="43.77087" lon="5.51674">
        <ele>413.78</ele>
        <time>2015-04-05T09:31:17Z</time>
      </trkpt>
      <trkpt lat="43.77101" lon="5.51694">
        <ele>415.31</ele>
        <time>2015-04-05T09:31:23Z</time>
      </trkpt>
      <trkpt lat="43.77116" lon="5.51713">
        <ele>416.17</ele>
        <time>2015-04-05T09:31:28Z</time>
      </trkpt>
      <trkpt lat="43.7713" lon="5.51731">
        <ele>415.51</ele>
        <time>2015-04-05T09:31:33Z</time>
      </trkpt>
      <trkpt lat="43.7715" lon="5.51744">
        <ele>415.32</ele>
        <time>2015-04-05T09:31:38Z</time>
      </trkpt>
      <trkpt lat="43.77169" lon="5.51759">
        <ele>415.64</ele>
        <time>2015-04-05T09:31:43Z</time>
      </trkpt>
      <trkpt lat="43.77185" lon="5.51779">
        <ele>414.92</ele>
        <time>2015-04-05T09:31:48Z</time>
      </trkpt>
      <trkpt lat="43.77196" lon="5.51805">
        <ele>414.87</ele>
        <time>2015-04-05T09:31:53Z</time>
      </trkpt>
      <trkpt lat="43.77204" lon="5.51829">
        <ele>416.83</ele>
        <time>2015-04-05T09:31:57Z</time>
      </trkpt>
      <trkpt lat="43.77212" lon="5.51855">
        <ele>417.45</ele>
        <time>2015-04-05T09:32:01Z</time>
      </trkpt>
      <trkpt lat="43.77219" lon="5.5188">
        <ele>416.81</ele>
        <time>2015-04-05T09:32:05Z</time>
      </trkpt>
      <trkpt lat="43.77228" lon="5.51908">
        <ele>418.01</ele>
        <time>2015-04-05T09:32:10Z</time>
      </trkpt>
      <trkpt lat="43.77235" lon="5.5193">
        <ele>416.56</ele>
        <time>2015-04-05T09:32:14Z</time>
      </trkpt>
      <trkpt lat="43.77244" lon="5.51959">
        <ele>415.25</ele>
        <time>2015-04-05T09:32:19Z</time>
      </trkpt>
      <trkpt lat="43.77249" lon="5.51988">
        <ele>414.88</ele>
        <time>2015-04-05T09:32:24Z</time>
      </trkpt>
      <trkpt lat="43.77252" lon="5.52014">
        <ele>414.67</ele>
        <time>2015-04-05T09:32:28Z</time>
      </trkpt>
      <trkpt lat="43.77253" lon="5.52042">
        <ele>413.52</ele>
        <time>2015-04-05T09:32:32Z</time>
      </trkpt>
      <trkpt lat="43.77251" lon="5.5207">
        <ele>413.47</ele>
        <time>2015-04-05T09:32:36Z</time>
      </trkpt>
      <trkpt lat="43.77252" lon="5.52096">
        <ele>416.84</ele>
        <time>2015-04-05T09:32:40Z</time>
      </trkpt>
      <trkpt lat="43.77255" lon="5.52123">
        <ele>418.1</ele>
        <time>2015-04-05T09:32:45Z</time>
      </trkpt>
      <trkpt lat="43.77263" lon="5.52147">
        <ele>419.34</ele>
        <time>2015-04-05T09:32:50Z</time>
      </trkpt>
      <trkpt lat="43.77276" lon="5.52164">
        <ele>420.67</ele>
        <time>2015-04-05T09:32:53Z</time>
      </trkpt>
      <trkpt lat="43.77293" lon="5.52175">
        <ele>420.28</ele>
        <time>2015-04-05T09:32:56Z</time>
      </trkpt>
      <trkpt lat="43.77314" lon="5.52177">
        <ele>419.28</ele>
        <time>2015-04-05T09:33:01Z</time>
      </trkpt>
      <trkpt lat="43.77335" lon="5.52183">
        <ele>417.71</ele>
        <time>2015-04-05T09:33:05Z</time>
      </trkpt>
      <trkpt lat="43.77351" lon="5.52196">
        <ele>417.84</ele>
        <time>2015-04-05T09:33:09Z</time>
      </trkpt>
      <trkpt lat="43.77364" lon="5.52214">
        <ele>415.74</ele>
        <time>2015-04-05T09:34:12Z</time>
      </trkpt>
      <trkpt lat="43.77366" lon="5.5224">
        <ele>415.26</ele>
        <time>2015-04-05T09:34:16Z</time>
      </trkpt>
      <trkpt lat="43.77356" lon="5.52264">
        <ele>416.11</ele>
        <time>2015-04-05T09:35:39Z</time>
      </trkpt>
      <trkpt lat="43.77344" lon="5.52286">
        <ele>414.19</ele>
        <time>2015-04-05T09:35:44Z</time>
      </trkpt>
      <trkpt lat="43.7733" lon="5.5231">
        <ele>413.58</ele>
        <time>2015-04-05T09:35:48Z</time>
      </trkpt>
      <trkpt lat="43.77317" lon="5.52335">
        <ele>413.82</ele>
        <time>2015-04-05T09:35:52Z</time>
      </trkpt>
      <trkpt lat="43.77308" lon="5.52357">
        <ele>413.26</ele>
        <time>2015-04-05T09:35:55Z</time>
      </trkpt>
      <trkpt lat="43.77304" lon="5.52384">
        <ele>412.02</ele>
        <time>2015-04-05T09:35:58Z</time>
      </trkpt>
      <trkpt lat="43.77303" lon="5.52416">
        <ele>410.94</ele>
        <time>2015-04-05T09:36:02Z</time>
      </trkpt>
      <trkpt lat="43.77304" lon="5.52447">
        <ele>409.76</ele>
        <time>2015-04-05T09:36:06Z</time>
      </trkpt>
      <trkpt lat="43.77308" lon="5.52475">
        <ele>409.12</ele>
        <time>2015-04-05T09:36:11Z</time>
      </trkpt>
      <trkpt lat="43.77327" lon="5.52469">
        <ele>407.8</ele>
        <time>2015-04-05T09:37:09Z</time>
      </trkpt>
      <trkpt lat="43.77346" lon="5.52469">
        <ele>407.43</ele>
        <time>2015-04-05T09:37:15Z</time>
      </trkpt>
      <trkpt lat="43.77364" lon="5.52471">
        <ele>407.31</ele>
        <time>2015-04-05T09:37:20Z</time>
      </trkpt>
      <trkpt lat="43.77383" lon="5.52471">
        <ele>407.42</ele>
        <time>2015-04-05T09:37:25Z</time>
      </trkpt>
      <trkpt lat="43.77402" lon="5.52472">
        <ele>407.44</ele>
        <time>2015-04-05T09:37:30Z</time>
      </trkpt>
      <trkpt lat="43.77423" lon="5.52472">
        <ele>407.79</ele>
        <time>2015-04-05T09:37:35Z</time>
      </trkpt>
      <trkpt lat="43.77444" lon="5.52487">
        <ele>410.05</ele>
        <time>2015-04-05T09:37:39Z</time>
      </trkpt>
      <trkpt lat="43.77454" lon="5.52511">
        <ele>412.03</ele>
        <time>2015-04-05T09:37:43Z</time>
      </trkpt>
      <trkpt lat="43.7746" lon="5.52537">
        <ele>410.39</ele>
        <time>2015-04-05T09:37:47Z</time>
      </trkpt>
      <trkpt lat="43.77467" lon="5.52565">
        <ele>408.97</ele>
        <time>2015-04-05T09:37:51Z</time>
      </trkpt>
      <trkpt lat="43.77472" lon="5.52592">
        <ele>409.57</ele>
        <time>2015-04-05T09:37:55Z</time>
      </trkpt>
      <trkpt lat="43.77479" lon="5.52619">
        <ele>411.92</ele>
        <time>2015-04-05T09:37:59Z</time>
      </trkpt>
      <trkpt lat="43.77495" lon="5.52637">
        <ele>414.48</ele>
        <time>2015-04-05T09:38:03Z</time>
      </trkpt>
      <trkpt lat="43.77513" lon="5.52643">
        <ele>416.86</ele>
        <time>2015-04-05T09:38:07Z</time>
      </trkpt>
      <trkpt lat="43.77537" lon="5.5264">
        <ele>418.47</ele>
        <time>2015-04-05T09:38:11Z</time>
      </trkpt>
      <trkpt lat="43.77557" lon="5.52635">
        <ele>418.39</ele>
        <time>2015-04-05T09:38:15Z</time>
      </trkpt>
      <trkpt lat="43.77579" lon="5.5263">
        <ele>418.33</ele>
        <time>2015-04-05T09:38:20Z</time>
      </trkpt>
      <trkpt lat="43.77599" lon="5.52624">
        <ele>419.21</ele>
        <time>2015-04-05T09:38:24Z</time>
      </trkpt>
      <trkpt lat="43.7762" lon="5.52619">
        <ele>420.78</ele>
        <time>2015-04-05T09:38:28Z</time>
      </trkpt>
      <trkpt lat="43.77641" lon="5.52613">
        <ele>423.38</ele>
        <time>2015-04-05T09:38:32Z</time>
      </trkpt>
      <trkpt lat="43.7766" lon="5.52608">
        <ele>424.13</ele>
        <time>2015-04-05T09:38:36Z</time>
      </trkpt>
      <trkpt lat="43.77682" lon="5.52599">
        <ele>425.45</ele>
        <time>2015-04-05T09:38:41Z</time>
      </trkpt>
      <trkpt lat="43.77703" lon="5.52591">
        <ele>426.02</ele>
        <time>2015-04-05T09:38:45Z</time>
      </trkpt>
      <trkpt lat="43.77723" lon="5.52582">
        <ele>426.63</ele>
        <time>2015-04-05T09:38:48Z</time>
      </trkpt>
      <trkpt lat="43.77743" lon="5.5257">
        <ele>427.37</ele>
        <time>2015-04-05T09:38:51Z</time>
      </trkpt>
      <trkpt lat="43.77763" lon="5.52557">
        <ele>427.52</ele>
        <time>2015-04-05T09:38:54Z</time>
      </trkpt>
      <trkpt lat="43.77785" lon="5.52543">
        <ele>427.7</ele>
        <time>2015-04-05T09:38:57Z</time>
      </trkpt>
      <trkpt lat="43.77806" lon="5.52531">
        <ele>427.62</ele>
        <time>2015-04-05T09:39:00Z</time>
      </trkpt>
      <trkpt lat="43.77825" lon="5.5252">
        <ele>428.38</ele>
        <time>2015-04-05T09:39:03Z</time>
      </trkpt>
      <trkpt lat="43.77844" lon="5.52509">
        <ele>429.39</ele>
        <time>2015-04-05T09:39:06Z</time>
      </trkpt>
      <trkpt lat="43.77865" lon="5.52498">
        <ele>430.49</ele>
        <time>2015-04-05T09:39:09Z</time>
      </trkpt>
      <trkpt lat="43.77884" lon="5.52496">
        <ele>431.82</ele>
        <time>2015-04-05T09:39:12Z</time>
      </trkpt>
      <trkpt lat="43.77906" lon="5.52506">
        <ele>432.17</ele>
        <time>2015-04-05T09:39:16Z</time>
      </trkpt>
      <trkpt lat="43.7792" lon="5.52523">
        <ele>432.5</ele>
        <time>2015-04-05T09:39:19Z</time>
      </trkpt>
      <trkpt lat="43.77931" lon="5.52547">
        <ele>433.83</ele>
        <time>2015-04-05T09:39:22Z</time>
      </trkpt>
      <trkpt lat="43.77939" lon="5.52572">
        <ele>435.21</ele>
        <time>2015-04-05T09:39:25Z</time>
      </trkpt>
      <trkpt lat="43.77942" lon="5.52598">
        <ele>436.24</ele>
        <time>2015-04-05T09:39:29Z</time>
      </trkpt>
      <trkpt lat="43.77939" lon="5.52627">
        <ele>439.19</ele>
        <time>2015-04-05T09:40:12Z</time>
      </trkpt>
      <trkpt lat="43.7794" lon="5.52656">
        <ele>440.66</ele>
        <time>2015-04-05T09:40:16Z</time>
      </trkpt>
      <trkpt lat="43.77941" lon="5.52682">
        <ele>440.34</ele>
        <time>2015-04-05T09:40:19Z</time>
      </trkpt>
      <trkpt lat="43.77941" lon="5.52711">
        <ele>440.9</ele>
        <time>2015-04-05T09:40:23Z</time>
      </trkpt>
      <trkpt lat="43.77943" lon="5.52737">
        <ele>442.84</ele>
        <time>2015-04-05T09:40:26Z</time>
      </trkpt>
      <trkpt lat="43.7795" lon="5.52768">
        <ele>446.59</ele>
        <time>2015-04-05T09:40:30Z</time>
      </trkpt>
      <trkpt lat="43.77959" lon="5.52794">
        <ele>447.9</ele>
        <time>2015-04-05T09:40:34Z</time>
      </trkpt>
      <trkpt lat="43.7797" lon="5.5282">
        <ele>447.21</ele>
        <time>2015-04-05T09:40:39Z</time>
      </trkpt>
      <trkpt lat="43.77984" lon="5.52843">
        <ele>445.53</ele>
        <time>2015-04-05T09:40:44Z</time>
      </trkpt>
      <trkpt lat="43.77998" lon="5.52864">
        <ele>444.74</ele>
        <time>2015-04-05T09:40:48Z</time>
      </trkpt>
      <trkpt lat="43.78013" lon="5.52885">
        <ele>444.62</ele>
        <time>2015-04-05T09:40:52Z</time>
      </trkpt>
      <trkpt lat="43.78028" lon="5.52905">
        <ele>443.56</ele>
        <time>2015-04-05T09:40:56Z</time>
      </trkpt>
      <trkpt lat="43.78042" lon="5.52928">
        <ele>442.86</ele>
        <time>2015-04-05T09:41:01Z</time>
      </trkpt>
      <trkpt lat="43.78056" lon="5.52947">
        <ele>444.06</ele>
        <time>2015-04-05T09:41:05Z</time>
      </trkpt>
      <trkpt lat="43.7807" lon="5.52969">
        <ele>446.3</ele>
        <time>2015-04-05T09:41:09Z</time>
      </trkpt>
      <trkpt lat="43.78083" lon="5.52988">
        <ele>447.23</ele>
        <time>2015-04-05T09:41:13Z</time>
      </trkpt>
      <trkpt lat="43.78096" lon="5.53007">
        <ele>447.95</ele>
        <time>2015-04-05T09:41:17Z</time>
      </trkpt>
      <trkpt lat="43.7811" lon="5.53025">
        <ele>446.7</ele>
        <time>2015-04-05T09:41:21Z</time>
      </trkpt>
      <trkpt lat="43.78126" lon="5.53046">
        <ele>444.79</ele>
        <time>2015-04-05T09:41:26Z</time>
      </trkpt>
      <trkpt lat="43.78139" lon="5.53067">
        <ele>443.22</ele>
        <time>2015-04-05T09:41:30Z</time>
      </trkpt>
      <trkpt lat="43.78154" lon="5.5309">
        <ele>443.45</ele>
        <time>2015-04-05T09:41:35Z</time>
      </trkpt>
      <trkpt lat="43.78168" lon="5.53111">
        <ele>444.48</ele>
        <time>2015-04-05T09:41:39Z</time>
      </trkpt>
      <trkpt lat="43.78181" lon="5.53132">
        <ele>445.08</ele>
        <time>2015-04-05T09:41:43Z</time>
      </trkpt>
      <trkpt lat="43.78196" lon="5.53154">
        <ele>445.02</ele>
        <time>2015-04-05T09:41:47Z</time>
      </trkpt>
      <trkpt lat="43.78208" lon="5.53174">
        <ele>446.25</ele>
        <time>2015-04-05T09:41:51Z</time>
      </trkpt>
      <trkpt lat="43.7822" lon="5.53194">
        <ele>447.52</ele>
        <time>2015-04-05T09:41:55Z</time>
      </trkpt>
      <trkpt lat="43.78233" lon="5.53216">
        <ele>446.63</ele>
        <time>2015-04-05T09:41:59Z</time>
      </trkpt>
      <trkpt lat="43.78243" lon="5.53238">
        <ele>445.77</ele>
        <time>2015-04-05T09:42:02Z</time>
      </trkpt>
      <trkpt lat="43.7825" lon="5.53261">
        <ele>446.26</ele>
        <time>2015-04-05T09:42:05Z</time>
      </trkpt>
      <trkpt lat="43.78257" lon="5.53285">
        <ele>446.26</ele>
        <time>2015-04-05T09:42:08Z</time>
      </trkpt>
      <trkpt lat="43.78263" lon="5.53311">
        <ele>446.04</ele>
        <time>2015-04-05T09:42:11Z</time>
      </trkpt>
      <trkpt lat="43.78268" lon="5.53338">
        <ele>446.71</ele>
        <time>2015-04-05T09:42:14Z</time>
      </trkpt>
      <trkpt lat="43.78273" lon="5.53363">
        <ele>447.06</ele>
        <time>2015-04-05T09:42:17Z</time>
      </trkpt>
      <trkpt lat="43.78279" lon="5.53387">
        <ele>447.41</ele>
        <time>2015-04-05T09:42:20Z</time>
      </trkpt>
      <trkpt lat="43.78286" lon="5.53412">
        <ele>447.82</ele>
        <time>2015-04-05T09:42:23Z</time>
      </trkpt>
      <trkpt lat="43.78294" lon="5.53443">
        <ele>447.65</ele>
        <time>2015-04-05T09:42:27Z</time>
      </trkpt>
      <trkpt lat="43.78301" lon="5.53472">
        <ele>448.19</ele>
        <time>2015-04-05T09:42:31Z</time>
      </trkpt>
      <trkpt lat="43.78308" lon="5.53499">
        <ele>447.91</ele>
        <time>2015-04-05T09:42:35Z</time>
      </trkpt>
      <trkpt lat="43.78315" lon="5.53528">
        <ele>447.22</ele>
        <time>2015-04-05T09:42:39Z</time>
      </trkpt>
      <trkpt lat="43.78321" lon="5.5356">
        <ele>448.67</ele>
        <time>2015-04-05T09:42:43Z</time>
      </trkpt>
      <trkpt lat="43.78326" lon="5.53587">
        <ele>449.69</ele>
        <time>2015-04-05T09:42:46Z</time>
      </trkpt>
      <trkpt lat="43.78331" lon="5.53614">
        <ele>449.82</ele>
        <time>2015-04-05T09:42:49Z</time>
      </trkpt>
      <trkpt lat="43.78335" lon="5.53641">
        <ele>450.07</ele>
        <time>2015-04-05T09:42:52Z</time>
      </trkpt>
      <trkpt lat="43.78339" lon="5.53666">
        <ele>449.78</ele>
        <time>2015-04-05T09:42:55Z</time>
      </trkpt>
      <trkpt lat="43.78345" lon="5.53698">
        <ele>449.41</ele>
        <time>2015-04-05T09:42:59Z</time>
      </trkpt>
      <trkpt lat="43.78353" lon="5.53726">
        <ele>449.11</ele>
        <time>2015-04-05T09:43:03Z</time>
      </trkpt>
      <trkpt lat="43.7836" lon="5.53752">
        <ele>448.51</ele>
        <time>2015-04-05T09:43:06Z</time>
      </trkpt>
      <trkpt lat="43.78369" lon="5.53783">
        <ele>447.66</ele>
        <time>2015-04-05T09:43:10Z</time>
      </trkpt>
      <trkpt lat="43.78375" lon="5.53808">
        <ele>447</ele>
        <time>2015-04-05T09:43:13Z</time>
      </trkpt>
      <trkpt lat="43.7838" lon="5.53841">
        <ele>447.15</ele>
        <time>2015-04-05T09:43:17Z</time>
      </trkpt>
      <trkpt lat="43.78385" lon="5.5387">
        <ele>447.83</ele>
        <time>2015-04-05T09:43:20Z</time>
      </trkpt>
      <trkpt lat="43.78388" lon="5.53898">
        <ele>449.67</ele>
        <time>2015-04-05T09:43:23Z</time>
      </trkpt>
      <trkpt lat="43.78391" lon="5.53923">
        <ele>452.02</ele>
        <time>2015-04-05T09:43:26Z</time>
      </trkpt>
      <trkpt lat="43.78393" lon="5.53951">
        <ele>454.5</ele>
        <time>2015-04-05T09:43:29Z</time>
      </trkpt>
      <trkpt lat="43.78396" lon="5.5398">
        <ele>454.77</ele>
        <time>2015-04-05T09:43:32Z</time>
      </trkpt>
      <trkpt lat="43.78398" lon="5.54007">
        <ele>454.67</ele>
        <time>2015-04-05T09:43:35Z</time>
      </trkpt>
      <trkpt lat="43.78401" lon="5.54034">
        <ele>455.76</ele>
        <time>2015-04-05T09:43:38Z</time>
      </trkpt>
      <trkpt lat="43.78404" lon="5.54062">
        <ele>458.13</ele>
        <time>2015-04-05T09:43:41Z</time>
      </trkpt>
      <trkpt lat="43.78406" lon="5.54088">
        <ele>461.09</ele>
        <time>2015-04-05T09:43:44Z</time>
      </trkpt>
      <trkpt lat="43.78409" lon="5.54114">
        <ele>462.76</ele>
        <time>2015-04-05T09:43:47Z</time>
      </trkpt>
      <trkpt lat="43.7842" lon="5.54138">
        <ele>464.04</ele>
        <time>2015-04-05T09:43:50Z</time>
      </trkpt>
      <trkpt lat="43.78431" lon="5.54157">
        <ele>463.96</ele>
        <time>2015-04-05T09:43:53Z</time>
      </trkpt>
      <trkpt lat="43.78449" lon="5.54179">
        <ele>464.73</ele>
        <time>2015-04-05T09:43:57Z</time>
      </trkpt>
      <trkpt lat="43.78467" lon="5.54201">
        <ele>465.06</ele>
        <time>2015-04-05T09:44:01Z</time>
      </trkpt>
      <trkpt lat="43.78482" lon="5.54219">
        <ele>465.13</ele>
        <time>2015-04-05T09:44:04Z</time>
      </trkpt>
      <trkpt lat="43.78496" lon="5.54238">
        <ele>464.94</ele>
        <time>2015-04-05T09:44:07Z</time>
      </trkpt>
      <trkpt lat="43.78516" lon="5.54253">
        <ele>463.38</ele>
        <time>2015-04-05T09:44:11Z</time>
      </trkpt>
      <trkpt lat="43.78535" lon="5.54258">
        <ele>460.96</ele>
        <time>2015-04-05T09:44:14Z</time>
      </trkpt>
      <trkpt lat="43.78558" lon="5.54249">
        <ele>458.23</ele>
        <time>2015-04-05T09:44:18Z</time>
      </trkpt>
      <trkpt lat="43.78577" lon="5.54249">
        <ele>456.42</ele>
        <time>2015-04-05T09:44:22Z</time>
      </trkpt>
      <trkpt lat="43.78578" lon="5.54277">
        <ele>455.82</ele>
        <time>2015-04-05T09:44:28Z</time>
      </trkpt>
      <trkpt lat="43.78573" lon="5.54303">
        <ele>455.27</ele>
        <time>2015-04-05T09:44:32Z</time>
      </trkpt>
      <trkpt lat="43.78572" lon="5.54331">
        <ele>454.63</ele>
        <time>2015-04-05T09:44:36Z</time>
      </trkpt>
      <trkpt lat="43.78579" lon="5.54354">
        <ele>455.27</ele>
        <time>2015-04-05T09:44:39Z</time>
      </trkpt>
      <trkpt lat="43.78598" lon="5.54372">
        <ele>457.91</ele>
        <time>2015-04-05T09:44:43Z</time>
      </trkpt>
      <trkpt lat="43.78618" lon="5.54377">
        <ele>459.42</ele>
        <time>2015-04-05T09:44:46Z</time>
      </trkpt>
      <trkpt lat="43.78639" lon="5.54376">
        <ele>461.83</ele>
        <time>2015-04-05T09:44:49Z</time>
      </trkpt>
      <trkpt lat="43.78657" lon="5.54369">
        <ele>464.6</ele>
        <time>2015-04-05T09:44:52Z</time>
      </trkpt>
      <trkpt lat="43.78678" lon="5.54361">
        <ele>467.21</ele>
        <time>2015-04-05T09:44:55Z</time>
      </trkpt>
      <trkpt lat="43.78696" lon="5.54353">
        <ele>469.89</ele>
        <time>2015-04-05T09:44:58Z</time>
      </trkpt>
      <trkpt lat="43.78718" lon="5.54343">
        <ele>472.2</ele>
        <time>2015-04-05T09:45:02Z</time>
      </trkpt>
      <trkpt lat="43.78741" lon="5.54332">
        <ele>473.54</ele>
        <time>2015-04-05T09:45:06Z</time>
      </trkpt>
      <trkpt lat="43.78719" lon="5.54336">
        <ele>471.34</ele>
        <time>2015-04-05T09:46:01Z</time>
      </trkpt>
      <trkpt lat="43.78738" lon="5.54344">
        <ele>470.85</ele>
        <time>2015-04-05T09:46:22Z</time>
      </trkpt>
      <trkpt lat="43.78757" lon="5.54338">
        <ele>471.42</ele>
        <time>2015-04-05T09:46:27Z</time>
      </trkpt>
      <trkpt lat="43.78777" lon="5.54335">
        <ele>473.38</ele>
        <time>2015-04-05T09:46:31Z</time>
      </trkpt>
      <trkpt lat="43.78796" lon="5.54336">
        <ele>473.8</ele>
        <time>2015-04-05T09:46:35Z</time>
      </trkpt>
      <trkpt lat="43.78799" lon="5.54363">
        <ele>474.05</ele>
        <time>2015-04-05T09:46:42Z</time>
      </trkpt>
      <trkpt lat="43.78788" lon="5.54383">
        <ele>474.84</ele>
        <time>2015-04-05T09:46:47Z</time>
      </trkpt>
      <trkpt lat="43.78778" lon="5.54406">
        <ele>475.53</ele>
        <time>2015-04-05T09:46:52Z</time>
      </trkpt>
      <trkpt lat="43.78772" lon="5.54432">
        <ele>476.77</ele>
        <time>2015-04-05T09:46:57Z</time>
      </trkpt>
      <trkpt lat="43.78775" lon="5.5446">
        <ele>478.39</ele>
        <time>2015-04-05T09:47:03Z</time>
      </trkpt>
      <trkpt lat="43.78777" lon="5.54485">
        <ele>480.23</ele>
        <time>2015-04-05T09:47:11Z</time>
      </trkpt>
      <trkpt lat="43.78773" lon="5.54511">
        <ele>482.35</ele>
        <time>2015-04-05T09:47:20Z</time>
      </trkpt>
      <trkpt lat="43.78772" lon="5.54538">
        <ele>483.8</ele>
        <time>2015-04-05T09:47:26Z</time>
      </trkpt>
      <trkpt lat="43.78774" lon="5.54567">
        <ele>485.51</ele>
        <time>2015-04-05T09:47:32Z</time>
      </trkpt>
      <trkpt lat="43.78779" lon="5.54594">
        <ele>487.51</ele>
        <time>2015-04-05T09:47:38Z</time>
      </trkpt>
      <trkpt lat="43.78793" lon="5.54614">
        <ele>490.66</ele>
        <time>2015-04-05T09:47:46Z</time>
      </trkpt>
      <trkpt lat="43.78812" lon="5.54611">
        <ele>497.1</ele>
        <time>2015-04-05T09:48:01Z</time>
      </trkpt>
      <trkpt lat="43.7883" lon="5.54598">
        <ele>499.31</ele>
        <time>2015-04-05T09:48:07Z</time>
      </trkpt>
      <trkpt lat="43.78848" lon="5.54583">
        <ele>500.74</ele>
        <time>2015-04-05T09:48:12Z</time>
      </trkpt>
      <trkpt lat="43.78865" lon="5.54567">
        <ele>504.53</ele>
        <time>2015-04-05T09:48:18Z</time>
      </trkpt>
      <trkpt lat="43.78883" lon="5.54557">
        <ele>505.52</ele>
        <time>2015-04-05T09:48:25Z</time>
      </trkpt>
      <trkpt lat="43.78901" lon="5.54548">
        <ele>506.11</ele>
        <time>2015-04-05T09:48:31Z</time>
      </trkpt>
      <trkpt lat="43.7892" lon="5.54539">
        <ele>506.49</ele>
        <time>2015-04-05T09:48:37Z</time>
      </trkpt>
      <trkpt lat="43.78936" lon="5.54527">
        <ele>507.33</ele>
        <time>2015-04-05T09:48:41Z</time>
      </trkpt>
      <trkpt lat="43.78953" lon="5.54512">
        <ele>509.16</ele>
        <time>2015-04-05T09:48:45Z</time>
      </trkpt>
      <trkpt lat="43.78971" lon="5.545">
        <ele>510.67</ele>
        <time>2015-04-05T09:48:49Z</time>
      </trkpt>
      <trkpt lat="43.7899" lon="5.54489">
        <ele>512.72</ele>
        <time>2015-04-05T09:48:53Z</time>
      </trkpt>
      <trkpt lat="43.7901" lon="5.54481">
        <ele>514.75</ele>
        <time>2015-04-05T09:48:58Z</time>
      </trkpt>
      <trkpt lat="43.79028" lon="5.54474">
        <ele>517.88</ele>
        <time>2015-04-05T09:49:02Z</time>
      </trkpt>
      <trkpt lat="43.79047" lon="5.54469">
        <ele>518.33</ele>
        <time>2015-04-05T09:49:06Z</time>
      </trkpt>
      <trkpt lat="43.79069" lon="5.54463">
        <ele>517.66</ele>
        <time>2015-04-05T09:49:10Z</time>
      </trkpt>
      <trkpt lat="43.79092" lon="5.54457">
        <ele>517.76</ele>
        <time>2015-04-05T09:49:14Z</time>
      </trkpt>
      <trkpt lat="43.79112" lon="5.54451">
        <ele>520.25</ele>
        <time>2015-04-05T09:49:18Z</time>
      </trkpt>
      <trkpt lat="43.79135" lon="5.54445">
        <ele>521.14</ele>
        <time>2015-04-05T09:49:22Z</time>
      </trkpt>
      <trkpt lat="43.79155" lon="5.54439">
        <ele>521.8</ele>
        <time>2015-04-05T09:49:26Z</time>
      </trkpt>
      <trkpt lat="43.79174" lon="5.54435">
        <ele>521.63</ele>
        <time>2015-04-05T09:49:30Z</time>
      </trkpt>
      <trkpt lat="43.79195" lon="5.54432">
        <ele>521.93</ele>
        <time>2015-04-05T09:49:36Z</time>
      </trkpt>
      <trkpt lat="43.79215" lon="5.54426">
        <ele>522.41</ele>
        <time>2015-04-05T09:49:41Z</time>
      </trkpt>
      <trkpt lat="43.79234" lon="5.54419">
        <ele>524.28</ele>
        <time>2015-04-05T09:49:45Z</time>
      </trkpt>
      <trkpt lat="43.79254" lon="5.54409">
        <ele>524.59</ele>
        <time>2015-04-05T09:49:50Z</time>
      </trkpt>
      <trkpt lat="43.79273" lon="5.54397">
        <ele>523.51</ele>
        <time>2015-04-05T09:49:54Z</time>
      </trkpt>
      <trkpt lat="43.79292" lon="5.54386">
        <ele>524.97</ele>
        <time>2015-04-05T09:49:59Z</time>
      </trkpt>
      <trkpt lat="43.79312" lon="5.54377">
        <ele>527.17</ele>
        <time>2015-04-05T09:50:04Z</time>
      </trkpt>
      <trkpt lat="43.79332" lon="5.54368">
        <ele>527.42</ele>
        <time>2015-04-05T09:50:09Z</time>
      </trkpt>
      <trkpt lat="43.79351" lon="5.54363">
        <ele>528.26</ele>
        <time>2015-04-05T09:50:15Z</time>
      </trkpt>
      <trkpt lat="43.79373" lon="5.54362">
        <ele>529.09</ele>
        <time>2015-04-05T09:50:20Z</time>
      </trkpt>
      <trkpt lat="43.79396" lon="5.54364">
        <ele>530.75</ele>
        <time>2015-04-05T09:50:24Z</time>
      </trkpt>
      <trkpt lat="43.79415" lon="5.54371">
        <ele>534.15</ele>
        <time>2015-04-05T09:50:28Z</time>
      </trkpt>
      <trkpt lat="43.79436" lon="5.54378">
        <ele>538.4</ele>
        <time>2015-04-05T09:50:32Z</time>
      </trkpt>
      <trkpt lat="43.79456" lon="5.54384">
        <ele>542.7</ele>
        <time>2015-04-05T09:50:35Z</time>
      </trkpt>
      <trkpt lat="43.79473" lon="5.54393">
        <ele>544.76</ele>
        <time>2015-04-05T09:50:38Z</time>
      </trkpt>
      <trkpt lat="43.79491" lon="5.54405">
        <ele>546.61</ele>
        <time>2015-04-05T09:50:42Z</time>
      </trkpt>
      <trkpt lat="43.79508" lon="5.54419">
        <ele>549.22</ele>
        <time>2015-04-05T09:50:46Z</time>
      </trkpt>
      <trkpt lat="43.79525" lon="5.54437">
        <ele>552.33</ele>
        <time>2015-04-05T09:50:51Z</time>
      </trkpt>
      <trkpt lat="43.79542" lon="5.54448">
        <ele>552.77</ele>
        <time>2015-04-05T09:50:55Z</time>
      </trkpt>
      <trkpt lat="43.79564" lon="5.54451">
        <ele>553.63</ele>
        <time>2015-04-05T09:51:00Z</time>
      </trkpt>
      <trkpt lat="43.79586" lon="5.54457">
        <ele>555.14</ele>
        <time>2015-04-05T09:51:04Z</time>
      </trkpt>
      <trkpt lat="43.79606" lon="5.54471">
        <ele>557.34</ele>
        <time>2015-04-05T09:51:08Z</time>
      </trkpt>
      <trkpt lat="43.79625" lon="5.54486">
        <ele>559.34</ele>
        <time>2015-04-05T09:51:12Z</time>
      </trkpt>
      <trkpt lat="43.7964" lon="5.54499">
        <ele>560.96</ele>
        <time>2015-04-05T09:51:16Z</time>
      </trkpt>
      <trkpt lat="43.79655" lon="5.54517">
        <ele>560.77</ele>
        <time>2015-04-05T09:51:20Z</time>
      </trkpt>
      <trkpt lat="43.7967" lon="5.54536">
        <ele>560.65</ele>
        <time>2015-04-05T09:51:24Z</time>
      </trkpt>
      <trkpt lat="43.79687" lon="5.5455">
        <ele>560.56</ele>
        <time>2015-04-05T09:51:28Z</time>
      </trkpt>
      <trkpt lat="43.79703" lon="5.54562">
        <ele>559.29</ele>
        <time>2015-04-05T09:51:31Z</time>
      </trkpt>
      <trkpt lat="43.79721" lon="5.54577">
        <ele>558.45</ele>
        <time>2015-04-05T09:51:35Z</time>
      </trkpt>
      <trkpt lat="43.79741" lon="5.54589">
        <ele>558.22</ele>
        <time>2015-04-05T09:51:39Z</time>
      </trkpt>
      <trkpt lat="43.79756" lon="5.54605">
        <ele>558.24</ele>
        <time>2015-04-05T09:51:42Z</time>
      </trkpt>
      <trkpt lat="43.79773" lon="5.5462">
        <ele>560.28</ele>
        <time>2015-04-05T09:51:46Z</time>
      </trkpt>
      <trkpt lat="43.79792" lon="5.54633">
        <ele>559.58</ele>
        <time>2015-04-05T09:51:50Z</time>
      </trkpt>
      <trkpt lat="43.79813" lon="5.54641">
        <ele>558.69</ele>
        <time>2015-04-05T09:51:54Z</time>
      </trkpt>
      <trkpt lat="43.79833" lon="5.54648">
        <ele>559.79</ele>
        <time>2015-04-05T09:51:58Z</time>
      </trkpt>
      <trkpt lat="43.79851" lon="5.54659">
        <ele>562.45</ele>
        <time>2015-04-05T09:52:02Z</time>
      </trkpt>
      <trkpt lat="43.79865" lon="5.54677">
        <ele>563.08</ele>
        <time>2015-04-05T09:52:06Z</time>
      </trkpt>
      <trkpt lat="43.79878" lon="5.54699">
        <ele>563.67</ele>
        <time>2015-04-05T09:52:11Z</time>
      </trkpt>
      <trkpt lat="43.79891" lon="5.54717">
        <ele>564.08</ele>
        <time>2015-04-05T09:52:16Z</time>
      </trkpt>
      <trkpt lat="43.799" lon="5.54739">
        <ele>564.52</ele>
        <time>2015-04-05T09:52:21Z</time>
      </trkpt>
      <trkpt lat="43.79911" lon="5.54765">
        <ele>565.7</ele>
        <time>2015-04-05T09:52:26Z</time>
      </trkpt>
      <trkpt lat="43.79922" lon="5.5479">
        <ele>566.82</ele>
        <time>2015-04-05T09:52:33Z</time>
      </trkpt>
      <trkpt lat="43.79931" lon="5.54813">
        <ele>568.48</ele>
        <time>2015-04-05T09:52:41Z</time>
      </trkpt>
      <trkpt lat="43.7995" lon="5.54815">
        <ele>571.57</ele>
        <time>2015-04-05T09:52:51Z</time>
      </trkpt>
      <trkpt lat="43.79969" lon="5.54803">
        <ele>574.66</ele>
        <time>2015-04-05T09:52:59Z</time>
      </trkpt>
      <trkpt lat="43.79984" lon="5.54788">
        <ele>578</ele>
        <time>2015-04-05T09:53:07Z</time>
      </trkpt>
      <trkpt lat="43.80001" lon="5.54776">
        <ele>585.39</ele>
        <time>2015-04-05T09:53:34Z</time>
      </trkpt>
      <trkpt lat="43.80018" lon="5.54764">
        <ele>588.01</ele>
        <time>2015-04-05T09:53:39Z</time>
      </trkpt>
      <trkpt lat="43.80037" lon="5.54761">
        <ele>591.83</ele>
        <time>2015-04-05T09:53:43Z</time>
      </trkpt>
      <trkpt lat="43.80056" lon="5.54774">
        <ele>593.02</ele>
        <time>2015-04-05T09:53:48Z</time>
      </trkpt>
      <trkpt lat="43.80067" lon="5.54795">
        <ele>593.42</ele>
        <time>2015-04-05T09:53:52Z</time>
      </trkpt>
      <trkpt lat="43.80085" lon="5.54812">
        <ele>597.53</ele>
        <time>2015-04-05T09:53:57Z</time>
      </trkpt>
      <trkpt lat="43.80104" lon="5.54823">
        <ele>600.59</ele>
        <time>2015-04-05T09:54:02Z</time>
      </trkpt>
      <trkpt lat="43.80123" lon="5.54834">
        <ele>601.95</ele>
        <time>2015-04-05T09:54:07Z</time>
      </trkpt>
      <trkpt lat="43.80139" lon="5.54846">
        <ele>602.8</ele>
        <time>2015-04-05T09:54:11Z</time>
      </trkpt>
      <trkpt lat="43.80148" lon="5.54871">
        <ele>602.72</ele>
        <time>2015-04-05T09:54:17Z</time>
      </trkpt>
      <trkpt lat="43.80145" lon="5.54901">
        <ele>604.16</ele>
        <time>2015-04-05T09:54:22Z</time>
      </trkpt>
      <trkpt lat="43.80133" lon="5.54919">
        <ele>606.55</ele>
        <time>2015-04-05T09:54:25Z</time>
      </trkpt>
      <trkpt lat="43.8012" lon="5.54942">
        <ele>609.53</ele>
        <time>2015-04-05T09:54:30Z</time>
      </trkpt>
      <trkpt lat="43.80121" lon="5.54969">
        <ele>610.34</ele>
        <time>2015-04-05T09:54:36Z</time>
      </trkpt>
      <trkpt lat="43.8014" lon="5.54974">
        <ele>618.27</ele>
        <time>2015-04-05T09:58:28Z</time>
      </trkpt>
      <trkpt lat="43.8016" lon="5.5498">
        <ele>618</ele>
        <time>2015-04-05T09:58:35Z</time>
      </trkpt>
      <trkpt lat="43.80179" lon="5.54984">
        <ele>618.08</ele>
        <time>2015-04-05T09:58:40Z</time>
      </trkpt>
      <trkpt lat="43.80198" lon="5.54989">
        <ele>618.19</ele>
        <time>2015-04-05T09:58:45Z</time>
      </trkpt>
      <trkpt lat="43.80217" lon="5.54997">
        <ele>618.68</ele>
        <time>2015-04-05T09:58:51Z</time>
      </trkpt>
      <trkpt lat="43.80235" lon="5.55003">
        <ele>619.64</ele>
        <time>2015-04-05T09:58:56Z</time>
      </trkpt>
      <trkpt lat="43.80255" lon="5.55006">
        <ele>620.69</ele>
        <time>2015-04-05T09:59:02Z</time>
      </trkpt>
      <trkpt lat="43.80275" lon="5.55015">
        <ele>622.32</ele>
        <time>2015-04-05T09:59:09Z</time>
      </trkpt>
      <trkpt lat="43.80292" lon="5.55021">
        <ele>623.94</ele>
        <time>2015-04-05T09:59:15Z</time>
      </trkpt>
      <trkpt lat="43.8031" lon="5.55024">
        <ele>625.81</ele>
        <time>2015-04-05T09:59:21Z</time>
      </trkpt>
      <trkpt lat="43.8033" lon="5.55026">
        <ele>628.22</ele>
        <time>2015-04-05T09:59:29Z</time>
      </trkpt>
      <trkpt lat="43.80348" lon="5.5503">
        <ele>630.32</ele>
        <time>2015-04-05T09:59:35Z</time>
      </trkpt>
      <trkpt lat="43.80368" lon="5.55034">
        <ele>632.61</ele>
        <time>2015-04-05T09:59:42Z</time>
      </trkpt>
      <trkpt lat="43.80387" lon="5.55042">
        <ele>634.62</ele>
        <time>2015-04-05T09:59:48Z</time>
      </trkpt>
      <trkpt lat="43.80404" lon="5.55051">
        <ele>636.63</ele>
        <time>2015-04-05T09:59:54Z</time>
      </trkpt>
      <trkpt lat="43.80424" lon="5.55056">
        <ele>639.91</ele>
        <time>2015-04-05T10:00:02Z</time>
      </trkpt>
      <trkpt lat="43.80444" lon="5.55056">
        <ele>642.57</ele>
        <time>2015-04-05T10:00:09Z</time>
      </trkpt>
      <trkpt lat="43.80464" lon="5.55052">
        <ele>644.95</ele>
        <time>2015-04-05T10:00:15Z</time>
      </trkpt>
      <trkpt lat="43.80483" lon="5.5505">
        <ele>646.55</ele>
        <time>2015-04-05T10:00:20Z</time>
      </trkpt>
      <trkpt lat="43.80503" lon="5.55047">
        <ele>648.84</ele>
        <time>2015-04-05T10:00:26Z</time>
      </trkpt>
      <trkpt lat="43.80521" lon="5.55042">
        <ele>651.01</ele>
        <time>2015-04-05T10:00:31Z</time>
      </trkpt>
      <trkpt lat="43.80542" lon="5.55035">
        <ele>653.87</ele>
        <time>2015-04-05T10:00:38Z</time>
      </trkpt>
      <trkpt lat="43.80562" lon="5.5503">
        <ele>656.38</ele>
        <time>2015-04-05T10:00:44Z</time>
      </trkpt>
      <trkpt lat="43.80581" lon="5.55028">
        <ele>658.74</ele>
        <time>2015-04-05T10:00:50Z</time>
      </trkpt>
      <trkpt lat="43.80601" lon="5.55028">
        <ele>661.53</ele>
        <time>2015-04-05T10:00:57Z</time>
      </trkpt>
      <trkpt lat="43.80621" lon="5.55025">
        <ele>664.41</ele>
        <time>2015-04-05T10:01:04Z</time>
      </trkpt>
      <trkpt lat="43.80641" lon="5.55025">
        <ele>667.46</ele>
        <time>2015-04-05T10:01:11Z</time>
      </trkpt>
      <trkpt lat="43.80659" lon="5.55021">
        <ele>671.25</ele>
        <time>2015-04-05T10:01:19Z</time>
      </trkpt>
      <trkpt lat="43.80679" lon="5.5502">
        <ele>674.02</ele>
        <time>2015-04-05T10:01:26Z</time>
      </trkpt>
      <trkpt lat="43.80698" lon="5.5502">
        <ele>676.58</ele>
        <time>2015-04-05T10:01:32Z</time>
      </trkpt>
      <trkpt lat="43.80716" lon="5.55023">
        <ele>679.32</ele>
        <time>2015-04-05T10:01:39Z</time>
      </trkpt>
      <trkpt lat="43.80735" lon="5.55025">
        <ele>682.99</ele>
        <time>2015-04-05T10:01:47Z</time>
      </trkpt>
      <trkpt lat="43.80754" lon="5.55027">
        <ele>686.64</ele>
        <time>2015-04-05T10:01:55Z</time>
      </trkpt>
      <trkpt lat="43.80773" lon="5.55029">
        <ele>690.15</ele>
        <time>2015-04-05T10:02:02Z</time>
      </trkpt>
      <trkpt lat="43.80791" lon="5.55029">
        <ele>693.78</ele>
        <time>2015-04-05T10:02:10Z</time>
      </trkpt>
      <trkpt lat="43.80802" lon="5.55007">
        <ele>697.05</ele>
        <time>2015-04-05T10:02:17Z</time>
      </trkpt>
      <trkpt lat="43.80811" lon="5.54985">
        <ele>699.96</ele>
        <time>2015-04-05T10:02:24Z</time>
      </trkpt>
      <trkpt lat="43.80821" lon="5.54958">
        <ele>702.6</ele>
        <time>2015-04-05T10:02:30Z</time>
      </trkpt>
      <trkpt lat="43.80839" lon="5.5495">
        <ele>705.97</ele>
        <time>2015-04-05T10:02:37Z</time>
      </trkpt>
      <trkpt lat="43.80848" lon="5.54973">
        <ele>715.87</ele>
        <time>2015-04-05T10:04:23Z</time>
      </trkpt>
      <trkpt lat="43.80865" lon="5.54962">
        <ele>717.32</ele>
        <time>2015-04-05T10:04:47Z</time>
      </trkpt>
      <trkpt lat="43.80885" lon="5.5497">
        <ele>718.64</ele>
        <time>2015-04-05T10:04:55Z</time>
      </trkpt>
      <trkpt lat="43.80904" lon="5.54977">
        <ele>720.96</ele>
        <time>2015-04-05T10:05:04Z</time>
      </trkpt>
      <trkpt lat="43.80924" lon="5.54981">
        <ele>723.99</ele>
        <time>2015-04-05T10:05:14Z</time>
      </trkpt>
      <trkpt lat="43.80944" lon="5.54977">
        <ele>727.29</ele>
        <time>2015-04-05T10:05:24Z</time>
      </trkpt>
      <trkpt lat="43.80963" lon="5.5497">
        <ele>730.01</ele>
        <time>2015-04-05T10:05:34Z</time>
      </trkpt>
      <trkpt lat="43.80981" lon="5.54959">
        <ele>732.77</ele>
        <time>2015-04-05T10:05:44Z</time>
      </trkpt>
      <trkpt lat="43.80998" lon="5.54944">
        <ele>735.54</ele>
        <time>2015-04-05T10:05:53Z</time>
      </trkpt>
      <trkpt lat="43.81015" lon="5.54934">
        <ele>738.22</ele>
        <time>2015-04-05T10:06:01Z</time>
      </trkpt>
      <trkpt lat="43.81031" lon="5.54916">
        <ele>741.21</ele>
        <time>2015-04-05T10:06:08Z</time>
      </trkpt>
      <trkpt lat="43.81041" lon="5.54891">
        <ele>743.6</ele>
        <time>2015-04-05T10:06:13Z</time>
      </trkpt>
      <trkpt lat="43.81046" lon="5.54864">
        <ele>746.07</ele>
        <time>2015-04-05T10:06:18Z</time>
      </trkpt>
      <trkpt lat="43.81057" lon="5.54842">
        <ele>750.58</ele>
        <time>2015-04-05T10:06:27Z</time>
      </trkpt>
      <trkpt lat="43.81073" lon="5.54825">
        <ele>754.23</ele>
        <time>2015-04-05T10:06:35Z</time>
      </trkpt>
      <trkpt lat="43.81091" lon="5.54836">
        <ele>757.16</ele>
        <time>2015-04-05T10:06:43Z</time>
      </trkpt>
      <trkpt lat="43.81099" lon="5.54858">
        <ele>758.9</ele>
        <time>2015-04-05T10:06:49Z</time>
      </trkpt>
      <trkpt lat="43.8111" lon="5.54882">
        <ele>761.22</ele>
        <time>2015-04-05T10:06:56Z</time>
      </trkpt>
      <trkpt lat="43.8112" lon="5.54908">
        <ele>763.92</ele>
        <time>2015-04-05T10:07:03Z</time>
      </trkpt>
      <trkpt lat="43.81129" lon="5.54931">
        <ele>766.94</ele>
        <time>2015-04-05T10:07:11Z</time>
      </trkpt>
      <trkpt lat="43.81136" lon="5.54955">
        <ele>769.61</ele>
        <time>2015-04-05T10:07:19Z</time>
      </trkpt>
      <trkpt lat="43.81121" lon="5.54974">
        <ele>775.33</ele>
        <time>2015-04-05T10:07:25Z</time>
      </trkpt>
      <trkpt lat="43.8111" lon="5.54995">
        <ele>783.63</ele>
        <time>2015-04-05T10:07:30Z</time>
      </trkpt>
      <trkpt lat="43.81105" lon="5.55021">
        <ele>785.76</ele>
        <time>2015-04-05T10:07:35Z</time>
      </trkpt>
      <trkpt lat="43.81101" lon="5.55047">
        <ele>786.56</ele>
        <time>2015-04-05T10:07:47Z</time>
      </trkpt>
      <trkpt lat="43.81101" lon="5.55073">
        <ele>788.28</ele>
        <time>2015-04-05T10:07:57Z</time>
      </trkpt>
      <trkpt lat="43.811" lon="5.55101">
        <ele>790.56</ele>
        <time>2015-04-05T10:08:06Z</time>
      </trkpt>
      <trkpt lat="43.81097" lon="5.55126">
        <ele>791.98</ele>
        <time>2015-04-05T10:08:13Z</time>
      </trkpt>
      <trkpt lat="43.81094" lon="5.55151">
        <ele>796.19</ele>
        <time>2015-04-05T10:08:30Z</time>
      </trkpt>
      <trkpt lat="43.81095" lon="5.55176">
        <ele>798.2</ele>
        <time>2015-04-05T10:08:40Z</time>
      </trkpt>
      <trkpt lat="43.81093" lon="5.55204">
        <ele>800.41</ele>
        <time>2015-04-05T10:08:49Z</time>
      </trkpt>
      <trkpt lat="43.81094" lon="5.55232">
        <ele>801.69</ele>
        <time>2015-04-05T10:08:56Z</time>
      </trkpt>
      <trkpt lat="43.81097" lon="5.55257">
        <ele>803.64</ele>
        <time>2015-04-05T10:09:06Z</time>
      </trkpt>
      <trkpt lat="43.81103" lon="5.55281">
        <ele>805.19</ele>
        <time>2015-04-05T10:09:13Z</time>
      </trkpt>
      <trkpt lat="43.81109" lon="5.55307">
        <ele>807.05</ele>
        <time>2015-04-05T10:09:21Z</time>
      </trkpt>
      <trkpt lat="43.81103" lon="5.55331">
        <ele>814.35</ele>
        <time>2015-04-05T10:10:11Z</time>
      </trkpt>
      <trkpt lat="43.81098" lon="5.5536">
        <ele>816.23</ele>
        <time>2015-04-05T10:10:23Z</time>
      </trkpt>
      <trkpt lat="43.81096" lon="5.55386">
        <ele>817.89</ele>
        <time>2015-04-05T10:10:31Z</time>
      </trkpt>
      <trkpt lat="43.8109" lon="5.55413">
        <ele>819.48</ele>
        <time>2015-04-05T10:10:38Z</time>
      </trkpt>
      <trkpt lat="43.81084" lon="5.5544">
        <ele>820.86</ele>
        <time>2015-04-05T10:10:44Z</time>
      </trkpt>
      <trkpt lat="43.81081" lon="5.55467">
        <ele>823.93</ele>
        <time>2015-04-05T10:10:58Z</time>
      </trkpt>
      <trkpt lat="43.81076" lon="5.55493">
        <ele>825.61</ele>
        <time>2015-04-05T10:11:05Z</time>
      </trkpt>
      <trkpt lat="43.8107" lon="5.55519">
        <ele>828.12</ele>
        <time>2015-04-05T10:11:14Z</time>
      </trkpt>
      <trkpt lat="43.81065" lon="5.55543">
        <ele>832.39</ele>
        <time>2015-04-05T10:11:52Z</time>
      </trkpt>
      <trkpt lat="43.81057" lon="5.55566">
        <ele>839.21</ele>
        <time>2015-04-05T10:13:21Z</time>
      </trkpt>
      <trkpt lat="43.81049" lon="5.55592">
        <ele>840.18</ele>
        <time>2015-04-05T10:13:27Z</time>
      </trkpt>
      <trkpt lat="43.81043" lon="5.55617">
        <ele>841.07</ele>
        <time>2015-04-05T10:13:32Z</time>
      </trkpt>
      <trkpt lat="43.81038" lon="5.55641">
        <ele>843.52</ele>
        <time>2015-04-05T10:13:37Z</time>
      </trkpt>
      <trkpt lat="43.81031" lon="5.55669">
        <ele>844.45</ele>
        <time>2015-04-05T10:13:43Z</time>
      </trkpt>
      <trkpt lat="43.81023" lon="5.55693">
        <ele>845.23</ele>
        <time>2015-04-05T10:13:48Z</time>
      </trkpt>
      <trkpt lat="43.81018" lon="5.55719">
        <ele>845.92</ele>
        <time>2015-04-05T10:13:53Z</time>
      </trkpt>
      <trkpt lat="43.81012" lon="5.55744">
        <ele>846.84</ele>
        <time>2015-04-05T10:13:58Z</time>
      </trkpt>
      <trkpt lat="43.81008" lon="5.55771">
        <ele>848.24</ele>
        <time>2015-04-05T10:14:04Z</time>
      </trkpt>
      <trkpt lat="43.81007" lon="5.55799">
        <ele>849.87</ele>
        <time>2015-04-05T10:14:10Z</time>
      </trkpt>
      <trkpt lat="43.81006" lon="5.55828">
        <ele>853.91</ele>
        <time>2015-04-05T10:14:15Z</time>
      </trkpt>
      <trkpt lat="43.81005" lon="5.55857">
        <ele>859.12</ele>
        <time>2015-04-05T10:14:20Z</time>
      </trkpt>
      <trkpt lat="43.81006" lon="5.55883">
        <ele>860.61</ele>
        <time>2015-04-05T10:14:25Z</time>
      </trkpt>
      <trkpt lat="43.81009" lon="5.55911">
        <ele>864.49</ele>
        <time>2015-04-05T10:14:30Z</time>
      </trkpt>
      <trkpt lat="43.81022" lon="5.5593">
        <ele>872.03</ele>
        <time>2015-04-05T10:19:49Z</time>
      </trkpt>
      <trkpt lat="43.81038" lon="5.55942">
        <ele>872.67</ele>
        <time>2015-04-05T10:19:56Z</time>
      </trkpt>
      <trkpt lat="43.81052" lon="5.55959">
        <ele>873.92</ele>
        <time>2015-04-05T10:20:01Z</time>
      </trkpt>
      <trkpt lat="43.81066" lon="5.55977">
        <ele>876.27</ele>
        <time>2015-04-05T10:20:05Z</time>
      </trkpt>
      <trkpt lat="43.81081" lon="5.56">
        <ele>877.73</ele>
        <time>2015-04-05T10:20:10Z</time>
      </trkpt>
      <trkpt lat="43.81093" lon="5.56021">
        <ele>877.89</ele>
        <time>2015-04-05T10:20:15Z</time>
      </trkpt>
      <trkpt lat="43.81104" lon="5.56043">
        <ele>878.18</ele>
        <time>2015-04-05T10:20:20Z</time>
      </trkpt>
      <trkpt lat="43.81112" lon="5.56067">
        <ele>878.71</ele>
        <time>2015-04-05T10:20:25Z</time>
      </trkpt>
      <trkpt lat="43.81121" lon="5.56094">
        <ele>880.07</ele>
        <time>2015-04-05T10:20:31Z</time>
      </trkpt>
      <trkpt lat="43.81126" lon="5.56122">
        <ele>883.42</ele>
        <time>2015-04-05T10:20:36Z</time>
      </trkpt>
      <trkpt lat="43.81128" lon="5.56147">
        <ele>886.1</ele>
        <time>2015-04-05T10:20:40Z</time>
      </trkpt>
      <trkpt lat="43.81139" lon="5.56167">
        <ele>886.85</ele>
        <time>2015-04-05T10:20:45Z</time>
      </trkpt>
      <trkpt lat="43.81156" lon="5.56181">
        <ele>887.84</ele>
        <time>2015-04-05T10:20:51Z</time>
      </trkpt>
      <trkpt lat="43.81164" lon="5.56207">
        <ele>888.66</ele>
        <time>2015-04-05T10:20:56Z</time>
      </trkpt>
      <trkpt lat="43.81166" lon="5.56236">
        <ele>889.67</ele>
        <time>2015-04-05T10:21:02Z</time>
      </trkpt>
      <trkpt lat="43.81174" lon="5.56261">
        <ele>891.72</ele>
        <time>2015-04-05T10:21:07Z</time>
      </trkpt>
      <trkpt lat="43.81184" lon="5.56287">
        <ele>895.16</ele>
        <time>2015-04-05T10:21:12Z</time>
      </trkpt>
      <trkpt lat="43.81196" lon="5.56308">
        <ele>899.43</ele>
        <time>2015-04-05T10:21:16Z</time>
      </trkpt>
      <trkpt lat="43.81212" lon="5.56321">
        <ele>903.15</ele>
        <time>2015-04-05T10:21:20Z</time>
      </trkpt>
      <trkpt lat="43.81231" lon="5.5632">
        <ele>903.54</ele>
        <time>2015-04-05T10:21:25Z</time>
      </trkpt>
      <trkpt lat="43.81249" lon="5.56308">
        <ele>903.53</ele>
        <time>2015-04-05T10:21:30Z</time>
      </trkpt>
      <trkpt lat="43.81264" lon="5.56289">
        <ele>903.63</ele>
        <time>2015-04-05T10:21:35Z</time>
      </trkpt>
      <trkpt lat="43.81275" lon="5.56264">
        <ele>904.32</ele>
        <time>2015-04-05T10:21:41Z</time>
      </trkpt>
      <trkpt lat="43.81286" lon="5.56241">
        <ele>905.19</ele>
        <time>2015-04-05T10:21:46Z</time>
      </trkpt>
      <trkpt lat="43.81297" lon="5.56218">
        <ele>906.42</ele>
        <time>2015-04-05T10:21:52Z</time>
      </trkpt>
      <trkpt lat="43.81309" lon="5.56196">
        <ele>907.69</ele>
        <time>2015-04-05T10:22:00Z</time>
      </trkpt>
      <trkpt lat="43.8132" lon="5.56175">
        <ele>909.04</ele>
        <time>2015-04-05T10:22:07Z</time>
      </trkpt>
      <trkpt lat="43.81334" lon="5.56155">
        <ele>910.44</ele>
        <time>2015-04-05T10:22:14Z</time>
      </trkpt>
      <trkpt lat="43.81346" lon="5.5613">
        <ele>911.3</ele>
        <time>2015-04-05T10:22:19Z</time>
      </trkpt>
      <trkpt lat="43.81353" lon="5.56106">
        <ele>912.43</ele>
        <time>2015-04-05T10:22:23Z</time>
      </trkpt>
      <trkpt lat="43.81364" lon="5.56081">
        <ele>913.84</ele>
        <time>2015-04-05T10:22:28Z</time>
      </trkpt>
      <trkpt lat="43.81355" lon="5.56059">
        <ele>925.91</ele>
        <time>2015-04-05T10:23:56Z</time>
      </trkpt>
      <trkpt lat="43.81367" lon="5.56078">
        <ele>926.93</ele>
        <time>2015-04-05T10:24:17Z</time>
      </trkpt>
      <trkpt lat="43.81358" lon="5.56101">
        <ele>938.24</ele>
        <time>2015-04-05T10:26:31Z</time>
      </trkpt>
      <trkpt lat="43.81353" lon="5.56128">
        <ele>937.2</ele>
        <time>2015-04-05T10:26:35Z</time>
      </trkpt>
      <trkpt lat="43.81346" lon="5.56152">
        <ele>932.07</ele>
        <time>2015-04-05T10:26:39Z</time>
      </trkpt>
      <trkpt lat="43.81333" lon="5.5617">
        <ele>928.62</ele>
        <time>2015-04-05T10:26:43Z</time>
      </trkpt>
      <trkpt lat="43.81316" lon="5.5619">
        <ele>924.77</ele>
        <time>2015-04-05T10:26:48Z</time>
      </trkpt>
      <trkpt lat="43.81303" lon="5.56208">
        <ele>921.51</ele>
        <time>2015-04-05T10:26:52Z</time>
      </trkpt>
      <trkpt lat="43.81292" lon="5.56228">
        <ele>918.6</ele>
        <time>2015-04-05T10:26:56Z</time>
      </trkpt>
      <trkpt lat="43.81279" lon="5.56254">
        <ele>916.58</ele>
        <time>2015-04-05T10:27:01Z</time>
      </trkpt>
      <trkpt lat="43.81268" lon="5.56279">
        <ele>913.3</ele>
        <time>2015-04-05T10:27:05Z</time>
      </trkpt>
      <trkpt lat="43.81259" lon="5.56304">
        <ele>912.94</ele>
        <time>2015-04-05T10:27:11Z</time>
      </trkpt>
      <trkpt lat="43.81241" lon="5.5632">
        <ele>913.38</ele>
        <time>2015-04-05T10:27:19Z</time>
      </trkpt>
      <trkpt lat="43.81233" lon="5.56345">
        <ele>913.41</ele>
        <time>2015-04-05T10:27:28Z</time>
      </trkpt>
      <trkpt lat="43.81249" lon="5.56362">
        <ele>912.92</ele>
        <time>2015-04-05T10:27:36Z</time>
      </trkpt>
      <trkpt lat="43.81267" lon="5.56363">
        <ele>911.45</ele>
        <time>2015-04-05T10:27:42Z</time>
      </trkpt>
      <trkpt lat="43.81285" lon="5.5636">
        <ele>909.45</ele>
        <time>2015-04-05T10:27:48Z</time>
      </trkpt>
      <trkpt lat="43.81307" lon="5.5636">
        <ele>901.12</ele>
        <time>2015-04-05T10:27:53Z</time>
      </trkpt>
      <trkpt lat="43.81329" lon="5.56358">
        <ele>892.52</ele>
        <time>2015-04-05T10:27:58Z</time>
      </trkpt>
      <trkpt lat="43.81348" lon="5.56353">
        <ele>888.57</ele>
        <time>2015-04-05T10:28:02Z</time>
      </trkpt>
      <trkpt lat="43.8137" lon="5.56348">
        <ele>884.3</ele>
        <time>2015-04-05T10:28:07Z</time>
      </trkpt>
      <trkpt lat="43.81389" lon="5.56347">
        <ele>880.68</ele>
        <time>2015-04-05T10:28:12Z</time>
      </trkpt>
      <trkpt lat="43.8141" lon="5.56345">
        <ele>879.48</ele>
        <time>2015-04-05T10:28:18Z</time>
      </trkpt>
      <trkpt lat="43.81431" lon="5.56343">
        <ele>875.74</ele>
        <time>2015-04-05T10:28:24Z</time>
      </trkpt>
      <trkpt lat="43.81449" lon="5.56344">
        <ele>865.61</ele>
        <time>2015-04-05T10:28:27Z</time>
      </trkpt>
      <trkpt lat="43.81468" lon="5.56352">
        <ele>859.97</ele>
        <time>2015-04-05T10:28:31Z</time>
      </trkpt>
      <trkpt lat="43.81486" lon="5.5636">
        <ele>859.12</ele>
        <time>2015-04-05T10:28:35Z</time>
      </trkpt>
      <trkpt lat="43.81508" lon="5.56365">
        <ele>858.85</ele>
        <time>2015-04-05T10:28:40Z</time>
      </trkpt>
      <trkpt lat="43.81534" lon="5.5637">
        <ele>861.19</ele>
        <time>2015-04-05T10:28:44Z</time>
      </trkpt>
      <trkpt lat="43.81558" lon="5.56373">
        <ele>867.02</ele>
        <time>2015-04-05T10:28:47Z</time>
      </trkpt>
      <trkpt lat="43.81579" lon="5.56374">
        <ele>869.78</ele>
        <time>2015-04-05T10:28:51Z</time>
      </trkpt>
      <trkpt lat="43.81601" lon="5.56369">
        <ele>870.21</ele>
        <time>2015-04-05T10:28:56Z</time>
      </trkpt>
      <trkpt lat="43.8162" lon="5.56365">
        <ele>870.08</ele>
        <time>2015-04-05T10:29:01Z</time>
      </trkpt>
      <trkpt lat="43.81639" lon="5.56357">
        <ele>869.01</ele>
        <time>2015-04-05T10:29:07Z</time>
      </trkpt>
      <trkpt lat="43.81656" lon="5.56345">
        <ele>866.41</ele>
        <time>2015-04-05T10:29:15Z</time>
      </trkpt>
      <trkpt lat="43.8167" lon="5.56329">
        <ele>864.11</ele>
        <time>2015-04-05T10:29:19Z</time>
      </trkpt>
      <trkpt lat="43.81687" lon="5.56308">
        <ele>861.27</ele>
        <time>2015-04-05T10:29:23Z</time>
      </trkpt>
      <trkpt lat="43.81703" lon="5.56292">
        <ele>859.11</ele>
        <time>2015-04-05T10:29:26Z</time>
      </trkpt>
      <trkpt lat="43.81722" lon="5.56281">
        <ele>856.11</ele>
        <time>2015-04-05T10:29:30Z</time>
      </trkpt>
      <trkpt lat="43.8174" lon="5.56267">
        <ele>852.11</ele>
        <time>2015-04-05T10:29:35Z</time>
      </trkpt>
      <trkpt lat="43.81751" lon="5.56247">
        <ele>845.79</ele>
        <time>2015-04-05T10:29:43Z</time>
      </trkpt>
      <trkpt lat="43.81771" lon="5.56237">
        <ele>843.84</ele>
        <time>2015-04-05T10:29:48Z</time>
      </trkpt>
      <trkpt lat="43.81792" lon="5.56236">
        <ele>843.88</ele>
        <time>2015-04-05T10:29:52Z</time>
      </trkpt>
      <trkpt lat="43.81813" lon="5.56228">
        <ele>843.89</ele>
        <time>2015-04-05T10:29:55Z</time>
      </trkpt>
      <trkpt lat="43.81833" lon="5.56216">
        <ele>843.95</ele>
        <time>2015-04-05T10:29:58Z</time>
      </trkpt>
      <trkpt lat="43.81852" lon="5.56217">
        <ele>844.88</ele>
        <time>2015-04-05T10:30:05Z</time>
      </trkpt>
      <trkpt lat="43.81861" lon="5.56244">
        <ele>846.13</ele>
        <time>2015-04-05T10:30:12Z</time>
      </trkpt>
      <trkpt lat="43.81865" lon="5.56275">
        <ele>847.03</ele>
        <time>2015-04-05T10:30:17Z</time>
      </trkpt>
      <trkpt lat="43.81867" lon="5.56306">
        <ele>847.84</ele>
        <time>2015-04-05T10:30:21Z</time>
      </trkpt>
      <trkpt lat="43.81865" lon="5.56338">
        <ele>848.46</ele>
        <time>2015-04-05T10:30:24Z</time>
      </trkpt>
      <trkpt lat="43.81866" lon="5.56364">
        <ele>849.06</ele>
        <time>2015-04-05T10:30:28Z</time>
      </trkpt>
      <trkpt lat="43.81866" lon="5.56391">
        <ele>850.14</ele>
        <time>2015-04-05T10:30:34Z</time>
      </trkpt>
      <trkpt lat="43.81858" lon="5.56418">
        <ele>851.51</ele>
        <time>2015-04-05T10:30:39Z</time>
      </trkpt>
      <trkpt lat="43.81857" lon="5.56446">
        <ele>851.76</ele>
        <time>2015-04-05T10:30:43Z</time>
      </trkpt>
      <trkpt lat="43.8186" lon="5.56472">
        <ele>851.84</ele>
        <time>2015-04-05T10:30:47Z</time>
      </trkpt>
      <trkpt lat="43.8186" lon="5.56502">
        <ele>852.27</ele>
        <time>2015-04-05T10:30:52Z</time>
      </trkpt>
      <trkpt lat="43.81861" lon="5.56528">
        <ele>852.74</ele>
        <time>2015-04-05T10:30:56Z</time>
      </trkpt>
      <trkpt lat="43.81864" lon="5.56552">
        <ele>853.67</ele>
        <time>2015-04-05T10:31:04Z</time>
      </trkpt>
      <trkpt lat="43.81866" lon="5.56579">
        <ele>863.99</ele>
        <time>2015-04-05T10:32:51Z</time>
      </trkpt>
      <trkpt lat="43.81878" lon="5.56598">
        <ele>864.75</ele>
        <time>2015-04-05T10:32:57Z</time>
      </trkpt>
      <trkpt lat="43.81894" lon="5.56615">
        <ele>866.93</ele>
        <time>2015-04-05T10:33:02Z</time>
      </trkpt>
      <trkpt lat="43.81912" lon="5.56629">
        <ele>868.52</ele>
        <time>2015-04-05T10:33:08Z</time>
      </trkpt>
      <trkpt lat="43.81929" lon="5.56644">
        <ele>871.94</ele>
        <time>2015-04-05T10:33:13Z</time>
      </trkpt>
      <trkpt lat="43.81943" lon="5.56661">
        <ele>874.53</ele>
        <time>2015-04-05T10:33:17Z</time>
      </trkpt>
      <trkpt lat="43.81957" lon="5.5668">
        <ele>874.89</ele>
        <time>2015-04-05T10:33:21Z</time>
      </trkpt>
      <trkpt lat="43.81975" lon="5.56692">
        <ele>874.55</ele>
        <time>2015-04-05T10:33:28Z</time>
      </trkpt>
      <trkpt lat="43.81977" lon="5.56718">
        <ele>873.71</ele>
        <time>2015-04-05T10:33:37Z</time>
      </trkpt>
      <trkpt lat="43.81973" lon="5.56744">
        <ele>873.24</ele>
        <time>2015-04-05T10:33:42Z</time>
      </trkpt>
      <trkpt lat="43.8196" lon="5.56768">
        <ele>872.71</ele>
        <time>2015-04-05T10:33:46Z</time>
      </trkpt>
      <trkpt lat="43.81946" lon="5.56792">
        <ele>873.81</ele>
        <time>2015-04-05T10:33:50Z</time>
      </trkpt>
      <trkpt lat="43.81933" lon="5.56816">
        <ele>876.1</ele>
        <time>2015-04-05T10:33:54Z</time>
      </trkpt>
      <trkpt lat="43.81924" lon="5.56839">
        <ele>877.04</ele>
        <time>2015-04-05T10:33:58Z</time>
      </trkpt>
      <trkpt lat="43.81915" lon="5.56864">
        <ele>876.89</ele>
        <time>2015-04-05T10:34:02Z</time>
      </trkpt>
      <trkpt lat="43.81907" lon="5.56889">
        <ele>875.88</ele>
        <time>2015-04-05T10:34:06Z</time>
      </trkpt>
      <trkpt lat="43.81899" lon="5.56914">
        <ele>876.97</ele>
        <time>2015-04-05T10:34:10Z</time>
      </trkpt>
      <trkpt lat="43.81895" lon="5.56944">
        <ele>880.96</ele>
        <time>2015-04-05T10:34:15Z</time>
      </trkpt>
      <trkpt lat="43.81896" lon="5.56972">
        <ele>881.82</ele>
        <time>2015-04-05T10:34:21Z</time>
      </trkpt>
      <trkpt lat="43.81903" lon="5.56997">
        <ele>882.21</ele>
        <time>2015-04-05T10:34:26Z</time>
      </trkpt>
      <trkpt lat="43.81915" lon="5.57017">
        <ele>882.2</ele>
        <time>2015-04-05T10:34:31Z</time>
      </trkpt>
      <trkpt lat="43.81931" lon="5.57037">
        <ele>881.9</ele>
        <time>2015-04-05T10:34:36Z</time>
      </trkpt>
      <trkpt lat="43.81944" lon="5.57059">
        <ele>881.51</ele>
        <time>2015-04-05T10:34:42Z</time>
      </trkpt>
      <trkpt lat="43.81958" lon="5.5708">
        <ele>879.12</ele>
        <time>2015-04-05T10:34:47Z</time>
      </trkpt>
      <trkpt lat="43.81976" lon="5.57093">
        <ele>877.76</ele>
        <time>2015-04-05T10:35:47Z</time>
      </trkpt>
      <trkpt lat="43.81989" lon="5.57114">
        <ele>875.71</ele>
        <time>2015-04-05T10:35:51Z</time>
      </trkpt>
      <trkpt lat="43.82007" lon="5.57133">
        <ele>870.39</ele>
        <time>2015-04-05T10:35:56Z</time>
      </trkpt>
      <trkpt lat="43.82026" lon="5.57141">
        <ele>866.9</ele>
        <time>2015-04-05T10:36:00Z</time>
      </trkpt>
      <trkpt lat="43.82045" lon="5.57144">
        <ele>863.71</ele>
        <time>2015-04-05T10:36:04Z</time>
      </trkpt>
      <trkpt lat="43.82067" lon="5.57146">
        <ele>859.99</ele>
        <time>2015-04-05T10:36:09Z</time>
      </trkpt>
      <trkpt lat="43.82087" lon="5.57154">
        <ele>858.11</ele>
        <time>2015-04-05T10:36:14Z</time>
      </trkpt>
      <trkpt lat="43.82108" lon="5.57163">
        <ele>854.67</ele>
        <time>2015-04-05T10:36:18Z</time>
      </trkpt>
      <trkpt lat="43.82127" lon="5.57171">
        <ele>851.08</ele>
        <time>2015-04-05T10:36:22Z</time>
      </trkpt>
      <trkpt lat="43.82145" lon="5.57179">
        <ele>847.5</ele>
        <time>2015-04-05T10:36:26Z</time>
      </trkpt>
      <trkpt lat="43.82164" lon="5.57186">
        <ele>843.58</ele>
        <time>2015-04-05T10:36:30Z</time>
      </trkpt>
      <trkpt lat="43.8218" lon="5.572">
        <ele>842.23</ele>
        <time>2015-04-05T10:36:38Z</time>
      </trkpt>
      <trkpt lat="43.822" lon="5.57204">
        <ele>845.57</ele>
        <time>2015-04-05T10:37:05Z</time>
      </trkpt>
      <trkpt lat="43.82221" lon="5.57209">
        <ele>846.7</ele>
        <time>2015-04-05T10:37:12Z</time>
      </trkpt>
      <trkpt lat="43.82238" lon="5.57219">
        <ele>846.94</ele>
        <time>2015-04-05T10:37:19Z</time>
      </trkpt>
      <trkpt lat="43.82256" lon="5.57228">
        <ele>846.22</ele>
        <time>2015-04-05T10:37:26Z</time>
      </trkpt>
      <trkpt lat="43.8227" lon="5.57245">
        <ele>845.27</ele>
        <time>2015-04-05T10:37:35Z</time>
      </trkpt>
      <trkpt lat="43.82258" lon="5.57265">
        <ele>843.62</ele>
        <time>2015-04-05T10:38:25Z</time>
      </trkpt>
      <trkpt lat="43.82251" lon="5.57288">
        <ele>842.99</ele>
        <time>2015-04-05T10:38:30Z</time>
      </trkpt>
      <trkpt lat="43.8224" lon="5.57308">
        <ele>841.67</ele>
        <time>2015-04-05T10:38:36Z</time>
      </trkpt>
      <trkpt lat="43.82227" lon="5.57331">
        <ele>840.84</ele>
        <time>2015-04-05T10:38:42Z</time>
      </trkpt>
      <trkpt lat="43.82212" lon="5.5735">
        <ele>840.18</ele>
        <time>2015-04-05T10:38:48Z</time>
      </trkpt>
      <trkpt lat="43.82196" lon="5.57365">
        <ele>838</ele>
        <time>2015-04-05T10:38:57Z</time>
      </trkpt>
      <trkpt lat="43.82181" lon="5.57381">
        <ele>835.26</ele>
        <time>2015-04-05T10:39:05Z</time>
      </trkpt>
      <trkpt lat="43.82165" lon="5.57394">
        <ele>830.52</ele>
        <time>2015-04-05T10:39:19Z</time>
      </trkpt>
      <trkpt lat="43.8216" lon="5.5742">
        <ele>822.88</ele>
        <time>2015-04-05T10:39:40Z</time>
      </trkpt>
      <trkpt lat="43.82169" lon="5.57443">
        <ele>817.48</ele>
        <time>2015-04-05T10:39:48Z</time>
      </trkpt>
      <trkpt lat="43.8218" lon="5.57466">
        <ele>811.87</ele>
        <time>2015-04-05T10:39:56Z</time>
      </trkpt>
      <trkpt lat="43.82191" lon="5.57487">
        <ele>806.35</ele>
        <time>2015-04-05T10:40:03Z</time>
      </trkpt>
      <trkpt lat="43.82201" lon="5.57514">
        <ele>802.38</ele>
        <time>2015-04-05T10:40:09Z</time>
      </trkpt>
      <trkpt lat="43.82202" lon="5.57539">
        <ele>799.03</ele>
        <time>2015-04-05T10:40:16Z</time>
      </trkpt>
      <trkpt lat="43.82206" lon="5.57564">
        <ele>797.8</ele>
        <time>2015-04-05T10:40:21Z</time>
      </trkpt>
      <trkpt lat="43.82209" lon="5.57591">
        <ele>797.26</ele>
        <time>2015-04-05T10:40:24Z</time>
      </trkpt>
      <trkpt lat="43.82214" lon="5.5762">
        <ele>796.54</ele>
        <time>2015-04-05T10:40:27Z</time>
      </trkpt>
      <trkpt lat="43.82219" lon="5.57646">
        <ele>795.92</ele>
        <time>2015-04-05T10:40:30Z</time>
      </trkpt>
      <trkpt lat="43.82222" lon="5.57671">
        <ele>794.6</ele>
        <time>2015-04-05T10:40:35Z</time>
      </trkpt>
      <trkpt lat="43.82232" lon="5.57693">
        <ele>793.51</ele>
        <time>2015-04-05T10:40:40Z</time>
      </trkpt>
      <trkpt lat="43.82231" lon="5.57718">
        <ele>791.3</ele>
        <time>2015-04-05T10:40:47Z</time>
      </trkpt>
      <trkpt lat="43.82233" lon="5.57745">
        <ele>787.48</ele>
        <time>2015-04-05T10:40:58Z</time>
      </trkpt>
      <trkpt lat="43.82237" lon="5.57769">
        <ele>785.43</ele>
        <time>2015-04-05T10:41:11Z</time>
      </trkpt>
      <trkpt lat="43.82233" lon="5.57794">
        <ele>785.3</ele>
        <time>2015-04-05T10:42:36Z</time>
      </trkpt>
      <trkpt lat="43.82236" lon="5.57821">
        <ele>783.59</ele>
        <time>2015-04-05T10:42:46Z</time>
      </trkpt>
      <trkpt lat="43.82231" lon="5.57846">
        <ele>780.61</ele>
        <time>2015-04-05T10:42:57Z</time>
      </trkpt>
      <trkpt lat="43.82229" lon="5.57873">
        <ele>776.44</ele>
        <time>2015-04-05T10:43:06Z</time>
      </trkpt>
      <trkpt lat="43.82227" lon="5.57898">
        <ele>772.45</ele>
        <time>2015-04-05T10:43:18Z</time>
      </trkpt>
      <trkpt lat="43.8223" lon="5.57923">
        <ele>771.71</ele>
        <time>2015-04-05T10:43:31Z</time>
      </trkpt>
      <trkpt lat="43.82228" lon="5.5795">
        <ele>770.66</ele>
        <time>2015-04-05T10:44:01Z</time>
      </trkpt>
      <trkpt lat="43.82231" lon="5.57975">
        <ele>769.13</ele>
        <time>2015-04-05T10:44:09Z</time>
      </trkpt>
      <trkpt lat="43.82233" lon="5.58002">
        <ele>766.17</ele>
        <time>2015-04-05T10:44:19Z</time>
      </trkpt>
      <trkpt lat="43.82238" lon="5.58031">
        <ele>763.31</ele>
        <time>2015-04-05T10:44:28Z</time>
      </trkpt>
      <trkpt lat="43.82243" lon="5.58057">
        <ele>761.31</ele>
        <time>2015-04-05T10:44:34Z</time>
      </trkpt>
      <trkpt lat="43.82247" lon="5.58083">
        <ele>758.86</ele>
        <time>2015-04-05T10:44:40Z</time>
      </trkpt>
      <trkpt lat="43.82253" lon="5.58109">
        <ele>756.58</ele>
        <time>2015-04-05T10:44:45Z</time>
      </trkpt>
      <trkpt lat="43.8226" lon="5.58135">
        <ele>754.4</ele>
        <time>2015-04-05T10:44:51Z</time>
      </trkpt>
      <trkpt lat="43.82268" lon="5.58159">
        <ele>751.52</ele>
        <time>2015-04-05T10:44:58Z</time>
      </trkpt>
      <trkpt lat="43.82269" lon="5.58184">
        <ele>747.03</ele>
        <time>2015-04-05T10:45:06Z</time>
      </trkpt>
      <trkpt lat="43.82276" lon="5.5821">
        <ele>740.14</ele>
        <time>2015-04-05T10:45:17Z</time>
      </trkpt>
      <trkpt lat="43.82285" lon="5.58235">
        <ele>736.22</ele>
        <time>2015-04-05T10:45:23Z</time>
      </trkpt>
      <trkpt lat="43.82297" lon="5.58259">
        <ele>732.57</ele>
        <time>2015-04-05T10:45:28Z</time>
      </trkpt>
      <trkpt lat="43.82308" lon="5.5828">
        <ele>727.59</ele>
        <time>2015-04-05T10:46:36Z</time>
      </trkpt>
      <trkpt lat="43.82316" lon="5.58303">
        <ele>725.42</ele>
        <time>2015-04-05T10:47:07Z</time>
      </trkpt>
      <trkpt lat="43.82331" lon="5.58323">
        <ele>724.07</ele>
        <time>2015-04-05T10:47:13Z</time>
      </trkpt>
      <trkpt lat="43.82341" lon="5.58347">
        <ele>721.14</ele>
        <time>2015-04-05T10:47:21Z</time>
      </trkpt>
      <trkpt lat="43.82351" lon="5.58369">
        <ele>717.26</ele>
        <time>2015-04-05T10:47:29Z</time>
      </trkpt>
      <trkpt lat="43.82361" lon="5.58392">
        <ele>713.89</ele>
        <time>2015-04-05T10:47:35Z</time>
      </trkpt>
      <trkpt lat="43.82366" lon="5.58417">
        <ele>709.74</ele>
        <time>2015-04-05T10:47:43Z</time>
      </trkpt>
      <trkpt lat="43.82373" lon="5.58441">
        <ele>705.14</ele>
        <time>2015-04-05T10:47:51Z</time>
      </trkpt>
      <trkpt lat="43.82382" lon="5.58464">
        <ele>698.97</ele>
        <time>2015-04-05T10:48:00Z</time>
      </trkpt>
      <trkpt lat="43.82382" lon="5.58493">
        <ele>691.85</ele>
        <time>2015-04-05T10:48:35Z</time>
      </trkpt>
      <trkpt lat="43.82381" lon="5.58518">
        <ele>691.75</ele>
        <time>2015-04-05T10:48:41Z</time>
      </trkpt>
      <trkpt lat="43.82379" lon="5.58544">
        <ele>689.86</ele>
        <time>2015-04-05T10:48:55Z</time>
      </trkpt>
      <trkpt lat="43.82373" lon="5.58568">
        <ele>688.3</ele>
        <time>2015-04-05T10:51:11Z</time>
      </trkpt>
      <trkpt lat="43.82355" lon="5.58577">
        <ele>687.03</ele>
        <time>2015-04-05T10:51:19Z</time>
      </trkpt>
      <trkpt lat="43.82336" lon="5.58576">
        <ele>685.43</ele>
        <time>2015-04-05T10:51:51Z</time>
      </trkpt>
      <trkpt lat="43.82316" lon="5.58574">
        <ele>683.95</ele>
        <time>2015-04-05T10:52:06Z</time>
      </trkpt>
      <trkpt lat="43.82299" lon="5.58568">
        <ele>681.67</ele>
        <time>2015-04-05T10:52:25Z</time>
      </trkpt>
      <trkpt lat="43.82281" lon="5.5856">
        <ele>675.68</ele>
        <time>2015-04-05T10:52:59Z</time>
      </trkpt>
      <trkpt lat="43.82262" lon="5.58558">
        <ele>672.56</ele>
        <time>2015-04-05T10:53:44Z</time>
      </trkpt>
      <trkpt lat="43.82244" lon="5.58554">
        <ele>672.24</ele>
        <time>2015-04-05T10:54:05Z</time>
      </trkpt>
      <trkpt lat="43.82225" lon="5.5855">
        <ele>672.24</ele>
        <time>2015-04-05T10:54:22Z</time>
      </trkpt>
      <trkpt lat="43.82206" lon="5.58546">
        <ele>670.2</ele>
        <time>2015-04-05T10:54:33Z</time>
      </trkpt>
      <trkpt lat="43.82187" lon="5.58554">
        <ele>667.97</ele>
        <time>2015-04-05T10:54:43Z</time>
      </trkpt>
      <trkpt lat="43.8217" lon="5.58561">
        <ele>665.51</ele>
        <time>2015-04-05T10:54:50Z</time>
      </trkpt>
      <trkpt lat="43.82154" lon="5.58574">
        <ele>662.38</ele>
        <time>2015-04-05T10:54:59Z</time>
      </trkpt>
      <trkpt lat="43.82139" lon="5.58592">
        <ele>660.71</ele>
        <time>2015-04-05T10:55:21Z</time>
      </trkpt>
      <trkpt lat="43.82123" lon="5.58606">
        <ele>658.2</ele>
        <time>2015-04-05T10:55:57Z</time>
      </trkpt>
      <trkpt lat="43.82108" lon="5.58622">
        <ele>656.9</ele>
        <time>2015-04-05T10:56:05Z</time>
      </trkpt>
      <trkpt lat="43.82097" lon="5.58644">
        <ele>653.13</ele>
        <time>2015-04-05T10:56:45Z</time>
      </trkpt>
      <trkpt lat="43.82084" lon="5.58662">
        <ele>651.84</ele>
        <time>2015-04-05T10:56:56Z</time>
      </trkpt>
      <trkpt lat="43.82071" lon="5.58679">
        <ele>650.86</ele>
        <time>2015-04-05T10:57:29Z</time>
      </trkpt>
      <trkpt lat="43.82053" lon="5.58691">
        <ele>648.2</ele>
        <time>2015-04-05T10:57:55Z</time>
      </trkpt>
      <trkpt lat="43.8204" lon="5.5871">
        <ele>646.31</ele>
        <time>2015-04-05T10:58:07Z</time>
      </trkpt>
      <trkpt lat="43.82025" lon="5.58729">
        <ele>644.52</ele>
        <time>2015-04-05T10:58:15Z</time>
      </trkpt>
      <trkpt lat="43.82013" lon="5.58748">
        <ele>642.78</ele>
        <time>2015-04-05T10:58:23Z</time>
      </trkpt>
      <trkpt lat="43.82009" lon="5.58774">
        <ele>641.43</ele>
        <time>2015-04-05T10:58:31Z</time>
      </trkpt>
      <trkpt lat="43.82005" lon="5.58799">
        <ele>640.76</ele>
        <time>2015-04-05T10:58:37Z</time>
      </trkpt>
      <trkpt lat="43.82001" lon="5.58827">
        <ele>640.33</ele>
        <time>2015-04-05T10:58:42Z</time>
      </trkpt>
      <trkpt lat="43.82002" lon="5.58856">
        <ele>639.24</ele>
        <time>2015-04-05T10:58:47Z</time>
      </trkpt>
      <trkpt lat="43.81993" lon="5.58881">
        <ele>637.92</ele>
        <time>2015-04-05T10:58:52Z</time>
      </trkpt>
      <trkpt lat="43.81986" lon="5.58908">
        <ele>629.74</ele>
        <time>2015-04-05T10:59:46Z</time>
      </trkpt>
      <trkpt lat="43.81984" lon="5.58934">
        <ele>626.74</ele>
        <time>2015-04-05T10:59:53Z</time>
      </trkpt>
      <trkpt lat="43.81976" lon="5.58957">
        <ele>623.81</ele>
        <time>2015-04-05T10:59:59Z</time>
      </trkpt>
      <trkpt lat="43.81971" lon="5.58982">
        <ele>622.11</ele>
        <time>2015-04-05T11:00:03Z</time>
      </trkpt>
      <trkpt lat="43.81962" lon="5.59005">
        <ele>620.95</ele>
        <time>2015-04-05T11:00:06Z</time>
      </trkpt>
      <trkpt lat="43.81953" lon="5.59027">
        <ele>616.99</ele>
        <time>2015-04-05T11:00:09Z</time>
      </trkpt>
      <trkpt lat="43.81943" lon="5.5905">
        <ele>615.05</ele>
        <time>2015-04-05T11:00:12Z</time>
      </trkpt>
      <trkpt lat="43.81929" lon="5.59076">
        <ele>613.17</ele>
        <time>2015-04-05T11:00:16Z</time>
      </trkpt>
      <trkpt lat="43.81916" lon="5.59096">
        <ele>612.96</ele>
        <time>2015-04-05T11:00:19Z</time>
      </trkpt>
      <trkpt lat="43.81905" lon="5.59121">
        <ele>611.53</ele>
        <time>2015-04-05T11:00:23Z</time>
      </trkpt>
      <trkpt lat="43.81912" lon="5.5915">
        <ele>610.15</ele>
        <time>2015-04-05T11:00:29Z</time>
      </trkpt>
      <trkpt lat="43.81923" lon="5.59171">
        <ele>608.11</ele>
        <time>2015-04-05T11:00:35Z</time>
      </trkpt>
      <trkpt lat="43.81939" lon="5.59184">
        <ele>606.46</ele>
        <time>2015-04-05T11:02:03Z</time>
      </trkpt>
      <trkpt lat="43.81958" lon="5.59181">
        <ele>606.7</ele>
        <time>2015-04-05T11:02:14Z</time>
      </trkpt>
      <trkpt lat="43.81977" lon="5.5918">
        <ele>606.3</ele>
        <time>2015-04-05T11:02:21Z</time>
      </trkpt>
      <trkpt lat="43.81998" lon="5.59183">
        <ele>605.84</ele>
        <time>2015-04-05T11:02:26Z</time>
      </trkpt>
      <trkpt lat="43.8202" lon="5.59183">
        <ele>604.78</ele>
        <time>2015-04-05T11:02:32Z</time>
      </trkpt>
      <trkpt lat="43.8204" lon="5.59183">
        <ele>604.14</ele>
        <time>2015-04-05T11:02:37Z</time>
      </trkpt>
      <trkpt lat="43.82059" lon="5.59178">
        <ele>603.71</ele>
        <time>2015-04-05T11:02:44Z</time>
      </trkpt>
      <trkpt lat="43.82078" lon="5.59182">
        <ele>603.47</ele>
        <time>2015-04-05T11:02:51Z</time>
      </trkpt>
      <trkpt lat="43.821" lon="5.59189">
        <ele>603.78</ele>
        <time>2015-04-05T11:02:57Z</time>
      </trkpt>
      <trkpt lat="43.82117" lon="5.59198">
        <ele>604.62</ele>
        <time>2015-04-05T11:03:01Z</time>
      </trkpt>
      <trkpt lat="43.82135" lon="5.59205">
        <ele>604.18</ele>
        <time>2015-04-05T11:03:04Z</time>
      </trkpt>
      <trkpt lat="43.82153" lon="5.59212">
        <ele>605.07</ele>
        <time>2015-04-05T11:03:08Z</time>
      </trkpt>
      <trkpt lat="43.82174" lon="5.59223">
        <ele>605.5</ele>
        <time>2015-04-05T11:03:13Z</time>
      </trkpt>
      <trkpt lat="43.82194" lon="5.59236">
        <ele>610.82</ele>
        <time>2015-04-05T11:03:17Z</time>
      </trkpt>
      <trkpt lat="43.82212" lon="5.59246">
        <ele>612.94</ele>
        <time>2015-04-05T11:03:21Z</time>
      </trkpt>
      <trkpt lat="43.82231" lon="5.59253">
        <ele>613.86</ele>
        <time>2015-04-05T11:03:26Z</time>
      </trkpt>
      <trkpt lat="43.8225" lon="5.59265">
        <ele>616.06</ele>
        <time>2015-04-05T11:03:32Z</time>
      </trkpt>
      <trkpt lat="43.82264" lon="5.59282">
        <ele>622.74</ele>
        <time>2015-04-05T11:03:36Z</time>
      </trkpt>
      <trkpt lat="43.82281" lon="5.59294">
        <ele>624.86</ele>
        <time>2015-04-05T11:03:42Z</time>
      </trkpt>
      <trkpt lat="43.82299" lon="5.59297">
        <ele>625.39</ele>
        <time>2015-04-05T11:03:49Z</time>
      </trkpt>
      <trkpt lat="43.82317" lon="5.59305">
        <ele>626.13</ele>
        <time>2015-04-05T11:03:56Z</time>
      </trkpt>
      <trkpt lat="43.82334" lon="5.59314">
        <ele>627.05</ele>
        <time>2015-04-05T11:04:02Z</time>
      </trkpt>
      <trkpt lat="43.82351" lon="5.59326">
        <ele>627.9</ele>
        <time>2015-04-05T11:04:09Z</time>
      </trkpt>
      <trkpt lat="43.8237" lon="5.59334">
        <ele>628.53</ele>
        <time>2015-04-05T11:04:16Z</time>
      </trkpt>
      <trkpt lat="43.82387" lon="5.59346">
        <ele>634.16</ele>
        <time>2015-04-05T11:04:41Z</time>
      </trkpt>
      <trkpt lat="43.82405" lon="5.59348">
        <ele>666.08</ele>
        <time>2015-04-05T11:22:05Z</time>
      </trkpt>
      <trkpt lat="43.82388" lon="5.5934">
        <ele>664.71</ele>
        <time>2015-04-05T11:23:42Z</time>
      </trkpt>
      <trkpt lat="43.82393" lon="5.59315">
        <ele>657.85</ele>
        <time>2015-04-05T11:58:11Z</time>
      </trkpt>
      <trkpt lat="43.8238" lon="5.59294">
        <ele>660.23</ele>
        <time>2015-04-05T11:58:15Z</time>
      </trkpt>
      <trkpt lat="43.82366" lon="5.59278">
        <ele>661.84</ele>
        <time>2015-04-05T11:58:18Z</time>
      </trkpt>
      <trkpt lat="43.82351" lon="5.5926">
        <ele>663.17</ele>
        <time>2015-04-05T11:58:21Z</time>
      </trkpt>
      <trkpt lat="43.82337" lon="5.59244">
        <ele>664.06</ele>
        <time>2015-04-05T11:58:24Z</time>
      </trkpt>
      <trkpt lat="43.8232" lon="5.59228">
        <ele>663.49</ele>
        <time>2015-04-05T11:58:28Z</time>
      </trkpt>
      <trkpt lat="43.82302" lon="5.59209">
        <ele>663.58</ele>
        <time>2015-04-05T11:58:32Z</time>
      </trkpt>
      <trkpt lat="43.82286" lon="5.5919">
        <ele>663.34</ele>
        <time>2015-04-05T11:58:35Z</time>
      </trkpt>
      <trkpt lat="43.82269" lon="5.59168">
        <ele>662</ele>
        <time>2015-04-05T11:58:38Z</time>
      </trkpt>
      <trkpt lat="43.82253" lon="5.59147">
        <ele>662.95</ele>
        <time>2015-04-05T11:58:41Z</time>
      </trkpt>
      <trkpt lat="43.82236" lon="5.59126">
        <ele>663.9</ele>
        <time>2015-04-05T11:58:44Z</time>
      </trkpt>
      <trkpt lat="43.8222" lon="5.59105">
        <ele>664.7</ele>
        <time>2015-04-05T11:58:47Z</time>
      </trkpt>
      <trkpt lat="43.82205" lon="5.59085">
        <ele>667</ele>
        <time>2015-04-05T11:58:50Z</time>
      </trkpt>
      <trkpt lat="43.82193" lon="5.59062">
        <ele>670.55</ele>
        <time>2015-04-05T11:58:53Z</time>
      </trkpt>
      <trkpt lat="43.82185" lon="5.59034">
        <ele>671.42</ele>
        <time>2015-04-05T11:58:56Z</time>
      </trkpt>
      <trkpt lat="43.82176" lon="5.59008">
        <ele>672</ele>
        <time>2015-04-05T11:58:59Z</time>
      </trkpt>
      <trkpt lat="43.82164" lon="5.58984">
        <ele>674.41</ele>
        <time>2015-04-05T11:59:02Z</time>
      </trkpt>
      <trkpt lat="43.82152" lon="5.58958">
        <ele>676.95</ele>
        <time>2015-04-05T11:59:05Z</time>
      </trkpt>
      <trkpt lat="43.82145" lon="5.58927">
        <ele>678.17</ele>
        <time>2015-04-05T11:59:08Z</time>
      </trkpt>
      <trkpt lat="43.82139" lon="5.58895">
        <ele>678.71</ele>
        <time>2015-04-05T11:59:11Z</time>
      </trkpt>
      <trkpt lat="43.82138" lon="5.58864">
        <ele>678.3</ele>
        <time>2015-04-05T11:59:14Z</time>
      </trkpt>
      <trkpt lat="43.82139" lon="5.58834">
        <ele>676.67</ele>
        <time>2015-04-05T11:59:17Z</time>
      </trkpt>
      <trkpt lat="43.82143" lon="5.58802">
        <ele>675.26</ele>
        <time>2015-04-05T11:59:20Z</time>
      </trkpt>
      <trkpt lat="43.82147" lon="5.58772">
        <ele>675.04</ele>
        <time>2015-04-05T11:59:23Z</time>
      </trkpt>
      <trkpt lat="43.82153" lon="5.58742">
        <ele>674.9</ele>
        <time>2015-04-05T11:59:26Z</time>
      </trkpt>
      <trkpt lat="43.82159" lon="5.58715">
        <ele>676.03</ele>
        <time>2015-04-05T11:59:29Z</time>
      </trkpt>
      <trkpt lat="43.82168" lon="5.5869">
        <ele>678.3</ele>
        <time>2015-04-05T11:59:32Z</time>
      </trkpt>
      <trkpt lat="43.82179" lon="5.58665">
        <ele>680.05</ele>
        <time>2015-04-05T11:59:35Z</time>
      </trkpt>
      <trkpt lat="43.82192" lon="5.58641">
        <ele>680.91</ele>
        <time>2015-04-05T11:59:38Z</time>
      </trkpt>
      <trkpt lat="43.8221" lon="5.58623">
        <ele>680.79</ele>
        <time>2015-04-05T11:59:41Z</time>
      </trkpt>
      <trkpt lat="43.82229" lon="5.58615">
        <ele>682.28</ele>
        <time>2015-04-05T11:59:44Z</time>
      </trkpt>
      <trkpt lat="43.82253" lon="5.58616">
        <ele>683.83</ele>
        <time>2015-04-05T11:59:48Z</time>
      </trkpt>
      <trkpt lat="43.82272" lon="5.58621">
        <ele>684.54</ele>
        <time>2015-04-05T11:59:51Z</time>
      </trkpt>
      <trkpt lat="43.82294" lon="5.58626">
        <ele>684.51</ele>
        <time>2015-04-05T11:59:54Z</time>
      </trkpt>
      <trkpt lat="43.82314" lon="5.58628">
        <ele>683.65</ele>
        <time>2015-04-05T11:59:57Z</time>
      </trkpt>
      <trkpt lat="43.82335" lon="5.5863">
        <ele>683.06</ele>
        <time>2015-04-05T12:00:00Z</time>
      </trkpt>
      <trkpt lat="43.82358" lon="5.58626">
        <ele>684.34</ele>
        <time>2015-04-05T12:00:03Z</time>
      </trkpt>
      <trkpt lat="43.82381" lon="5.58619">
        <ele>684.94</ele>
        <time>2015-04-05T12:00:06Z</time>
      </trkpt>
      <trkpt lat="43.82401" lon="5.58611">
        <ele>685.93</ele>
        <time>2015-04-05T12:00:09Z</time>
      </trkpt>
      <trkpt lat="43.82421" lon="5.58603">
        <ele>685.72</ele>
        <time>2015-04-05T12:00:12Z</time>
      </trkpt>
      <trkpt lat="43.82445" lon="5.58593">
        <ele>684.58</ele>
        <time>2015-04-05T12:00:15Z</time>
      </trkpt>
      <trkpt lat="43.82466" lon="5.58583">
        <ele>684.94</ele>
        <time>2015-04-05T12:00:18Z</time>
      </trkpt>
      <trkpt lat="43.82482" lon="5.58567">
        <ele>686.39</ele>
        <time>2015-04-05T12:00:21Z</time>
      </trkpt>
      <trkpt lat="43.82497" lon="5.58544">
        <ele>688.88</ele>
        <time>2015-04-05T12:00:24Z</time>
      </trkpt>
      <trkpt lat="43.82513" lon="5.58521">
        <ele>692.79</ele>
        <time>2015-04-05T12:00:27Z</time>
      </trkpt>
      <trkpt lat="43.82528" lon="5.58498">
        <ele>696.78</ele>
        <time>2015-04-05T12:00:30Z</time>
      </trkpt>
      <trkpt lat="43.82543" lon="5.58476">
        <ele>700.4</ele>
        <time>2015-04-05T12:00:33Z</time>
      </trkpt>
      <trkpt lat="43.82559" lon="5.58451">
        <ele>703.08</ele>
        <time>2015-04-05T12:00:36Z</time>
      </trkpt>
      <trkpt lat="43.82574" lon="5.58426">
        <ele>704.26</ele>
        <time>2015-04-05T12:00:39Z</time>
      </trkpt>
      <trkpt lat="43.8259" lon="5.58403">
        <ele>704.33</ele>
        <time>2015-04-05T12:00:42Z</time>
      </trkpt>
      <trkpt lat="43.82602" lon="5.5838">
        <ele>704.11</ele>
        <time>2015-04-05T12:00:45Z</time>
      </trkpt>
      <trkpt lat="43.82614" lon="5.58355">
        <ele>706.4</ele>
        <time>2015-04-05T12:00:48Z</time>
      </trkpt>
      <trkpt lat="43.82626" lon="5.58329">
        <ele>709.09</ele>
        <time>2015-04-05T12:00:51Z</time>
      </trkpt>
      <trkpt lat="43.82638" lon="5.58306">
        <ele>711.63</ele>
        <time>2015-04-05T12:00:54Z</time>
      </trkpt>
      <trkpt lat="43.82651" lon="5.58283">
        <ele>712.26</ele>
        <time>2015-04-05T12:00:57Z</time>
      </trkpt>
      <trkpt lat="43.82666" lon="5.58259">
        <ele>712.49</ele>
        <time>2015-04-05T12:01:00Z</time>
      </trkpt>
      <trkpt lat="43.82681" lon="5.58237">
        <ele>711.83</ele>
        <time>2015-04-05T12:01:03Z</time>
      </trkpt>
      <trkpt lat="43.82696" lon="5.58216">
        <ele>711.88</ele>
        <time>2015-04-05T12:01:06Z</time>
      </trkpt>
      <trkpt lat="43.82713" lon="5.58194">
        <ele>713.27</ele>
        <time>2015-04-05T12:01:09Z</time>
      </trkpt>
      <trkpt lat="43.82729" lon="5.58175">
        <ele>716.99</ele>
        <time>2015-04-05T12:01:12Z</time>
      </trkpt>
      <trkpt lat="43.82745" lon="5.58153">
        <ele>719.98</ele>
        <time>2015-04-05T12:01:15Z</time>
      </trkpt>
      <trkpt lat="43.82762" lon="5.58132">
        <ele>721.01</ele>
        <time>2015-04-05T12:01:18Z</time>
      </trkpt>
      <trkpt lat="43.82779" lon="5.58108">
        <ele>722.07</ele>
        <time>2015-04-05T12:01:21Z</time>
      </trkpt>
      <trkpt lat="43.82794" lon="5.58088">
        <ele>723.99</ele>
        <time>2015-04-05T12:01:24Z</time>
      </trkpt>
      <trkpt lat="43.82809" lon="5.58064">
        <ele>725.34</ele>
        <time>2015-04-05T12:01:27Z</time>
      </trkpt>
      <trkpt lat="43.82822" lon="5.58037">
        <ele>725.64</ele>
        <time>2015-04-05T12:01:30Z</time>
      </trkpt>
      <trkpt lat="43.82833" lon="5.58013">
        <ele>726.27</ele>
        <time>2015-04-05T12:01:33Z</time>
      </trkpt>
      <trkpt lat="43.82845" lon="5.57989">
        <ele>727.91</ele>
        <time>2015-04-05T12:01:36Z</time>
      </trkpt>
      <trkpt lat="43.82856" lon="5.57965">
        <ele>731.03</ele>
        <time>2015-04-05T12:01:39Z</time>
      </trkpt>
      <trkpt lat="43.82868" lon="5.5794">
        <ele>733.4</ele>
        <time>2015-04-05T12:01:42Z</time>
      </trkpt>
      <trkpt lat="43.8288" lon="5.57916">
        <ele>734.42</ele>
        <time>2015-04-05T12:01:45Z</time>
      </trkpt>
      <trkpt lat="43.82891" lon="5.57893">
        <ele>735.37</ele>
        <time>2015-04-05T12:01:48Z</time>
      </trkpt>
      <trkpt lat="43.82903" lon="5.5787">
        <ele>736.9</ele>
        <time>2015-04-05T12:01:51Z</time>
      </trkpt>
      <trkpt lat="43.82918" lon="5.57854">
        <ele>738.59</ele>
        <time>2015-04-05T12:01:54Z</time>
      </trkpt>
      <trkpt lat="43.82937" lon="5.57839">
        <ele>740.04</ele>
        <time>2015-04-05T12:01:58Z</time>
      </trkpt>
      <trkpt lat="43.82948" lon="5.57815">
        <ele>740.54</ele>
        <time>2015-04-05T12:02:02Z</time>
      </trkpt>
      <trkpt lat="43.82949" lon="5.57784">
        <ele>741.4</ele>
        <time>2015-04-05T12:02:06Z</time>
      </trkpt>
      <trkpt lat="43.82945" lon="5.57754">
        <ele>741.27</ele>
        <time>2015-04-05T12:02:10Z</time>
      </trkpt>
      <trkpt lat="43.8294" lon="5.57726">
        <ele>739.85</ele>
        <time>2015-04-05T12:02:14Z</time>
      </trkpt>
      <trkpt lat="43.82939" lon="5.57694">
        <ele>740.1</ele>
        <time>2015-04-05T12:02:18Z</time>
      </trkpt>
      <trkpt lat="43.82943" lon="5.57669">
        <ele>740.8</ele>
        <time>2015-04-05T12:02:21Z</time>
      </trkpt>
      <trkpt lat="43.8295" lon="5.57641">
        <ele>741.26</ele>
        <time>2015-04-05T12:02:24Z</time>
      </trkpt>
      <trkpt lat="43.82958" lon="5.57616">
        <ele>741.82</ele>
        <time>2015-04-05T12:02:27Z</time>
      </trkpt>
      <trkpt lat="43.82968" lon="5.57592">
        <ele>741.77</ele>
        <time>2015-04-05T12:02:30Z</time>
      </trkpt>
      <trkpt lat="43.82977" lon="5.57568">
        <ele>743.04</ele>
        <time>2015-04-05T12:02:34Z</time>
      </trkpt>
      <trkpt lat="43.82982" lon="5.5754">
        <ele>743.86</ele>
        <time>2015-04-05T12:02:38Z</time>
      </trkpt>
      <trkpt lat="43.8299" lon="5.57511">
        <ele>745.77</ele>
        <time>2015-04-05T12:02:42Z</time>
      </trkpt>
      <trkpt lat="43.82998" lon="5.57482">
        <ele>746.15</ele>
        <time>2015-04-05T12:02:46Z</time>
      </trkpt>
      <trkpt lat="43.83005" lon="5.5745">
        <ele>744</ele>
        <time>2015-04-05T12:02:50Z</time>
      </trkpt>
      <trkpt lat="43.83004" lon="5.57423">
        <ele>743.28</ele>
        <time>2015-04-05T12:02:54Z</time>
      </trkpt>
      <trkpt lat="43.82993" lon="5.57399">
        <ele>743.38</ele>
        <time>2015-04-05T12:03:00Z</time>
      </trkpt>
      <trkpt lat="43.82982" lon="5.57378">
        <ele>744.88</ele>
        <time>2015-04-05T12:03:05Z</time>
      </trkpt>
      <trkpt lat="43.82973" lon="5.57355">
        <ele>747.02</ele>
        <time>2015-04-05T12:03:09Z</time>
      </trkpt>
      <trkpt lat="43.82967" lon="5.57326">
        <ele>748.13</ele>
        <time>2015-04-05T12:03:13Z</time>
      </trkpt>
      <trkpt lat="43.82964" lon="5.57298">
        <ele>747.64</ele>
        <time>2015-04-05T12:03:17Z</time>
      </trkpt>
      <trkpt lat="43.8296" lon="5.57266">
        <ele>748.25</ele>
        <time>2015-04-05T12:03:21Z</time>
      </trkpt>
      <trkpt lat="43.82953" lon="5.57241">
        <ele>749.82</ele>
        <time>2015-04-05T12:03:27Z</time>
      </trkpt>
      <trkpt lat="43.82941" lon="5.57219">
        <ele>752.36</ele>
        <time>2015-04-05T12:03:33Z</time>
      </trkpt>
      <trkpt lat="43.82929" lon="5.57194">
        <ele>754.31</ele>
        <time>2015-04-05T12:03:37Z</time>
      </trkpt>
      <trkpt lat="43.82919" lon="5.57172">
        <ele>758.68</ele>
        <time>2015-04-05T12:03:41Z</time>
      </trkpt>
      <trkpt lat="43.82909" lon="5.57146">
        <ele>760.46</ele>
        <time>2015-04-05T12:03:45Z</time>
      </trkpt>
      <trkpt lat="43.82901" lon="5.57122">
        <ele>760.86</ele>
        <time>2015-04-05T12:03:50Z</time>
      </trkpt>
      <trkpt lat="43.82891" lon="5.57095">
        <ele>763.74</ele>
        <time>2015-04-05T12:03:55Z</time>
      </trkpt>
      <trkpt lat="43.82881" lon="5.57067">
        <ele>769.88</ele>
        <time>2015-04-05T12:03:58Z</time>
      </trkpt>
      <trkpt lat="43.8287" lon="5.5704">
        <ele>776.43</ele>
        <time>2015-04-05T12:04:02Z</time>
      </trkpt>
      <trkpt lat="43.82859" lon="5.5702">
        <ele>778.93</ele>
        <time>2015-04-05T12:04:06Z</time>
      </trkpt>
      <trkpt lat="43.82845" lon="5.57002">
        <ele>779.57</ele>
        <time>2015-04-05T12:04:10Z</time>
      </trkpt>
      <trkpt lat="43.82832" lon="5.56984">
        <ele>778.2</ele>
        <time>2015-04-05T12:04:14Z</time>
      </trkpt>
      <trkpt lat="43.82819" lon="5.56964">
        <ele>779.37</ele>
        <time>2015-04-05T12:04:18Z</time>
      </trkpt>
      <trkpt lat="43.82806" lon="5.56944">
        <ele>785.27</ele>
        <time>2015-04-05T12:04:23Z</time>
      </trkpt>
      <trkpt lat="43.82793" lon="5.56918">
        <ele>787.17</ele>
        <time>2015-04-05T12:04:28Z</time>
      </trkpt>
      <trkpt lat="43.82783" lon="5.56893">
        <ele>787.37</ele>
        <time>2015-04-05T12:04:32Z</time>
      </trkpt>
      <trkpt lat="43.82774" lon="5.56864">
        <ele>787.96</ele>
        <time>2015-04-05T12:04:37Z</time>
      </trkpt>
      <trkpt lat="43.82763" lon="5.56844">
        <ele>789.2</ele>
        <time>2015-04-05T12:04:41Z</time>
      </trkpt>
      <trkpt lat="43.82748" lon="5.56823">
        <ele>788.85</ele>
        <time>2015-04-05T12:04:45Z</time>
      </trkpt>
      <trkpt lat="43.82732" lon="5.56804">
        <ele>790.19</ele>
        <time>2015-04-05T12:04:49Z</time>
      </trkpt>
      <trkpt lat="43.82712" lon="5.56793">
        <ele>795.26</ele>
        <time>2015-04-05T12:04:54Z</time>
      </trkpt>
      <trkpt lat="43.82694" lon="5.56789">
        <ele>801.52</ele>
        <time>2015-04-05T12:04:58Z</time>
      </trkpt>
      <trkpt lat="43.82674" lon="5.56788">
        <ele>804.24</ele>
        <time>2015-04-05T12:05:02Z</time>
      </trkpt>
      <trkpt lat="43.82653" lon="5.56792">
        <ele>804.83</ele>
        <time>2015-04-05T12:05:06Z</time>
      </trkpt>
      <trkpt lat="43.82635" lon="5.56798">
        <ele>804.17</ele>
        <time>2015-04-05T12:05:10Z</time>
      </trkpt>
      <trkpt lat="43.82617" lon="5.56799">
        <ele>803.08</ele>
        <time>2015-04-05T12:05:14Z</time>
      </trkpt>
      <trkpt lat="43.82595" lon="5.56795">
        <ele>802.58</ele>
        <time>2015-04-05T12:05:19Z</time>
      </trkpt>
      <trkpt lat="43.82575" lon="5.56791">
        <ele>800.65</ele>
        <time>2015-04-05T12:05:24Z</time>
      </trkpt>
      <trkpt lat="43.82553" lon="5.5679">
        <ele>800.43</ele>
        <time>2015-04-05T12:05:29Z</time>
      </trkpt>
      <trkpt lat="43.82533" lon="5.56789">
        <ele>801.15</ele>
        <time>2015-04-05T12:05:34Z</time>
      </trkpt>
      <trkpt lat="43.82513" lon="5.56787">
        <ele>802.61</ele>
        <time>2015-04-05T12:05:39Z</time>
      </trkpt>
      <trkpt lat="43.82495" lon="5.56789">
        <ele>803.9</ele>
        <time>2015-04-05T12:05:43Z</time>
      </trkpt>
      <trkpt lat="43.82473" lon="5.56793">
        <ele>818.56</ele>
        <time>2015-04-05T12:05:48Z</time>
      </trkpt>
      <trkpt lat="43.82453" lon="5.56796">
        <ele>827.91</ele>
        <time>2015-04-05T12:05:52Z</time>
      </trkpt>
      <trkpt lat="43.82428" lon="5.56795">
        <ele>832.65</ele>
        <time>2015-04-05T12:05:56Z</time>
      </trkpt>
      <trkpt lat="43.8241" lon="5.5679">
        <ele>832.83</ele>
        <time>2015-04-05T12:05:59Z</time>
      </trkpt>
      <trkpt lat="43.82392" lon="5.56785">
        <ele>830.47</ele>
        <time>2015-04-05T12:06:02Z</time>
      </trkpt>
      <trkpt lat="43.82371" lon="5.56779">
        <ele>827.41</ele>
        <time>2015-04-05T12:06:06Z</time>
      </trkpt>
      <trkpt lat="43.82351" lon="5.56784">
        <ele>827.11</ele>
        <time>2015-04-05T12:06:11Z</time>
      </trkpt>
      <trkpt lat="43.82335" lon="5.568">
        <ele>827.21</ele>
        <time>2015-04-05T12:06:16Z</time>
      </trkpt>
      <trkpt lat="43.82323" lon="5.5682">
        <ele>827.42</ele>
        <time>2015-04-05T12:06:21Z</time>
      </trkpt>
      <trkpt lat="43.82309" lon="5.56838">
        <ele>827.59</ele>
        <time>2015-04-05T12:06:26Z</time>
      </trkpt>
      <trkpt lat="43.82297" lon="5.56857">
        <ele>827.87</ele>
        <time>2015-04-05T12:06:30Z</time>
      </trkpt>
      <trkpt lat="43.82283" lon="5.56878">
        <ele>828.23</ele>
        <time>2015-04-05T12:06:35Z</time>
      </trkpt>
      <trkpt lat="43.82267" lon="5.569">
        <ele>828.46</ele>
        <time>2015-04-05T12:06:40Z</time>
      </trkpt>
      <trkpt lat="43.82249" lon="5.56914">
        <ele>828.49</ele>
        <time>2015-04-05T12:06:44Z</time>
      </trkpt>
      <trkpt lat="43.82231" lon="5.56913">
        <ele>829.15</ele>
        <time>2015-04-05T12:06:48Z</time>
      </trkpt>
      <trkpt lat="43.82216" lon="5.56893">
        <ele>836.3</ele>
        <time>2015-04-05T12:06:54Z</time>
      </trkpt>
      <trkpt lat="43.82203" lon="5.56869">
        <ele>842.38</ele>
        <time>2015-04-05T12:06:59Z</time>
      </trkpt>
      <trkpt lat="43.82192" lon="5.56845">
        <ele>847.27</ele>
        <time>2015-04-05T12:07:03Z</time>
      </trkpt>
      <trkpt lat="43.82182" lon="5.56818">
        <ele>853.39</ele>
        <time>2015-04-05T12:07:08Z</time>
      </trkpt>
      <trkpt lat="43.82171" lon="5.56793">
        <ele>855.48</ele>
        <time>2015-04-05T12:07:13Z</time>
      </trkpt>
      <trkpt lat="43.82156" lon="5.56772">
        <ele>856.27</ele>
        <time>2015-04-05T12:07:18Z</time>
      </trkpt>
      <trkpt lat="43.82139" lon="5.56754">
        <ele>857.97</ele>
        <time>2015-04-05T12:07:23Z</time>
      </trkpt>
      <trkpt lat="43.82122" lon="5.56744">
        <ele>858.14</ele>
        <time>2015-04-05T12:07:27Z</time>
      </trkpt>
      <trkpt lat="43.82102" lon="5.56733">
        <ele>861.55</ele>
        <time>2015-04-05T12:07:32Z</time>
      </trkpt>
      <trkpt lat="43.82083" lon="5.56722">
        <ele>862.12</ele>
        <time>2015-04-05T12:07:36Z</time>
      </trkpt>
      <trkpt lat="43.82061" lon="5.56711">
        <ele>865.45</ele>
        <time>2015-04-05T12:07:40Z</time>
      </trkpt>
      <trkpt lat="43.82039" lon="5.56702">
        <ele>868.73</ele>
        <time>2015-04-05T12:07:44Z</time>
      </trkpt>
      <trkpt lat="43.82016" lon="5.56696">
        <ele>870.98</ele>
        <time>2015-04-05T12:07:48Z</time>
      </trkpt>
      <trkpt lat="43.81997" lon="5.56692">
        <ele>873.63</ele>
        <time>2015-04-05T12:07:51Z</time>
      </trkpt>
      <trkpt lat="43.81978" lon="5.56682">
        <ele>876.84</ele>
        <time>2015-04-05T12:07:55Z</time>
      </trkpt>
      <trkpt lat="43.81966" lon="5.56662">
        <ele>878.73</ele>
        <time>2015-04-05T12:09:01Z</time>
      </trkpt>
      <trkpt lat="43.81965" lon="5.56636">
        <ele>878.6</ele>
        <time>2015-04-05T12:09:06Z</time>
      </trkpt>
      <trkpt lat="43.81965" lon="5.56605">
        <ele>878.87</ele>
        <time>2015-04-05T12:09:10Z</time>
      </trkpt>
      <trkpt lat="43.81965" lon="5.56573">
        <ele>879.09</ele>
        <time>2015-04-05T12:09:14Z</time>
      </trkpt>
      <trkpt lat="43.81966" lon="5.56542">
        <ele>879.08</ele>
        <time>2015-04-05T12:09:18Z</time>
      </trkpt>
      <trkpt lat="43.81965" lon="5.56517">
        <ele>878.73</ele>
        <time>2015-04-05T12:09:21Z</time>
      </trkpt>
      <trkpt lat="43.81964" lon="5.56488">
        <ele>877.49</ele>
        <time>2015-04-05T12:09:24Z</time>
      </trkpt>
      <trkpt lat="43.81966" lon="5.56463">
        <ele>877.63</ele>
        <time>2015-04-05T12:09:27Z</time>
      </trkpt>
      <trkpt lat="43.81973" lon="5.56439">
        <ele>878.02</ele>
        <time>2015-04-05T12:09:30Z</time>
      </trkpt>
      <trkpt lat="43.81982" lon="5.56409">
        <ele>878.93</ele>
        <time>2015-04-05T12:09:34Z</time>
      </trkpt>
      <trkpt lat="43.81993" lon="5.56379">
        <ele>877.91</ele>
        <time>2015-04-05T12:09:38Z</time>
      </trkpt>
      <trkpt lat="43.82002" lon="5.56356">
        <ele>876.12</ele>
        <time>2015-04-05T12:09:41Z</time>
      </trkpt>
      <trkpt lat="43.82015" lon="5.56333">
        <ele>875.38</ele>
        <time>2015-04-05T12:09:45Z</time>
      </trkpt>
      <trkpt lat="43.82027" lon="5.56307">
        <ele>873.06</ele>
        <time>2015-04-05T12:09:49Z</time>
      </trkpt>
      <trkpt lat="43.8204" lon="5.56283">
        <ele>872.2</ele>
        <time>2015-04-05T12:09:53Z</time>
      </trkpt>
      <trkpt lat="43.82053" lon="5.5626">
        <ele>873.42</ele>
        <time>2015-04-05T12:09:57Z</time>
      </trkpt>
      <trkpt lat="43.82065" lon="5.56233">
        <ele>876.41</ele>
        <time>2015-04-05T12:10:01Z</time>
      </trkpt>
      <trkpt lat="43.82077" lon="5.56205">
        <ele>879.34</ele>
        <time>2015-04-05T12:10:05Z</time>
      </trkpt>
      <trkpt lat="43.82089" lon="5.56179">
        <ele>881.63</ele>
        <time>2015-04-05T12:10:09Z</time>
      </trkpt>
      <trkpt lat="43.82102" lon="5.56153">
        <ele>882.62</ele>
        <time>2015-04-05T12:10:13Z</time>
      </trkpt>
      <trkpt lat="43.82113" lon="5.56128">
        <ele>884.74</ele>
        <time>2015-04-05T12:10:17Z</time>
      </trkpt>
      <trkpt lat="43.82122" lon="5.56105">
        <ele>886.85</ele>
        <time>2015-04-05T12:10:20Z</time>
      </trkpt>
      <trkpt lat="43.82132" lon="5.5608">
        <ele>888.9</ele>
        <time>2015-04-05T12:10:23Z</time>
      </trkpt>
      <trkpt lat="43.82142" lon="5.56055">
        <ele>890.22</ele>
        <time>2015-04-05T12:10:26Z</time>
      </trkpt>
      <trkpt lat="43.82151" lon="5.56029">
        <ele>892.21</ele>
        <time>2015-04-05T12:10:29Z</time>
      </trkpt>
      <trkpt lat="43.82159" lon="5.56003">
        <ele>893.76</ele>
        <time>2015-04-05T12:10:32Z</time>
      </trkpt>
      <trkpt lat="43.82159" lon="5.55974">
        <ele>893.84</ele>
        <time>2015-04-05T12:10:35Z</time>
      </trkpt>
      <trkpt lat="43.82151" lon="5.55948">
        <ele>892.41</ele>
        <time>2015-04-05T12:10:38Z</time>
      </trkpt>
      <trkpt lat="43.82141" lon="5.55926">
        <ele>891.19</ele>
        <time>2015-04-05T12:10:41Z</time>
      </trkpt>
      <trkpt lat="43.82127" lon="5.55905">
        <ele>890.37</ele>
        <time>2015-04-05T12:10:44Z</time>
      </trkpt>
      <trkpt lat="43.82111" lon="5.55885">
        <ele>890.17</ele>
        <time>2015-04-05T12:10:48Z</time>
      </trkpt>
      <trkpt lat="43.82095" lon="5.55865">
        <ele>890.51</ele>
        <time>2015-04-05T12:10:52Z</time>
      </trkpt>
      <trkpt lat="43.8208" lon="5.5585">
        <ele>893.9</ele>
        <time>2015-04-05T12:10:56Z</time>
      </trkpt>
      <trkpt lat="43.82065" lon="5.55836">
        <ele>898.47</ele>
        <time>2015-04-05T12:11:00Z</time>
      </trkpt>
      <trkpt lat="43.82048" lon="5.55823">
        <ele>900.14</ele>
        <time>2015-04-05T12:11:04Z</time>
      </trkpt>
      <trkpt lat="43.82032" lon="5.55812">
        <ele>899.63</ele>
        <time>2015-04-05T12:11:08Z</time>
      </trkpt>
      <trkpt lat="43.82014" lon="5.55802">
        <ele>899.32</ele>
        <time>2015-04-05T12:11:12Z</time>
      </trkpt>
      <trkpt lat="43.81997" lon="5.55796">
        <ele>899.36</ele>
        <time>2015-04-05T12:11:17Z</time>
      </trkpt>
      <trkpt lat="43.81978" lon="5.55793">
        <ele>899.59</ele>
        <time>2015-04-05T12:11:22Z</time>
      </trkpt>
      <trkpt lat="43.8196" lon="5.55787">
        <ele>899.83</ele>
        <time>2015-04-05T12:11:27Z</time>
      </trkpt>
      <trkpt lat="43.81938" lon="5.55782">
        <ele>900.41</ele>
        <time>2015-04-05T12:11:32Z</time>
      </trkpt>
      <trkpt lat="43.81953" lon="5.55799">
        <ele>905.05</ele>
        <time>2015-04-05T12:12:30Z</time>
      </trkpt>
      <trkpt lat="43.81973" lon="5.55802">
        <ele>904.54</ele>
        <time>2015-04-05T12:12:35Z</time>
      </trkpt>
      <trkpt lat="43.81991" lon="5.55803">
        <ele>901.04</ele>
        <time>2015-04-05T12:12:39Z</time>
      </trkpt>
      <trkpt lat="43.82012" lon="5.55806">
        <ele>896.93</ele>
        <time>2015-04-05T12:12:44Z</time>
      </trkpt>
      <trkpt lat="43.8203" lon="5.5582">
        <ele>892.8</ele>
        <time>2015-04-05T12:12:49Z</time>
      </trkpt>
      <trkpt lat="43.82047" lon="5.55836">
        <ele>890.65</ele>
        <time>2015-04-05T12:12:53Z</time>
      </trkpt>
      <trkpt lat="43.82063" lon="5.5585">
        <ele>889.96</ele>
        <time>2015-04-05T12:12:57Z</time>
      </trkpt>
      <trkpt lat="43.8208" lon="5.55865">
        <ele>889.51</ele>
        <time>2015-04-05T12:13:02Z</time>
      </trkpt>
      <trkpt lat="43.82096" lon="5.5588">
        <ele>888.02</ele>
        <time>2015-04-05T12:13:07Z</time>
      </trkpt>
      <trkpt lat="43.82111" lon="5.559">
        <ele>886.29</ele>
        <time>2015-04-05T12:13:13Z</time>
      </trkpt>
      <trkpt lat="43.82129" lon="5.55909">
        <ele>885.86</ele>
        <time>2015-04-05T12:13:21Z</time>
      </trkpt>
      <trkpt lat="43.82123" lon="5.55879">
        <ele>885.77</ele>
        <time>2015-04-05T12:13:30Z</time>
      </trkpt>
      <trkpt lat="43.82112" lon="5.55855">
        <ele>885.83</ele>
        <time>2015-04-05T12:13:35Z</time>
      </trkpt>
      <trkpt lat="43.82103" lon="5.5583">
        <ele>887.82</ele>
        <time>2015-04-05T12:13:40Z</time>
      </trkpt>
      <trkpt lat="43.82107" lon="5.55802">
        <ele>891.21</ele>
        <time>2015-04-05T12:13:45Z</time>
      </trkpt>
      <trkpt lat="43.82115" lon="5.55777">
        <ele>891.99</ele>
        <time>2015-04-05T12:13:50Z</time>
      </trkpt>
      <trkpt lat="43.82112" lon="5.5575">
        <ele>892.71</ele>
        <time>2015-04-05T12:13:57Z</time>
      </trkpt>
      <trkpt lat="43.82109" lon="5.55724">
        <ele>893.19</ele>
        <time>2015-04-05T12:14:03Z</time>
      </trkpt>
      <trkpt lat="43.82105" lon="5.55695">
        <ele>895.35</ele>
        <time>2015-04-05T12:14:08Z</time>
      </trkpt>
      <trkpt lat="43.82099" lon="5.55668">
        <ele>898.11</ele>
        <time>2015-04-05T12:14:12Z</time>
      </trkpt>
      <trkpt lat="43.82092" lon="5.55643">
        <ele>898.25</ele>
        <time>2015-04-05T12:14:16Z</time>
      </trkpt>
      <trkpt lat="43.82085" lon="5.55618">
        <ele>897.34</ele>
        <time>2015-04-05T12:14:20Z</time>
      </trkpt>
      <trkpt lat="43.82079" lon="5.55591">
        <ele>896.14</ele>
        <time>2015-04-05T12:14:25Z</time>
      </trkpt>
      <trkpt lat="43.82076" lon="5.55563">
        <ele>893.13</ele>
        <time>2015-04-05T12:14:30Z</time>
      </trkpt>
      <trkpt lat="43.82077" lon="5.55534">
        <ele>891.05</ele>
        <time>2015-04-05T12:14:35Z</time>
      </trkpt>
      <trkpt lat="43.8208" lon="5.55503">
        <ele>889.53</ele>
        <time>2015-04-05T12:14:39Z</time>
      </trkpt>
      <trkpt lat="43.82081" lon="5.55473">
        <ele>887.05</ele>
        <time>2015-04-05T12:14:43Z</time>
      </trkpt>
      <trkpt lat="43.82082" lon="5.55443">
        <ele>885.51</ele>
        <time>2015-04-05T12:14:47Z</time>
      </trkpt>
      <trkpt lat="43.82081" lon="5.55411">
        <ele>882.4</ele>
        <time>2015-04-05T12:14:51Z</time>
      </trkpt>
      <trkpt lat="43.82081" lon="5.55381">
        <ele>881.89</ele>
        <time>2015-04-05T12:14:55Z</time>
      </trkpt>
      <trkpt lat="43.82083" lon="5.55355">
        <ele>881.25</ele>
        <time>2015-04-05T12:15:03Z</time>
      </trkpt>
      <trkpt lat="43.821" lon="5.55347">
        <ele>887.8</ele>
        <time>2015-04-05T12:16:41Z</time>
      </trkpt>
      <trkpt lat="43.82119" lon="5.55357">
        <ele>887.89</ele>
        <time>2015-04-05T12:16:48Z</time>
      </trkpt>
      <trkpt lat="43.82135" lon="5.55373">
        <ele>887.86</ele>
        <time>2015-04-05T12:16:55Z</time>
      </trkpt>
      <trkpt lat="43.82151" lon="5.5539">
        <ele>887.27</ele>
        <time>2015-04-05T12:17:01Z</time>
      </trkpt>
      <trkpt lat="43.82169" lon="5.55387">
        <ele>886.68</ele>
        <time>2015-04-05T12:17:08Z</time>
      </trkpt>
      <trkpt lat="43.82174" lon="5.55362">
        <ele>886.87</ele>
        <time>2015-04-05T12:17:19Z</time>
      </trkpt>
      <trkpt lat="43.82174" lon="5.55336">
        <ele>892.25</ele>
        <time>2015-04-05T12:17:31Z</time>
      </trkpt>
      <trkpt lat="43.82167" lon="5.55313">
        <ele>896.67</ele>
        <time>2015-04-05T12:17:40Z</time>
      </trkpt>
      <trkpt lat="43.82157" lon="5.55291">
        <ele>899.5</ele>
        <time>2015-04-05T12:17:47Z</time>
      </trkpt>
      <trkpt lat="43.82143" lon="5.55272">
        <ele>902.75</ele>
        <time>2015-04-05T12:17:56Z</time>
      </trkpt>
      <trkpt lat="43.82128" lon="5.55253">
        <ele>904.63</ele>
        <time>2015-04-05T12:18:02Z</time>
      </trkpt>
      <trkpt lat="43.82118" lon="5.55229">
        <ele>906.84</ele>
        <time>2015-04-05T12:18:09Z</time>
      </trkpt>
      <trkpt lat="43.8211" lon="5.55203">
        <ele>909.78</ele>
        <time>2015-04-05T12:18:17Z</time>
      </trkpt>
      <trkpt lat="43.82098" lon="5.55183">
        <ele>911.91</ele>
        <time>2015-04-05T12:18:24Z</time>
      </trkpt>
      <trkpt lat="43.8209" lon="5.5516">
        <ele>913.95</ele>
        <time>2015-04-05T12:18:31Z</time>
      </trkpt>
      <trkpt lat="43.82081" lon="5.55135">
        <ele>916.6</ele>
        <time>2015-04-05T12:18:40Z</time>
      </trkpt>
      <trkpt lat="43.82071" lon="5.55114">
        <ele>918.17</ele>
        <time>2015-04-05T12:18:47Z</time>
      </trkpt>
      <trkpt lat="43.82056" lon="5.55095">
        <ele>919.06</ele>
        <time>2015-04-05T12:18:55Z</time>
      </trkpt>
      <trkpt lat="43.82041" lon="5.55076">
        <ele>919.35</ele>
        <time>2015-04-05T12:19:03Z</time>
      </trkpt>
      <trkpt lat="43.82028" lon="5.55058">
        <ele>919.43</ele>
        <time>2015-04-05T12:19:11Z</time>
      </trkpt>
      <trkpt lat="43.82014" lon="5.55042">
        <ele>919.86</ele>
        <time>2015-04-05T12:19:20Z</time>
      </trkpt>
      <trkpt lat="43.81999" lon="5.55023">
        <ele>921</ele>
        <time>2015-04-05T12:19:29Z</time>
      </trkpt>
      <trkpt lat="43.81984" lon="5.55007">
        <ele>921.57</ele>
        <time>2015-04-05T12:19:35Z</time>
      </trkpt>
      <trkpt lat="43.81969" lon="5.5499">
        <ele>923.39</ele>
        <time>2015-04-05T12:19:43Z</time>
      </trkpt>
      <trkpt lat="43.81955" lon="5.54971">
        <ele>925.39</ele>
        <time>2015-04-05T12:19:51Z</time>
      </trkpt>
      <trkpt lat="43.8194" lon="5.54956">
        <ele>927.58</ele>
        <time>2015-04-05T12:19:59Z</time>
      </trkpt>
      <trkpt lat="43.81934" lon="5.54933">
        <ele>929.01</ele>
        <time>2015-04-05T12:20:15Z</time>
      </trkpt>
      <trkpt lat="43.81918" lon="5.54914">
        <ele>962.14</ele>
        <time>2015-04-05T12:24:41Z</time>
      </trkpt>
      <trkpt lat="43.81903" lon="5.54896">
        <ele>962.99</ele>
        <time>2015-04-05T12:24:48Z</time>
      </trkpt>
      <trkpt lat="43.81893" lon="5.54869">
        <ele>963.38</ele>
        <time>2015-04-05T12:24:55Z</time>
      </trkpt>
      <trkpt lat="43.81883" lon="5.54843">
        <ele>963.33</ele>
        <time>2015-04-05T12:24:59Z</time>
      </trkpt>
      <trkpt lat="43.81874" lon="5.54819">
        <ele>963.66</ele>
        <time>2015-04-05T12:25:03Z</time>
      </trkpt>
      <trkpt lat="43.81866" lon="5.54791">
        <ele>964.42</ele>
        <time>2015-04-05T12:25:08Z</time>
      </trkpt>
      <trkpt lat="43.81862" lon="5.54766">
        <ele>965.07</ele>
        <time>2015-04-05T12:25:12Z</time>
      </trkpt>
      <trkpt lat="43.81859" lon="5.54741">
        <ele>968.67</ele>
        <time>2015-04-05T12:25:16Z</time>
      </trkpt>
      <trkpt lat="43.81856" lon="5.54714">
        <ele>970.65</ele>
        <time>2015-04-05T12:25:20Z</time>
      </trkpt>
      <trkpt lat="43.81852" lon="5.54684">
        <ele>971.5</ele>
        <time>2015-04-05T12:25:25Z</time>
      </trkpt>
      <trkpt lat="43.81847" lon="5.54657">
        <ele>973.44</ele>
        <time>2015-04-05T12:25:30Z</time>
      </trkpt>
      <trkpt lat="43.81843" lon="5.5463">
        <ele>974.33</ele>
        <time>2015-04-05T12:25:35Z</time>
      </trkpt>
      <trkpt lat="43.81835" lon="5.54602">
        <ele>975.15</ele>
        <time>2015-04-05T12:25:40Z</time>
      </trkpt>
      <trkpt lat="43.81823" lon="5.54578">
        <ele>976.06</ele>
        <time>2015-04-05T12:25:45Z</time>
      </trkpt>
      <trkpt lat="43.8181" lon="5.54557">
        <ele>976.64</ele>
        <time>2015-04-05T12:25:50Z</time>
      </trkpt>
      <trkpt lat="43.81794" lon="5.54535">
        <ele>977.48</ele>
        <time>2015-04-05T12:25:55Z</time>
      </trkpt>
      <trkpt lat="43.81779" lon="5.54516">
        <ele>977.49</ele>
        <time>2015-04-05T12:26:00Z</time>
      </trkpt>
      <trkpt lat="43.81767" lon="5.54496">
        <ele>977.92</ele>
        <time>2015-04-05T12:26:05Z</time>
      </trkpt>
      <trkpt lat="43.81775" lon="5.54472">
        <ele>987.41</ele>
        <time>2015-04-05T12:28:37Z</time>
      </trkpt>
      <trkpt lat="43.81792" lon="5.54462">
        <ele>987.74</ele>
        <time>2015-04-05T12:28:42Z</time>
      </trkpt>
      <trkpt lat="43.81813" lon="5.5445">
        <ele>990.07</ele>
        <time>2015-04-05T12:28:46Z</time>
      </trkpt>
      <trkpt lat="43.81831" lon="5.54437">
        <ele>991.05</ele>
        <time>2015-04-05T12:28:51Z</time>
      </trkpt>
      <trkpt lat="43.81841" lon="5.5441">
        <ele>993.8</ele>
        <time>2015-04-05T12:28:56Z</time>
      </trkpt>
      <trkpt lat="43.8184" lon="5.54379">
        <ele>995.03</ele>
        <time>2015-04-05T12:29:00Z</time>
      </trkpt>
      <trkpt lat="43.81835" lon="5.54354">
        <ele>995.2</ele>
        <time>2015-04-05T12:29:03Z</time>
      </trkpt>
      <trkpt lat="43.81831" lon="5.54325">
        <ele>996.28</ele>
        <time>2015-04-05T12:29:07Z</time>
      </trkpt>
      <trkpt lat="43.81837" lon="5.54297">
        <ele>997.39</ele>
        <time>2015-04-05T12:29:11Z</time>
      </trkpt>
      <trkpt lat="43.81854" lon="5.54279">
        <ele>1000.01</ele>
        <time>2015-04-05T12:29:15Z</time>
      </trkpt>
      <trkpt lat="43.81874" lon="5.54264">
        <ele>1000.55</ele>
        <time>2015-04-05T12:29:19Z</time>
      </trkpt>
      <trkpt lat="43.81893" lon="5.54248">
        <ele>1002.06</ele>
        <time>2015-04-05T12:29:23Z</time>
      </trkpt>
      <trkpt lat="43.81911" lon="5.54235">
        <ele>1002.74</ele>
        <time>2015-04-05T12:29:27Z</time>
      </trkpt>
      <trkpt lat="43.8193" lon="5.54223">
        <ele>1003.14</ele>
        <time>2015-04-05T12:29:31Z</time>
      </trkpt>
      <trkpt lat="43.8195" lon="5.54209">
        <ele>1003.07</ele>
        <time>2015-04-05T12:29:35Z</time>
      </trkpt>
      <trkpt lat="43.81968" lon="5.54195">
        <ele>1003.3</ele>
        <time>2015-04-05T12:29:39Z</time>
      </trkpt>
      <trkpt lat="43.81981" lon="5.54178">
        <ele>1003.37</ele>
        <time>2015-04-05T12:29:42Z</time>
      </trkpt>
      <trkpt lat="43.81995" lon="5.54154">
        <ele>1005.84</ele>
        <time>2015-04-05T12:29:46Z</time>
      </trkpt>
      <trkpt lat="43.82008" lon="5.54134">
        <ele>1009.18</ele>
        <time>2015-04-05T12:29:49Z</time>
      </trkpt>
      <trkpt lat="43.82019" lon="5.5411">
        <ele>1013.82</ele>
        <time>2015-04-05T12:29:53Z</time>
      </trkpt>
      <trkpt lat="43.82027" lon="5.54085">
        <ele>1016.74</ele>
        <time>2015-04-05T12:29:57Z</time>
      </trkpt>
      <trkpt lat="43.82032" lon="5.54057">
        <ele>1018.88</ele>
        <time>2015-04-05T12:30:01Z</time>
      </trkpt>
      <trkpt lat="43.82036" lon="5.54029">
        <ele>1018.49</ele>
        <time>2015-04-05T12:30:05Z</time>
      </trkpt>
      <trkpt lat="43.82038" lon="5.54001">
        <ele>1017.22</ele>
        <time>2015-04-05T12:30:09Z</time>
      </trkpt>
      <trkpt lat="43.82036" lon="5.53972">
        <ele>1015.42</ele>
        <time>2015-04-05T12:30:13Z</time>
      </trkpt>
      <trkpt lat="43.82033" lon="5.53942">
        <ele>1013.33</ele>
        <time>2015-04-05T12:30:18Z</time>
      </trkpt>
      <trkpt lat="43.82029" lon="5.53912">
        <ele>1014.25</ele>
        <time>2015-04-05T12:30:23Z</time>
      </trkpt>
      <trkpt lat="43.82035" lon="5.53884">
        <ele>1015.31</ele>
        <time>2015-04-05T12:30:28Z</time>
      </trkpt>
      <trkpt lat="43.82046" lon="5.53857">
        <ele>1019.15</ele>
        <time>2015-04-05T12:30:32Z</time>
      </trkpt>
      <trkpt lat="43.82056" lon="5.53831">
        <ele>1023.59</ele>
        <time>2015-04-05T12:30:36Z</time>
      </trkpt>
      <trkpt lat="43.82065" lon="5.53806">
        <ele>1027.27</ele>
        <time>2015-04-05T12:30:40Z</time>
      </trkpt>
      <trkpt lat="43.82077" lon="5.53781">
        <ele>1029.02</ele>
        <time>2015-04-05T12:30:44Z</time>
      </trkpt>
      <trkpt lat="43.82086" lon="5.53756">
        <ele>1030.85</ele>
        <time>2015-04-05T12:30:47Z</time>
      </trkpt>
      <trkpt lat="43.82089" lon="5.53726">
        <ele>1033.02</ele>
        <time>2015-04-05T12:30:51Z</time>
      </trkpt>
      <trkpt lat="43.82084" lon="5.53698">
        <ele>1032.8</ele>
        <time>2015-04-05T12:30:55Z</time>
      </trkpt>
      <trkpt lat="43.82071" lon="5.53675">
        <ele>1030.69</ele>
        <time>2015-04-05T12:30:59Z</time>
      </trkpt>
      <trkpt lat="43.82053" lon="5.53657">
        <ele>1027.79</ele>
        <time>2015-04-05T12:31:03Z</time>
      </trkpt>
      <trkpt lat="43.82039" lon="5.53634">
        <ele>1024.31</ele>
        <time>2015-04-05T12:31:08Z</time>
      </trkpt>
      <trkpt lat="43.82026" lon="5.53616">
        <ele>1022.64</ele>
        <time>2015-04-05T12:31:12Z</time>
      </trkpt>
      <trkpt lat="43.82012" lon="5.536">
        <ele>1021.64</ele>
        <time>2015-04-05T12:31:16Z</time>
      </trkpt>
      <trkpt lat="43.81997" lon="5.53582">
        <ele>1021.14</ele>
        <time>2015-04-05T12:31:20Z</time>
      </trkpt>
      <trkpt lat="43.81985" lon="5.5356">
        <ele>1018.37</ele>
        <time>2015-04-05T12:31:24Z</time>
      </trkpt>
      <trkpt lat="43.81971" lon="5.53538">
        <ele>1014.46</ele>
        <time>2015-04-05T12:31:28Z</time>
      </trkpt>
      <trkpt lat="43.81956" lon="5.53522">
        <ele>1010.74</ele>
        <time>2015-04-05T12:31:31Z</time>
      </trkpt>
      <trkpt lat="43.81939" lon="5.53506">
        <ele>1009.48</ele>
        <time>2015-04-05T12:31:35Z</time>
      </trkpt>
      <trkpt lat="43.81922" lon="5.53489">
        <ele>1008.59</ele>
        <time>2015-04-05T12:31:39Z</time>
      </trkpt>
      <trkpt lat="43.81904" lon="5.53475">
        <ele>1008.9</ele>
        <time>2015-04-05T12:31:43Z</time>
      </trkpt>
      <trkpt lat="43.81885" lon="5.53462">
        <ele>1014.08</ele>
        <time>2015-04-05T12:31:46Z</time>
      </trkpt>
      <trkpt lat="43.81868" lon="5.53444">
        <ele>1022.77</ele>
        <time>2015-04-05T12:31:48Z</time>
      </trkpt>
      <trkpt lat="43.81848" lon="5.53425">
        <ele>1036.19</ele>
        <time>2015-04-05T12:31:51Z</time>
      </trkpt>
      <trkpt lat="43.8183" lon="5.53409">
        <ele>1047.15</ele>
        <time>2015-04-05T12:31:55Z</time>
      </trkpt>
      <trkpt lat="43.81812" lon="5.53403">
        <ele>1048.92</ele>
        <time>2015-04-05T12:32:00Z</time>
      </trkpt>
      <trkpt lat="43.8183" lon="5.53384">
        <ele>1057.23</ele>
        <time>2015-04-05T12:35:52Z</time>
      </trkpt>
      <trkpt lat="43.81849" lon="5.53373">
        <ele>1057.35</ele>
        <time>2015-04-05T12:35:57Z</time>
      </trkpt>
      <trkpt lat="43.81868" lon="5.53365">
        <ele>1056.96</ele>
        <time>2015-04-05T12:36:02Z</time>
      </trkpt>
      <trkpt lat="43.8189" lon="5.53359">
        <ele>1057.58</ele>
        <time>2015-04-05T12:36:07Z</time>
      </trkpt>
      <trkpt lat="43.81909" lon="5.53353">
        <ele>1056.32</ele>
        <time>2015-04-05T12:36:11Z</time>
      </trkpt>
      <trkpt lat="43.81928" lon="5.53346">
        <ele>1056.08</ele>
        <time>2015-04-05T12:36:15Z</time>
      </trkpt>
      <trkpt lat="43.81947" lon="5.53338">
        <ele>1056.55</ele>
        <time>2015-04-05T12:36:19Z</time>
      </trkpt>
      <trkpt lat="43.81968" lon="5.5333">
        <ele>1055.09</ele>
        <time>2015-04-05T12:36:24Z</time>
      </trkpt>
      <trkpt lat="43.81987" lon="5.53321">
        <ele>1053.73</ele>
        <time>2015-04-05T12:36:28Z</time>
      </trkpt>
      <trkpt lat="43.82008" lon="5.53306">
        <ele>1056.54</ele>
        <time>2015-04-05T12:36:32Z</time>
      </trkpt>
      <trkpt lat="43.82029" lon="5.53293">
        <ele>1058.1</ele>
        <time>2015-04-05T12:36:36Z</time>
      </trkpt>
      <trkpt lat="43.82048" lon="5.53276">
        <ele>1057.88</ele>
        <time>2015-04-05T12:36:40Z</time>
      </trkpt>
      <trkpt lat="43.82065" lon="5.53258">
        <ele>1057.34</ele>
        <time>2015-04-05T12:36:44Z</time>
      </trkpt>
      <trkpt lat="43.82081" lon="5.53237">
        <ele>1057.37</ele>
        <time>2015-04-05T12:36:48Z</time>
      </trkpt>
      <trkpt lat="43.82096" lon="5.53217">
        <ele>1058.47</ele>
        <time>2015-04-05T12:36:52Z</time>
      </trkpt>
      <trkpt lat="43.82103" lon="5.53193">
        <ele>1060.6</ele>
        <time>2015-04-05T12:36:56Z</time>
      </trkpt>
      <trkpt lat="43.82109" lon="5.53165">
        <ele>1061.37</ele>
        <time>2015-04-05T12:37:01Z</time>
      </trkpt>
      <trkpt lat="43.82113" lon="5.53135">
        <ele>1061.1</ele>
        <time>2015-04-05T12:37:05Z</time>
      </trkpt>
      <trkpt lat="43.82116" lon="5.53106">
        <ele>1060.1</ele>
        <time>2015-04-05T12:37:09Z</time>
      </trkpt>
      <trkpt lat="43.8212" lon="5.53073">
        <ele>1060.45</ele>
        <time>2015-04-05T12:37:13Z</time>
      </trkpt>
      <trkpt lat="43.82123" lon="5.53049">
        <ele>1060.79</ele>
        <time>2015-04-05T12:37:16Z</time>
      </trkpt>
      <trkpt lat="43.82124" lon="5.53022">
        <ele>1060.51</ele>
        <time>2015-04-05T12:37:20Z</time>
      </trkpt>
      <trkpt lat="43.82122" lon="5.52994">
        <ele>1057.43</ele>
        <time>2015-04-05T12:37:24Z</time>
      </trkpt>
      <trkpt lat="43.82121" lon="5.52967">
        <ele>1055.07</ele>
        <time>2015-04-05T12:37:28Z</time>
      </trkpt>
      <trkpt lat="43.82115" lon="5.52942">
        <ele>1053.74</ele>
        <time>2015-04-05T12:37:32Z</time>
      </trkpt>
      <trkpt lat="43.82103" lon="5.52917">
        <ele>1050.69</ele>
        <time>2015-04-05T12:37:37Z</time>
      </trkpt>
      <trkpt lat="43.82094" lon="5.52887">
        <ele>1049.04</ele>
        <time>2015-04-05T12:37:42Z</time>
      </trkpt>
      <trkpt lat="43.82089" lon="5.52863">
        <ele>1046.65</ele>
        <time>2015-04-05T12:37:46Z</time>
      </trkpt>
      <trkpt lat="43.82088" lon="5.52838">
        <ele>1046.07</ele>
        <time>2015-04-05T12:37:51Z</time>
      </trkpt>
      <trkpt lat="43.8209" lon="5.52811">
        <ele>1046.36</ele>
        <time>2015-04-05T12:37:57Z</time>
      </trkpt>
      <trkpt lat="43.82096" lon="5.52786">
        <ele>1046.8</ele>
        <time>2015-04-05T12:38:01Z</time>
      </trkpt>
      <trkpt lat="43.82101" lon="5.52758">
        <ele>1050.58</ele>
        <time>2015-04-05T12:38:04Z</time>
      </trkpt>
      <trkpt lat="43.82106" lon="5.52731">
        <ele>1052.31</ele>
        <time>2015-04-05T12:38:08Z</time>
      </trkpt>
      <trkpt lat="43.82112" lon="5.52705">
        <ele>1052.79</ele>
        <time>2015-04-05T12:38:12Z</time>
      </trkpt>
      <trkpt lat="43.82118" lon="5.52681">
        <ele>1053.02</ele>
        <time>2015-04-05T12:38:16Z</time>
      </trkpt>
      <trkpt lat="43.82127" lon="5.52657">
        <ele>1053.12</ele>
        <time>2015-04-05T12:38:21Z</time>
      </trkpt>
      <trkpt lat="43.82133" lon="5.52633">
        <ele>1053.28</ele>
        <time>2015-04-05T12:38:25Z</time>
      </trkpt>
      <trkpt lat="43.82141" lon="5.52605">
        <ele>1054.11</ele>
        <time>2015-04-05T12:38:29Z</time>
      </trkpt>
      <trkpt lat="43.8215" lon="5.52578">
        <ele>1055.03</ele>
        <time>2015-04-05T12:38:33Z</time>
      </trkpt>
      <trkpt lat="43.82159" lon="5.5255">
        <ele>1056.11</ele>
        <time>2015-04-05T12:38:38Z</time>
      </trkpt>
      <trkpt lat="43.82168" lon="5.52526">
        <ele>1057.57</ele>
        <time>2015-04-05T12:38:43Z</time>
      </trkpt>
      <trkpt lat="43.82179" lon="5.52505">
        <ele>1055.43</ele>
        <time>2015-04-05T12:38:47Z</time>
      </trkpt>
      <trkpt lat="43.82188" lon="5.52483">
        <ele>1054.48</ele>
        <time>2015-04-05T12:38:52Z</time>
      </trkpt>
      <trkpt lat="43.82197" lon="5.52457">
        <ele>1052.67</ele>
        <time>2015-04-05T12:38:57Z</time>
      </trkpt>
      <trkpt lat="43.82203" lon="5.52428">
        <ele>1048.88</ele>
        <time>2015-04-05T12:39:01Z</time>
      </trkpt>
      <trkpt lat="43.82206" lon="5.524">
        <ele>1044.97</ele>
        <time>2015-04-05T12:39:05Z</time>
      </trkpt>
      <trkpt lat="43.82204" lon="5.52366">
        <ele>1042.38</ele>
        <time>2015-04-05T12:39:09Z</time>
      </trkpt>
      <trkpt lat="43.82198" lon="5.52342">
        <ele>1043.01</ele>
        <time>2015-04-05T12:39:12Z</time>
      </trkpt>
      <trkpt lat="43.82188" lon="5.52316">
        <ele>1044.46</ele>
        <time>2015-04-05T12:39:16Z</time>
      </trkpt>
      <trkpt lat="43.82175" lon="5.52298">
        <ele>1046.27</ele>
        <time>2015-04-05T12:39:20Z</time>
      </trkpt>
      <trkpt lat="43.82158" lon="5.52285">
        <ele>1046.93</ele>
        <time>2015-04-05T12:39:23Z</time>
      </trkpt>
      <trkpt lat="43.8214" lon="5.52272">
        <ele>1048.03</ele>
        <time>2015-04-05T12:39:26Z</time>
      </trkpt>
      <trkpt lat="43.82124" lon="5.52258">
        <ele>1048.27</ele>
        <time>2015-04-05T12:39:29Z</time>
      </trkpt>
      <trkpt lat="43.8211" lon="5.52236">
        <ele>1047</ele>
        <time>2015-04-05T12:39:33Z</time>
      </trkpt>
      <trkpt lat="43.821" lon="5.52213">
        <ele>1046.78</ele>
        <time>2015-04-05T12:39:37Z</time>
      </trkpt>
      <trkpt lat="43.82089" lon="5.52188">
        <ele>1047.02</ele>
        <time>2015-04-05T12:39:41Z</time>
      </trkpt>
      <trkpt lat="43.8208" lon="5.52162">
        <ele>1047.41</ele>
        <time>2015-04-05T12:39:45Z</time>
      </trkpt>
      <trkpt lat="43.82073" lon="5.52136">
        <ele>1048.11</ele>
        <time>2015-04-05T12:39:48Z</time>
      </trkpt>
      <trkpt lat="43.82064" lon="5.52111">
        <ele>1049</ele>
        <time>2015-04-05T12:39:51Z</time>
      </trkpt>
      <trkpt lat="43.82053" lon="5.52086">
        <ele>1049.96</ele>
        <time>2015-04-05T12:39:54Z</time>
      </trkpt>
      <trkpt lat="43.82039" lon="5.52069">
        <ele>1051.01</ele>
        <time>2015-04-05T12:39:57Z</time>
      </trkpt>
      <trkpt lat="43.8202" lon="5.52059">
        <ele>1051.72</ele>
        <time>2015-04-05T12:40:01Z</time>
      </trkpt>
      <trkpt lat="43.82015" lon="5.52035">
        <ele>1052.17</ele>
        <time>2015-04-05T12:40:06Z</time>
      </trkpt>
      <trkpt lat="43.82031" lon="5.52021">
        <ele>1053.25</ele>
        <time>2015-04-05T12:40:11Z</time>
      </trkpt>
      <trkpt lat="43.82048" lon="5.52008">
        <ele>1054.12</ele>
        <time>2015-04-05T12:40:16Z</time>
      </trkpt>
      <trkpt lat="43.82064" lon="5.51995">
        <ele>1057.12</ele>
        <time>2015-04-05T12:40:20Z</time>
      </trkpt>
      <trkpt lat="43.8208" lon="5.51979">
        <ele>1058.12</ele>
        <time>2015-04-05T12:40:24Z</time>
      </trkpt>
      <trkpt lat="43.82094" lon="5.51961">
        <ele>1058.59</ele>
        <time>2015-04-05T12:40:28Z</time>
      </trkpt>
      <trkpt lat="43.82107" lon="5.51937">
        <ele>1060.54</ele>
        <time>2015-04-05T12:40:32Z</time>
      </trkpt>
      <trkpt lat="43.82119" lon="5.51911">
        <ele>1063.52</ele>
        <time>2015-04-05T12:40:36Z</time>
      </trkpt>
      <trkpt lat="43.82127" lon="5.51888">
        <ele>1064.9</ele>
        <time>2015-04-05T12:40:39Z</time>
      </trkpt>
      <trkpt lat="43.82134" lon="5.51861">
        <ele>1065.51</ele>
        <time>2015-04-05T12:40:42Z</time>
      </trkpt>
      <trkpt lat="43.82137" lon="5.51833">
        <ele>1065.8</ele>
        <time>2015-04-05T12:40:45Z</time>
      </trkpt>
      <trkpt lat="43.82136" lon="5.51803">
        <ele>1065.94</ele>
        <time>2015-04-05T12:40:48Z</time>
      </trkpt>
      <trkpt lat="43.82133" lon="5.51774">
        <ele>1064.02</ele>
        <time>2015-04-05T12:40:51Z</time>
      </trkpt>
      <trkpt lat="43.82123" lon="5.5175">
        <ele>1062.24</ele>
        <time>2015-04-05T12:40:54Z</time>
      </trkpt>
      <trkpt lat="43.82109" lon="5.51728">
        <ele>1062.18</ele>
        <time>2015-04-05T12:40:57Z</time>
      </trkpt>
      <trkpt lat="43.8209" lon="5.51707">
        <ele>1063.57</ele>
        <time>2015-04-05T12:41:00Z</time>
      </trkpt>
      <trkpt lat="43.82073" lon="5.5169">
        <ele>1064.34</ele>
        <time>2015-04-05T12:41:03Z</time>
      </trkpt>
      <trkpt lat="43.82057" lon="5.51676">
        <ele>1064.85</ele>
        <time>2015-04-05T12:41:06Z</time>
      </trkpt>
      <trkpt lat="43.8204" lon="5.51663">
        <ele>1066.47</ele>
        <time>2015-04-05T12:41:09Z</time>
      </trkpt>
      <trkpt lat="43.82028" lon="5.51639">
        <ele>1067.71</ele>
        <time>2015-04-05T12:41:13Z</time>
      </trkpt>
      <trkpt lat="43.82031" lon="5.51608">
        <ele>1070.63</ele>
        <time>2015-04-05T12:41:17Z</time>
      </trkpt>
      <trkpt lat="43.82038" lon="5.51581">
        <ele>1074.76</ele>
        <time>2015-04-05T12:41:21Z</time>
      </trkpt>
      <trkpt lat="43.82047" lon="5.51549">
        <ele>1077.64</ele>
        <time>2015-04-05T12:41:25Z</time>
      </trkpt>
      <trkpt lat="43.82051" lon="5.51522">
        <ele>1078.65</ele>
        <time>2015-04-05T12:41:28Z</time>
      </trkpt>
      <trkpt lat="43.82048" lon="5.51496">
        <ele>1078.58</ele>
        <time>2015-04-05T12:41:31Z</time>
      </trkpt>
      <trkpt lat="43.82038" lon="5.51475">
        <ele>1078</ele>
        <time>2015-04-05T12:41:34Z</time>
      </trkpt>
      <trkpt lat="43.82022" lon="5.51454">
        <ele>1079.41</ele>
        <time>2015-04-05T12:41:38Z</time>
      </trkpt>
      <trkpt lat="43.82006" lon="5.51442">
        <ele>1078.12</ele>
        <time>2015-04-05T12:41:41Z</time>
      </trkpt>
      <trkpt lat="43.81986" lon="5.51431">
        <ele>1076.45</ele>
        <time>2015-04-05T12:41:44Z</time>
      </trkpt>
      <trkpt lat="43.81965" lon="5.51419">
        <ele>1075.91</ele>
        <time>2015-04-05T12:41:47Z</time>
      </trkpt>
      <trkpt lat="43.81945" lon="5.51413">
        <ele>1078.04</ele>
        <time>2015-04-05T12:41:51Z</time>
      </trkpt>
      <trkpt lat="43.81925" lon="5.51414">
        <ele>1080.03</ele>
        <time>2015-04-05T12:41:55Z</time>
      </trkpt>
      <trkpt lat="43.81906" lon="5.5141">
        <ele>1081.27</ele>
        <time>2015-04-05T12:41:59Z</time>
      </trkpt>
      <trkpt lat="43.81901" lon="5.5138">
        <ele>1083.28</ele>
        <time>2015-04-05T12:42:04Z</time>
      </trkpt>
      <trkpt lat="43.81908" lon="5.51353">
        <ele>1087.46</ele>
        <time>2015-04-05T12:42:08Z</time>
      </trkpt>
      <trkpt lat="43.81915" lon="5.51328">
        <ele>1088.54</ele>
        <time>2015-04-05T12:42:11Z</time>
      </trkpt>
      <trkpt lat="43.81919" lon="5.51302">
        <ele>1088.1</ele>
        <time>2015-04-05T12:42:14Z</time>
      </trkpt>
      <trkpt lat="43.81919" lon="5.51276">
        <ele>1088.37</ele>
        <time>2015-04-05T12:42:17Z</time>
      </trkpt>
      <trkpt lat="43.81916" lon="5.5125">
        <ele>1089.07</ele>
        <time>2015-04-05T12:42:20Z</time>
      </trkpt>
      <trkpt lat="43.81912" lon="5.51225">
        <ele>1088.87</ele>
        <time>2015-04-05T12:42:23Z</time>
      </trkpt>
      <trkpt lat="43.81918" lon="5.51201">
        <ele>1087.72</ele>
        <time>2015-04-05T12:42:27Z</time>
      </trkpt>
      <trkpt lat="43.81936" lon="5.51184">
        <ele>1087.07</ele>
        <time>2015-04-05T12:42:32Z</time>
      </trkpt>
      <trkpt lat="43.81956" lon="5.51174">
        <ele>1087.7</ele>
        <time>2015-04-05T12:42:37Z</time>
      </trkpt>
      <trkpt lat="43.81977" lon="5.51164">
        <ele>1087.66</ele>
        <time>2015-04-05T12:42:41Z</time>
      </trkpt>
      <trkpt lat="43.81995" lon="5.51156">
        <ele>1087.3</ele>
        <time>2015-04-05T12:42:44Z</time>
      </trkpt>
      <trkpt lat="43.82016" lon="5.51144">
        <ele>1086.77</ele>
        <time>2015-04-05T12:42:48Z</time>
      </trkpt>
      <trkpt lat="43.82032" lon="5.51134">
        <ele>1085.7</ele>
        <time>2015-04-05T12:42:51Z</time>
      </trkpt>
      <trkpt lat="43.82053" lon="5.5112">
        <ele>1085.1</ele>
        <time>2015-04-05T12:42:55Z</time>
      </trkpt>
      <trkpt lat="43.82072" lon="5.51106">
        <ele>1084.73</ele>
        <time>2015-04-05T12:42:59Z</time>
      </trkpt>
      <trkpt lat="43.8209" lon="5.51091">
        <ele>1084.85</ele>
        <time>2015-04-05T12:43:03Z</time>
      </trkpt>
      <trkpt lat="43.82108" lon="5.51074">
        <ele>1085.37</ele>
        <time>2015-04-05T12:43:07Z</time>
      </trkpt>
      <trkpt lat="43.82124" lon="5.51057">
        <ele>1086.21</ele>
        <time>2015-04-05T12:43:11Z</time>
      </trkpt>
      <trkpt lat="43.82139" lon="5.51037">
        <ele>1087.39</ele>
        <time>2015-04-05T12:43:15Z</time>
      </trkpt>
      <trkpt lat="43.8215" lon="5.51014">
        <ele>1087.79</ele>
        <time>2015-04-05T12:43:19Z</time>
      </trkpt>
      <trkpt lat="43.82155" lon="5.50987">
        <ele>1086.18</ele>
        <time>2015-04-05T12:43:24Z</time>
      </trkpt>
      <trkpt lat="43.82148" lon="5.50958">
        <ele>1085.77</ele>
        <time>2015-04-05T12:43:28Z</time>
      </trkpt>
      <trkpt lat="43.82129" lon="5.50938">
        <ele>1084.49</ele>
        <time>2015-04-05T12:43:32Z</time>
      </trkpt>
      <trkpt lat="43.8211" lon="5.50927">
        <ele>1083.23</ele>
        <time>2015-04-05T12:43:35Z</time>
      </trkpt>
      <trkpt lat="43.82091" lon="5.50918">
        <ele>1082.16</ele>
        <time>2015-04-05T12:43:38Z</time>
      </trkpt>
      <trkpt lat="43.82073" lon="5.50911">
        <ele>1082.71</ele>
        <time>2015-04-05T12:43:41Z</time>
      </trkpt>
      <trkpt lat="43.82052" lon="5.50901">
        <ele>1082.13</ele>
        <time>2015-04-05T12:43:45Z</time>
      </trkpt>
      <trkpt lat="43.8203" lon="5.50887">
        <ele>1081.11</ele>
        <time>2015-04-05T12:43:49Z</time>
      </trkpt>
      <trkpt lat="43.82011" lon="5.50872">
        <ele>1080.82</ele>
        <time>2015-04-05T12:43:53Z</time>
      </trkpt>
      <trkpt lat="43.81993" lon="5.50856">
        <ele>1081.77</ele>
        <time>2015-04-05T12:43:57Z</time>
      </trkpt>
      <trkpt lat="43.81975" lon="5.50842">
        <ele>1081.4</ele>
        <time>2015-04-05T12:44:01Z</time>
      </trkpt>
      <trkpt lat="43.81956" lon="5.50832">
        <ele>1081.01</ele>
        <time>2015-04-05T12:44:05Z</time>
      </trkpt>
      <trkpt lat="43.81938" lon="5.50828">
        <ele>1081.72</ele>
        <time>2015-04-05T12:44:08Z</time>
      </trkpt>
      <trkpt lat="43.81914" lon="5.50824">
        <ele>1082.62</ele>
        <time>2015-04-05T12:44:12Z</time>
      </trkpt>
      <trkpt lat="43.81893" lon="5.50818">
        <ele>1082.89</ele>
        <time>2015-04-05T12:44:16Z</time>
      </trkpt>
      <trkpt lat="43.81878" lon="5.50799">
        <ele>1082.15</ele>
        <time>2015-04-05T12:44:21Z</time>
      </trkpt>
      <trkpt lat="43.81872" lon="5.50775">
        <ele>1080.79</ele>
        <time>2015-04-05T12:44:26Z</time>
      </trkpt>
      <trkpt lat="43.81874" lon="5.5075">
        <ele>1081.95</ele>
        <time>2015-04-05T12:50:45Z</time>
      </trkpt>
      <trkpt lat="43.81874" lon="5.50724">
        <ele>1082.05</ele>
        <time>2015-04-05T12:50:50Z</time>
      </trkpt>
      <trkpt lat="43.8187" lon="5.50694">
        <ele>1082.07</ele>
        <time>2015-04-05T12:50:55Z</time>
      </trkpt>
      <trkpt lat="43.81865" lon="5.50664">
        <ele>1081.65</ele>
        <time>2015-04-05T12:50:59Z</time>
      </trkpt>
      <trkpt lat="43.8186" lon="5.50632">
        <ele>1080.28</ele>
        <time>2015-04-05T12:51:03Z</time>
      </trkpt>
      <trkpt lat="43.81855" lon="5.50607">
        <ele>1078.88</ele>
        <time>2015-04-05T12:51:06Z</time>
      </trkpt>
      <trkpt lat="43.81851" lon="5.50582">
        <ele>1077.11</ele>
        <time>2015-04-05T12:51:09Z</time>
      </trkpt>
      <trkpt lat="43.81851" lon="5.50556">
        <ele>1075.55</ele>
        <time>2015-04-05T12:51:12Z</time>
      </trkpt>
      <trkpt lat="43.8185" lon="5.50524">
        <ele>1074.12</ele>
        <time>2015-04-05T12:51:16Z</time>
      </trkpt>
      <trkpt lat="43.81852" lon="5.50499">
        <ele>1072.91</ele>
        <time>2015-04-05T12:51:19Z</time>
      </trkpt>
      <trkpt lat="43.81858" lon="5.50469">
        <ele>1071.47</ele>
        <time>2015-04-05T12:51:23Z</time>
      </trkpt>
      <trkpt lat="43.81867" lon="5.50445">
        <ele>1070.6</ele>
        <time>2015-04-05T12:51:26Z</time>
      </trkpt>
      <trkpt lat="43.81876" lon="5.5042">
        <ele>1069.8</ele>
        <time>2015-04-05T12:51:29Z</time>
      </trkpt>
      <trkpt lat="43.81884" lon="5.50393">
        <ele>1068.04</ele>
        <time>2015-04-05T12:51:33Z</time>
      </trkpt>
      <trkpt lat="43.81893" lon="5.50368">
        <ele>1066.7</ele>
        <time>2015-04-05T12:51:36Z</time>
      </trkpt>
      <trkpt lat="43.81907" lon="5.50352">
        <ele>1065.64</ele>
        <time>2015-04-05T12:51:40Z</time>
      </trkpt>
      <trkpt lat="43.81922" lon="5.50336">
        <ele>1065.53</ele>
        <time>2015-04-05T12:51:44Z</time>
      </trkpt>
      <trkpt lat="43.81936" lon="5.50318">
        <ele>1065.57</ele>
        <time>2015-04-05T12:51:48Z</time>
      </trkpt>
      <trkpt lat="43.81952" lon="5.50298">
        <ele>1065.75</ele>
        <time>2015-04-05T12:51:52Z</time>
      </trkpt>
      <trkpt lat="43.8197" lon="5.50276">
        <ele>1067.83</ele>
        <time>2015-04-05T12:51:56Z</time>
      </trkpt>
      <trkpt lat="43.81983" lon="5.50259">
        <ele>1069.4</ele>
        <time>2015-04-05T12:51:59Z</time>
      </trkpt>
      <trkpt lat="43.81994" lon="5.50237">
        <ele>1070</ele>
        <time>2015-04-05T12:52:02Z</time>
      </trkpt>
      <trkpt lat="43.81995" lon="5.50207">
        <ele>1069.91</ele>
        <time>2015-04-05T12:52:06Z</time>
      </trkpt>
      <trkpt lat="43.81985" lon="5.50176">
        <ele>1068</ele>
        <time>2015-04-05T12:52:11Z</time>
      </trkpt>
      <trkpt lat="43.81968" lon="5.50156">
        <ele>1067.34</ele>
        <time>2015-04-05T12:52:14Z</time>
      </trkpt>
      <trkpt lat="43.81955" lon="5.50138">
        <ele>1066.6</ele>
        <time>2015-04-05T12:52:17Z</time>
      </trkpt>
      <trkpt lat="43.81938" lon="5.50118">
        <ele>1065.95</ele>
        <time>2015-04-05T12:52:21Z</time>
      </trkpt>
      <trkpt lat="43.81921" lon="5.50097">
        <ele>1064.73</ele>
        <time>2015-04-05T12:52:25Z</time>
      </trkpt>
      <trkpt lat="43.81906" lon="5.50078">
        <ele>1063.7</ele>
        <time>2015-04-05T12:52:28Z</time>
      </trkpt>
      <trkpt lat="43.81892" lon="5.50061">
        <ele>1063.78</ele>
        <time>2015-04-05T12:52:31Z</time>
      </trkpt>
      <trkpt lat="43.81878" lon="5.50042">
        <ele>1064.3</ele>
        <time>2015-04-05T12:52:34Z</time>
      </trkpt>
      <trkpt lat="43.81862" lon="5.5002">
        <ele>1066.12</ele>
        <time>2015-04-05T12:52:37Z</time>
      </trkpt>
      <trkpt lat="43.8185" lon="5.50001">
        <ele>1068.08</ele>
        <time>2015-04-05T12:52:40Z</time>
      </trkpt>
      <trkpt lat="43.8184" lon="5.49977">
        <ele>1068.85</ele>
        <time>2015-04-05T12:52:43Z</time>
      </trkpt>
      <trkpt lat="43.81837" lon="5.49951">
        <ele>1069.89</ele>
        <time>2015-04-05T12:52:46Z</time>
      </trkpt>
      <trkpt lat="43.81836" lon="5.49924">
        <ele>1070.33</ele>
        <time>2015-04-05T12:52:49Z</time>
      </trkpt>
      <trkpt lat="43.81834" lon="5.49893">
        <ele>1071.58</ele>
        <time>2015-04-05T12:52:53Z</time>
      </trkpt>
      <trkpt lat="43.8183" lon="5.49867">
        <ele>1071.94</ele>
        <time>2015-04-05T12:52:56Z</time>
      </trkpt>
      <trkpt lat="43.81825" lon="5.49836">
        <ele>1073.1</ele>
        <time>2015-04-05T12:53:00Z</time>
      </trkpt>
      <trkpt lat="43.81821" lon="5.49809">
        <ele>1073.42</ele>
        <time>2015-04-05T12:53:03Z</time>
      </trkpt>
      <trkpt lat="43.81823" lon="5.49784">
        <ele>1072.6</ele>
        <time>2015-04-05T12:53:06Z</time>
      </trkpt>
      <trkpt lat="43.81833" lon="5.49761">
        <ele>1071.13</ele>
        <time>2015-04-05T12:53:09Z</time>
      </trkpt>
      <trkpt lat="43.81843" lon="5.49738">
        <ele>1071.34</ele>
        <time>2015-04-05T12:53:12Z</time>
      </trkpt>
      <trkpt lat="43.81854" lon="5.49713">
        <ele>1071.91</ele>
        <time>2015-04-05T12:53:15Z</time>
      </trkpt>
      <trkpt lat="43.81865" lon="5.49689">
        <ele>1072.38</ele>
        <time>2015-04-05T12:53:18Z</time>
      </trkpt>
      <trkpt lat="43.81875" lon="5.49665">
        <ele>1072.59</ele>
        <time>2015-04-05T12:53:21Z</time>
      </trkpt>
      <trkpt lat="43.81888" lon="5.49644">
        <ele>1072.05</ele>
        <time>2015-04-05T12:53:24Z</time>
      </trkpt>
      <trkpt lat="43.81906" lon="5.49634">
        <ele>1070.99</ele>
        <time>2015-04-05T12:53:27Z</time>
      </trkpt>
      <trkpt lat="43.81929" lon="5.4963">
        <ele>1071.25</ele>
        <time>2015-04-05T12:53:31Z</time>
      </trkpt>
      <trkpt lat="43.81948" lon="5.49632">
        <ele>1071.47</ele>
        <time>2015-04-05T12:53:34Z</time>
      </trkpt>
      <trkpt lat="43.81969" lon="5.49633">
        <ele>1071.53</ele>
        <time>2015-04-05T12:53:38Z</time>
      </trkpt>
      <trkpt lat="43.81988" lon="5.49641">
        <ele>1071.15</ele>
        <time>2015-04-05T12:53:42Z</time>
      </trkpt>
      <trkpt lat="43.82006" lon="5.49649">
        <ele>1071.32</ele>
        <time>2015-04-05T12:53:46Z</time>
      </trkpt>
      <trkpt lat="43.82028" lon="5.49654">
        <ele>1069.9</ele>
        <time>2015-04-05T12:53:51Z</time>
      </trkpt>
      <trkpt lat="43.82043" lon="5.49636">
        <ele>1069.03</ele>
        <time>2015-04-05T12:53:55Z</time>
      </trkpt>
      <trkpt lat="43.8204" lon="5.4961">
        <ele>1070.84</ele>
        <time>2015-04-05T12:53:59Z</time>
      </trkpt>
      <trkpt lat="43.82033" lon="5.49585">
        <ele>1071.87</ele>
        <time>2015-04-05T12:54:03Z</time>
      </trkpt>
      <trkpt lat="43.82023" lon="5.49559">
        <ele>1071.59</ele>
        <time>2015-04-05T12:54:07Z</time>
      </trkpt>
      <trkpt lat="43.82012" lon="5.49533">
        <ele>1072.04</ele>
        <time>2015-04-05T12:54:11Z</time>
      </trkpt>
      <trkpt lat="43.82001" lon="5.49509">
        <ele>1072.49</ele>
        <time>2015-04-05T12:54:15Z</time>
      </trkpt>
      <trkpt lat="43.81993" lon="5.49485">
        <ele>1071.88</ele>
        <time>2015-04-05T12:54:19Z</time>
      </trkpt>
      <trkpt lat="43.81984" lon="5.49461">
        <ele>1070.62</ele>
        <time>2015-04-05T12:54:23Z</time>
      </trkpt>
      <trkpt lat="43.81973" lon="5.49437">
        <ele>1069.69</ele>
        <time>2015-04-05T12:54:27Z</time>
      </trkpt>
      <trkpt lat="43.8196" lon="5.49419">
        <ele>1070.39</ele>
        <time>2015-04-05T12:54:30Z</time>
      </trkpt>
      <trkpt lat="43.81942" lon="5.49398">
        <ele>1072.35</ele>
        <time>2015-04-05T12:54:34Z</time>
      </trkpt>
      <trkpt lat="43.81927" lon="5.49384">
        <ele>1074.88</ele>
        <time>2015-04-05T12:54:37Z</time>
      </trkpt>
      <trkpt lat="43.81909" lon="5.49367">
        <ele>1075.33</ele>
        <time>2015-04-05T12:54:41Z</time>
      </trkpt>
      <trkpt lat="43.8189" lon="5.49352">
        <ele>1075.69</ele>
        <time>2015-04-05T12:54:45Z</time>
      </trkpt>
      <trkpt lat="43.81872" lon="5.49339">
        <ele>1075.47</ele>
        <time>2015-04-05T12:54:49Z</time>
      </trkpt>
      <trkpt lat="43.8186" lon="5.49319">
        <ele>1076.35</ele>
        <time>2015-04-05T12:55:52Z</time>
      </trkpt>
      <trkpt lat="43.81865" lon="5.49294">
        <ele>1077.28</ele>
        <time>2015-04-05T12:55:57Z</time>
      </trkpt>
      <trkpt lat="43.81881" lon="5.49277">
        <ele>1078.36</ele>
        <time>2015-04-05T12:56:01Z</time>
      </trkpt>
      <trkpt lat="43.81899" lon="5.49259">
        <ele>1078.8</ele>
        <time>2015-04-05T12:56:05Z</time>
      </trkpt>
      <trkpt lat="43.81916" lon="5.49241">
        <ele>1079.41</ele>
        <time>2015-04-05T12:56:09Z</time>
      </trkpt>
      <trkpt lat="43.8193" lon="5.49224">
        <ele>1080.06</ele>
        <time>2015-04-05T12:56:12Z</time>
      </trkpt>
      <trkpt lat="43.81944" lon="5.49205">
        <ele>1080.74</ele>
        <time>2015-04-05T12:56:15Z</time>
      </trkpt>
      <trkpt lat="43.81956" lon="5.49185">
        <ele>1080.99</ele>
        <time>2015-04-05T12:56:18Z</time>
      </trkpt>
      <trkpt lat="43.8196" lon="5.49156">
        <ele>1081.24</ele>
        <time>2015-04-05T12:56:21Z</time>
      </trkpt>
      <trkpt lat="43.81958" lon="5.49127">
        <ele>1082.26</ele>
        <time>2015-04-05T12:56:24Z</time>
      </trkpt>
      <trkpt lat="43.81957" lon="5.49102">
        <ele>1083.33</ele>
        <time>2015-04-05T12:56:27Z</time>
      </trkpt>
      <trkpt lat="43.81967" lon="5.49073">
        <ele>1083.38</ele>
        <time>2015-04-05T12:56:31Z</time>
      </trkpt>
      <trkpt lat="43.81982" lon="5.49048">
        <ele>1083.03</ele>
        <time>2015-04-05T12:56:35Z</time>
      </trkpt>
      <trkpt lat="43.81996" lon="5.49027">
        <ele>1082.37</ele>
        <time>2015-04-05T12:56:38Z</time>
      </trkpt>
      <trkpt lat="43.8201" lon="5.4901">
        <ele>1082.38</ele>
        <time>2015-04-05T12:56:41Z</time>
      </trkpt>
      <trkpt lat="43.82026" lon="5.4899">
        <ele>1082.83</ele>
        <time>2015-04-05T12:56:44Z</time>
      </trkpt>
      <trkpt lat="43.82041" lon="5.4897">
        <ele>1083.52</ele>
        <time>2015-04-05T12:56:47Z</time>
      </trkpt>
      <trkpt lat="43.82054" lon="5.48949">
        <ele>1083.82</ele>
        <time>2015-04-05T12:56:50Z</time>
      </trkpt>
      <trkpt lat="43.82064" lon="5.48927">
        <ele>1083.7</ele>
        <time>2015-04-05T12:56:53Z</time>
      </trkpt>
      <trkpt lat="43.82068" lon="5.48903">
        <ele>1083.58</ele>
        <time>2015-04-05T12:56:56Z</time>
      </trkpt>
      <trkpt lat="43.8207" lon="5.48875">
        <ele>1083.36</ele>
        <time>2015-04-05T12:56:59Z</time>
      </trkpt>
      <trkpt lat="43.82066" lon="5.48848">
        <ele>1081.89</ele>
        <time>2015-04-05T12:57:03Z</time>
      </trkpt>
      <trkpt lat="43.82057" lon="5.48817">
        <ele>1079.27</ele>
        <time>2015-04-05T12:57:07Z</time>
      </trkpt>
      <trkpt lat="43.82043" lon="5.48793">
        <ele>1077.16</ele>
        <time>2015-04-05T12:57:11Z</time>
      </trkpt>
      <trkpt lat="43.82028" lon="5.48777">
        <ele>1075.4</ele>
        <time>2015-04-05T12:57:15Z</time>
      </trkpt>
      <trkpt lat="43.82011" lon="5.48764">
        <ele>1074.34</ele>
        <time>2015-04-05T12:57:18Z</time>
      </trkpt>
      <trkpt lat="43.81991" lon="5.48755">
        <ele>1075.55</ele>
        <time>2015-04-05T12:57:21Z</time>
      </trkpt>
      <trkpt lat="43.81968" lon="5.48746">
        <ele>1076.1</ele>
        <time>2015-04-05T12:57:24Z</time>
      </trkpt>
      <trkpt lat="43.81948" lon="5.48738">
        <ele>1076.48</ele>
        <time>2015-04-05T12:57:27Z</time>
      </trkpt>
      <trkpt lat="43.8193" lon="5.48729">
        <ele>1076.2</ele>
        <time>2015-04-05T12:57:30Z</time>
      </trkpt>
      <trkpt lat="43.81909" lon="5.48714">
        <ele>1074.18</ele>
        <time>2015-04-05T12:57:34Z</time>
      </trkpt>
      <trkpt lat="43.81897" lon="5.48694">
        <ele>1073.73</ele>
        <time>2015-04-05T12:57:37Z</time>
      </trkpt>
      <trkpt lat="43.81895" lon="5.48665">
        <ele>1074.19</ele>
        <time>2015-04-05T12:57:41Z</time>
      </trkpt>
      <trkpt lat="43.819" lon="5.48635">
        <ele>1076.02</ele>
        <time>2015-04-05T12:57:45Z</time>
      </trkpt>
      <trkpt lat="43.81907" lon="5.48609">
        <ele>1077.58</ele>
        <time>2015-04-05T12:57:49Z</time>
      </trkpt>
      <trkpt lat="43.81917" lon="5.48587">
        <ele>1078.7</ele>
        <time>2015-04-05T12:57:53Z</time>
      </trkpt>
      <trkpt lat="43.81927" lon="5.48564">
        <ele>1079.26</ele>
        <time>2015-04-05T12:57:58Z</time>
      </trkpt>
      <trkpt lat="43.81937" lon="5.48543">
        <ele>1079.46</ele>
        <time>2015-04-05T12:58:02Z</time>
      </trkpt>
      <trkpt lat="43.81947" lon="5.48518">
        <ele>1080.18</ele>
        <time>2015-04-05T12:58:06Z</time>
      </trkpt>
      <trkpt lat="43.81951" lon="5.48492">
        <ele>1079.9</ele>
        <time>2015-04-05T12:58:10Z</time>
      </trkpt>
      <trkpt lat="43.81942" lon="5.48466">
        <ele>1080.04</ele>
        <time>2015-04-05T12:58:15Z</time>
      </trkpt>
      <trkpt lat="43.81924" lon="5.48446">
        <ele>1079.7</ele>
        <time>2015-04-05T12:58:20Z</time>
      </trkpt>
      <trkpt lat="43.81908" lon="5.48429">
        <ele>1077.76</ele>
        <time>2015-04-05T12:58:24Z</time>
      </trkpt>
      <trkpt lat="43.81892" lon="5.4841">
        <ele>1075.74</ele>
        <time>2015-04-05T12:58:28Z</time>
      </trkpt>
      <trkpt lat="43.81876" lon="5.48392">
        <ele>1075.7</ele>
        <time>2015-04-05T12:58:33Z</time>
      </trkpt>
      <trkpt lat="43.81866" lon="5.48366">
        <ele>1076.02</ele>
        <time>2015-04-05T12:58:38Z</time>
      </trkpt>
      <trkpt lat="43.81866" lon="5.48339">
        <ele>1077.13</ele>
        <time>2015-04-05T12:58:41Z</time>
      </trkpt>
      <trkpt lat="43.81876" lon="5.48308">
        <ele>1077.67</ele>
        <time>2015-04-05T12:58:45Z</time>
      </trkpt>
      <trkpt lat="43.81889" lon="5.48283">
        <ele>1077.94</ele>
        <time>2015-04-05T12:58:49Z</time>
      </trkpt>
      <trkpt lat="43.81902" lon="5.4826">
        <ele>1078.05</ele>
        <time>2015-04-05T12:58:53Z</time>
      </trkpt>
      <trkpt lat="43.81911" lon="5.48235">
        <ele>1078.29</ele>
        <time>2015-04-05T12:58:57Z</time>
      </trkpt>
      <trkpt lat="43.819" lon="5.48208">
        <ele>1079.27</ele>
        <time>2015-04-05T12:59:02Z</time>
      </trkpt>
      <trkpt lat="43.81881" lon="5.48189">
        <ele>1078.96</ele>
        <time>2015-04-05T12:59:06Z</time>
      </trkpt>
      <trkpt lat="43.81864" lon="5.48176">
        <ele>1078.81</ele>
        <time>2015-04-05T12:59:09Z</time>
      </trkpt>
      <trkpt lat="43.81844" lon="5.48161">
        <ele>1077.32</ele>
        <time>2015-04-05T12:59:13Z</time>
      </trkpt>
      <trkpt lat="43.81827" lon="5.4815">
        <ele>1078.38</ele>
        <time>2015-04-05T12:59:16Z</time>
      </trkpt>
      <trkpt lat="43.8181" lon="5.4814">
        <ele>1078.7</ele>
        <time>2015-04-05T12:59:20Z</time>
      </trkpt>
      <trkpt lat="43.81795" lon="5.48126">
        <ele>1076.93</ele>
        <time>2015-04-05T12:59:24Z</time>
      </trkpt>
      <trkpt lat="43.81776" lon="5.48107">
        <ele>1074.99</ele>
        <time>2015-04-05T12:59:28Z</time>
      </trkpt>
      <trkpt lat="43.81761" lon="5.48084">
        <ele>1073.44</ele>
        <time>2015-04-05T12:59:32Z</time>
      </trkpt>
      <trkpt lat="43.81744" lon="5.4807">
        <ele>1074.07</ele>
        <time>2015-04-05T12:59:39Z</time>
      </trkpt>
      <trkpt lat="43.81729" lon="5.48083">
        <ele>1075.34</ele>
        <time>2015-04-05T13:03:13Z</time>
      </trkpt>
      <trkpt lat="43.81745" lon="5.48072">
        <ele>1075.07</ele>
        <time>2015-04-05T13:04:32Z</time>
      </trkpt>
      <trkpt lat="43.81758" lon="5.48053">
        <ele>1075.73</ele>
        <time>2015-04-05T13:05:08Z</time>
      </trkpt>
      <trkpt lat="43.81758" lon="5.48028">
        <ele>1077.91</ele>
        <time>2015-04-05T13:05:13Z</time>
      </trkpt>
      <trkpt lat="43.81756" lon="5.47997">
        <ele>1080.72</ele>
        <time>2015-04-05T13:05:18Z</time>
      </trkpt>
      <trkpt lat="43.8175" lon="5.47968">
        <ele>1082.59</ele>
        <time>2015-04-05T13:05:23Z</time>
      </trkpt>
      <trkpt lat="43.81743" lon="5.4794">
        <ele>1083.05</ele>
        <time>2015-04-05T13:05:27Z</time>
      </trkpt>
      <trkpt lat="43.81735" lon="5.47914">
        <ele>1083.65</ele>
        <time>2015-04-05T13:05:31Z</time>
      </trkpt>
      <trkpt lat="43.81725" lon="5.4789">
        <ele>1082.15</ele>
        <time>2015-04-05T13:05:35Z</time>
      </trkpt>
      <trkpt lat="43.81721" lon="5.47864">
        <ele>1081.27</ele>
        <time>2015-04-05T13:05:38Z</time>
      </trkpt>
      <trkpt lat="43.81721" lon="5.47838">
        <ele>1080.73</ele>
        <time>2015-04-05T13:05:41Z</time>
      </trkpt>
      <trkpt lat="43.81729" lon="5.47814">
        <ele>1079.49</ele>
        <time>2015-04-05T13:05:45Z</time>
      </trkpt>
      <trkpt lat="43.81746" lon="5.47805">
        <ele>1075.32</ele>
        <time>2015-04-05T13:05:50Z</time>
      </trkpt>
      <trkpt lat="43.81766" lon="5.47808">
        <ele>1073.98</ele>
        <time>2015-04-05T13:05:57Z</time>
      </trkpt>
      <trkpt lat="43.81786" lon="5.4781">
        <ele>1072.77</ele>
        <time>2015-04-05T13:06:04Z</time>
      </trkpt>
      <trkpt lat="43.81804" lon="5.47804">
        <ele>1067.98</ele>
        <time>2015-04-05T13:06:08Z</time>
      </trkpt>
      <trkpt lat="43.81823" lon="5.47794">
        <ele>1065.53</ele>
        <time>2015-04-05T13:06:12Z</time>
      </trkpt>
      <trkpt lat="43.8184" lon="5.47776">
        <ele>1066.3</ele>
        <time>2015-04-05T13:06:16Z</time>
      </trkpt>
      <trkpt lat="43.81845" lon="5.47751">
        <ele>1072.27</ele>
        <time>2015-04-05T13:06:20Z</time>
      </trkpt>
      <trkpt lat="43.81846" lon="5.47722">
        <ele>1080.84</ele>
        <time>2015-04-05T13:06:24Z</time>
      </trkpt>
      <trkpt lat="43.81848" lon="5.47693">
        <ele>1086</ele>
        <time>2015-04-05T13:06:28Z</time>
      </trkpt>
      <trkpt lat="43.81851" lon="5.47666">
        <ele>1089.25</ele>
        <time>2015-04-05T13:06:32Z</time>
      </trkpt>
      <trkpt lat="43.81857" lon="5.47638">
        <ele>1090.78</ele>
        <time>2015-04-05T13:06:36Z</time>
      </trkpt>
      <trkpt lat="43.81866" lon="5.47613">
        <ele>1092.85</ele>
        <time>2015-04-05T13:06:39Z</time>
      </trkpt>
      <trkpt lat="43.81875" lon="5.4759">
        <ele>1094.49</ele>
        <time>2015-04-05T13:06:42Z</time>
      </trkpt>
      <trkpt lat="43.81884" lon="5.47569">
        <ele>1095.74</ele>
        <time>2015-04-05T13:06:46Z</time>
      </trkpt>
      <trkpt lat="43.81891" lon="5.47544">
        <ele>1097.12</ele>
        <time>2015-04-05T13:06:50Z</time>
      </trkpt>
      <trkpt lat="43.81898" lon="5.47517">
        <ele>1098.37</ele>
        <time>2015-04-05T13:06:54Z</time>
      </trkpt>
      <trkpt lat="43.81903" lon="5.4749">
        <ele>1102.22</ele>
        <time>2015-04-05T13:06:59Z</time>
      </trkpt>
      <trkpt lat="43.81906" lon="5.47465">
        <ele>1108.46</ele>
        <time>2015-04-05T13:07:03Z</time>
      </trkpt>
      <trkpt lat="43.81909" lon="5.47439">
        <ele>1112.5</ele>
        <time>2015-04-05T13:07:08Z</time>
      </trkpt>
      <trkpt lat="43.81895" lon="5.47418">
        <ele>1115.76</ele>
        <time>2015-04-05T13:07:13Z</time>
      </trkpt>
      <trkpt lat="43.81874" lon="5.4741">
        <ele>1118.94</ele>
        <time>2015-04-05T13:07:17Z</time>
      </trkpt>
      <trkpt lat="43.81853" lon="5.4741">
        <ele>1120.13</ele>
        <time>2015-04-05T13:07:21Z</time>
      </trkpt>
      <trkpt lat="43.8183" lon="5.47412">
        <ele>1120.35</ele>
        <time>2015-04-05T13:07:25Z</time>
      </trkpt>
      <trkpt lat="43.81809" lon="5.47416">
        <ele>1120.06</ele>
        <time>2015-04-05T13:07:29Z</time>
      </trkpt>
      <trkpt lat="43.81788" lon="5.47413">
        <ele>1120.02</ele>
        <time>2015-04-05T13:07:33Z</time>
      </trkpt>
      <trkpt lat="43.81765" lon="5.4741">
        <ele>1120.92</ele>
        <time>2015-04-05T13:07:37Z</time>
      </trkpt>
      <trkpt lat="43.81747" lon="5.47408">
        <ele>1121.91</ele>
        <time>2015-04-05T13:07:40Z</time>
      </trkpt>
      <trkpt lat="43.81725" lon="5.47402">
        <ele>1123.64</ele>
        <time>2015-04-05T13:07:44Z</time>
      </trkpt>
      <trkpt lat="43.81704" lon="5.47394">
        <ele>1124.38</ele>
        <time>2015-04-05T13:07:48Z</time>
      </trkpt>
      <trkpt lat="43.81685" lon="5.47385">
        <ele>1123.64</ele>
        <time>2015-04-05T13:07:52Z</time>
      </trkpt>
      <trkpt lat="43.81667" lon="5.47376">
        <ele>1122.58</ele>
        <time>2015-04-05T13:07:56Z</time>
      </trkpt>
      <trkpt lat="43.81646" lon="5.4737">
        <ele>1122.03</ele>
        <time>2015-04-05T13:08:00Z</time>
      </trkpt>
      <trkpt lat="43.81624" lon="5.47359">
        <ele>1125.06</ele>
        <time>2015-04-05T13:08:05Z</time>
      </trkpt>
      <trkpt lat="43.81604" lon="5.47345">
        <ele>1125.39</ele>
        <time>2015-04-05T13:08:09Z</time>
      </trkpt>
      <trkpt lat="43.81585" lon="5.47334">
        <ele>1126.18</ele>
        <time>2015-04-05T13:08:12Z</time>
      </trkpt>
      <trkpt lat="43.81566" lon="5.47326">
        <ele>1129.14</ele>
        <time>2015-04-05T13:08:15Z</time>
      </trkpt>
      <trkpt lat="43.81549" lon="5.47312">
        <ele>1132.09</ele>
        <time>2015-04-05T13:08:18Z</time>
      </trkpt>
      <trkpt lat="43.8154" lon="5.4729">
        <ele>1133.36</ele>
        <time>2015-04-05T13:08:21Z</time>
      </trkpt>
      <trkpt lat="43.81536" lon="5.47259">
        <ele>1134.99</ele>
        <time>2015-04-05T13:08:25Z</time>
      </trkpt>
      <trkpt lat="43.81535" lon="5.47225">
        <ele>1135.98</ele>
        <time>2015-04-05T13:08:29Z</time>
      </trkpt>
      <trkpt lat="43.81533" lon="5.47198">
        <ele>1136.13</ele>
        <time>2015-04-05T13:08:32Z</time>
      </trkpt>
      <trkpt lat="43.81528" lon="5.47173">
        <ele>1136.23</ele>
        <time>2015-04-05T13:08:35Z</time>
      </trkpt>
      <trkpt lat="43.81522" lon="5.47149">
        <ele>1136.61</ele>
        <time>2015-04-05T13:08:38Z</time>
      </trkpt>
      <trkpt lat="43.81514" lon="5.47126">
        <ele>1136.7</ele>
        <time>2015-04-05T13:08:41Z</time>
      </trkpt>
      <trkpt lat="43.81503" lon="5.47098">
        <ele>1137.11</ele>
        <time>2015-04-05T13:08:45Z</time>
      </trkpt>
      <trkpt lat="43.81495" lon="5.47075">
        <ele>1137.98</ele>
        <time>2015-04-05T13:08:48Z</time>
      </trkpt>
      <trkpt lat="43.81488" lon="5.47051">
        <ele>1139.05</ele>
        <time>2015-04-05T13:08:51Z</time>
      </trkpt>
      <trkpt lat="43.81486" lon="5.47026">
        <ele>1139.49</ele>
        <time>2015-04-05T13:08:54Z</time>
      </trkpt>
      <trkpt lat="43.81495" lon="5.46998">
        <ele>1139.69</ele>
        <time>2015-04-05T13:08:59Z</time>
      </trkpt>
      <trkpt lat="43.81508" lon="5.46977">
        <ele>1140.99</ele>
        <time>2015-04-05T13:09:03Z</time>
      </trkpt>
      <trkpt lat="43.81525" lon="5.46961">
        <ele>1141.31</ele>
        <time>2015-04-05T13:09:08Z</time>
      </trkpt>
      <trkpt lat="43.81541" lon="5.46947">
        <ele>1140.77</ele>
        <time>2015-04-05T13:09:13Z</time>
      </trkpt>
      <trkpt lat="43.81532" lon="5.46923">
        <ele>1141.09</ele>
        <time>2015-04-05T13:09:21Z</time>
      </trkpt>
      <trkpt lat="43.81519" lon="5.46902">
        <ele>1141.39</ele>
        <time>2015-04-05T13:09:27Z</time>
      </trkpt>
      <trkpt lat="43.81503" lon="5.46886">
        <ele>1142.2</ele>
        <time>2015-04-05T13:09:34Z</time>
      </trkpt>
      <trkpt lat="43.81488" lon="5.46868">
        <ele>1143.23</ele>
        <time>2015-04-05T13:09:41Z</time>
      </trkpt>
      <trkpt lat="43.81473" lon="5.46849">
        <ele>1144.07</ele>
        <time>2015-04-05T13:09:48Z</time>
      </trkpt>
      <trkpt lat="43.8146" lon="5.46829">
        <ele>1144.74</ele>
        <time>2015-04-05T13:09:53Z</time>
      </trkpt>
      <trkpt lat="43.81451" lon="5.46808">
        <ele>1145.72</ele>
        <time>2015-04-05T13:09:59Z</time>
      </trkpt>
      <trkpt lat="43.81446" lon="5.46782">
        <ele>1147.24</ele>
        <time>2015-04-05T13:10:06Z</time>
      </trkpt>
      <trkpt lat="43.8145" lon="5.46754">
        <ele>1154.46</ele>
        <time>2015-04-05T13:10:58Z</time>
      </trkpt>
      <trkpt lat="43.81457" lon="5.46731">
        <ele>1156.92</ele>
        <time>2015-04-05T13:11:11Z</time>
      </trkpt>
      <trkpt lat="43.81471" lon="5.46713">
        <ele>1159.31</ele>
        <time>2015-04-05T13:11:27Z</time>
      </trkpt>
      <trkpt lat="43.81489" lon="5.46707">
        <ele>1159.35</ele>
        <time>2015-04-05T13:11:44Z</time>
      </trkpt>
      <trkpt lat="43.81506" lon="5.46699">
        <ele>1159.81</ele>
        <time>2015-04-05T13:12:00Z</time>
      </trkpt>
      <trkpt lat="43.81524" lon="5.46697">
        <ele>1161.26</ele>
        <time>2015-04-05T13:12:15Z</time>
      </trkpt>
      <trkpt lat="43.81548" lon="5.46696">
        <ele>1161.3</ele>
        <time>2015-04-05T13:12:39Z</time>
      </trkpt>
      <trkpt lat="43.81564" lon="5.46705">
        <ele>1163.25</ele>
        <time>2015-04-05T13:12:52Z</time>
      </trkpt>
      <trkpt lat="43.81575" lon="5.46728">
        <ele>1165.4</ele>
        <time>2015-04-05T13:13:05Z</time>
      </trkpt>
      <trkpt lat="43.81569" lon="5.46752">
        <ele>1168.65</ele>
        <time>2015-04-05T13:17:50Z</time>
      </trkpt>
      <trkpt lat="43.81575" lon="5.46728">
        <ele>1169.77</ele>
        <time>2015-04-05T13:18:31Z</time>
      </trkpt>
      <trkpt lat="43.81571" lon="5.4672">
        <ele>1172.75</ele>
        <time>2015-04-05T13:20:00Z</time>
      </trkpt>
      <trkpt lat="43.81576" lon="5.46744">
        <ele>1169.63</ele>
        <time>2015-04-05T13:20:07Z</time>
      </trkpt>
      <trkpt lat="43.81566" lon="5.46765">
        <ele>1171.25</ele>
        <time>2015-04-05T13:22:03Z</time>
      </trkpt>
      <trkpt lat="43.81573" lon="5.46742">
        <ele>1169.91</ele>
        <time>2015-04-05T13:22:42Z</time>
      </trkpt>
      <trkpt lat="43.81572" lon="5.46723">
        <ele>1171.86</ele>
        <time>2015-04-05T13:23:41Z</time>
      </trkpt>
      <trkpt lat="43.81555" lon="5.467">
        <ele>1172.05</ele>
        <time>2015-04-05T13:24:14Z</time>
      </trkpt>
      <trkpt lat="43.81535" lon="5.46683">
        <ele>1170.84</ele>
        <time>2015-04-05T13:24:27Z</time>
      </trkpt>
      <trkpt lat="43.81515" lon="5.46682">
        <ele>1168.91</ele>
        <time>2015-04-05T13:24:33Z</time>
      </trkpt>
      <trkpt lat="43.8152" lon="5.46937">
        <ele>1149.1</ele>
        <time>2015-04-05T13:25:25Z</time>
      </trkpt>
      <trkpt lat="43.81529" lon="5.46915">
        <ele>1140.12</ele>
        <time>2015-04-05T13:25:53Z</time>
      </trkpt>
      <trkpt lat="43.81538" lon="5.46941">
        <ele>1140.54</ele>
        <time>2015-04-05T13:28:30Z</time>
      </trkpt>
      <trkpt lat="43.81528" lon="5.46965">
        <ele>1138.99</ele>
        <time>2015-04-05T13:28:38Z</time>
      </trkpt>
      <trkpt lat="43.81509" lon="5.46983">
        <ele>1141.63</ele>
        <time>2015-04-05T13:28:43Z</time>
      </trkpt>
      <trkpt lat="43.81496" lon="5.47003">
        <ele>1143.71</ele>
        <time>2015-04-05T13:28:47Z</time>
      </trkpt>
      <trkpt lat="43.81488" lon="5.4703">
        <ele>1145.15</ele>
        <time>2015-04-05T13:28:51Z</time>
      </trkpt>
      <trkpt lat="43.81488" lon="5.47057">
        <ele>1145.8</ele>
        <time>2015-04-05T13:28:57Z</time>
      </trkpt>
      <trkpt lat="43.81494" lon="5.47084">
        <ele>1144.69</ele>
        <time>2015-04-05T13:29:01Z</time>
      </trkpt>
      <trkpt lat="43.81502" lon="5.47109">
        <ele>1140.53</ele>
        <time>2015-04-05T13:29:05Z</time>
      </trkpt>
      <trkpt lat="43.81511" lon="5.47135">
        <ele>1136.22</ele>
        <time>2015-04-05T13:29:09Z</time>
      </trkpt>
      <trkpt lat="43.81521" lon="5.47162">
        <ele>1134.81</ele>
        <time>2015-04-05T13:29:13Z</time>
      </trkpt>
      <trkpt lat="43.81529" lon="5.47187">
        <ele>1135.8</ele>
        <time>2015-04-05T13:29:18Z</time>
      </trkpt>
      <trkpt lat="43.81535" lon="5.47212">
        <ele>1136</ele>
        <time>2015-04-05T13:29:23Z</time>
      </trkpt>
      <trkpt lat="43.81536" lon="5.47237">
        <ele>1134.85</ele>
        <time>2015-04-05T13:29:28Z</time>
      </trkpt>
      <trkpt lat="43.81536" lon="5.47264">
        <ele>1128.79</ele>
        <time>2015-04-05T13:29:33Z</time>
      </trkpt>
      <trkpt lat="43.81538" lon="5.47294">
        <ele>1125.2</ele>
        <time>2015-04-05T13:29:38Z</time>
      </trkpt>
      <trkpt lat="43.81549" lon="5.47315">
        <ele>1124.69</ele>
        <time>2015-04-05T13:29:43Z</time>
      </trkpt>
      <trkpt lat="43.81569" lon="5.47325">
        <ele>1125.11</ele>
        <time>2015-04-05T13:29:48Z</time>
      </trkpt>
      <trkpt lat="43.8159" lon="5.47331">
        <ele>1127</ele>
        <time>2015-04-05T13:29:53Z</time>
      </trkpt>
      <trkpt lat="43.81608" lon="5.4734">
        <ele>1126.53</ele>
        <time>2015-04-05T13:29:57Z</time>
      </trkpt>
      <trkpt lat="43.81626" lon="5.47351">
        <ele>1126.53</ele>
        <time>2015-04-05T13:30:01Z</time>
      </trkpt>
      <trkpt lat="43.81646" lon="5.47363">
        <ele>1123.5</ele>
        <time>2015-04-05T13:30:06Z</time>
      </trkpt>
      <trkpt lat="43.81664" lon="5.47372">
        <ele>1120.8</ele>
        <time>2015-04-05T13:30:10Z</time>
      </trkpt>
      <trkpt lat="43.81685" lon="5.47385">
        <ele>1120.54</ele>
        <time>2015-04-05T13:30:14Z</time>
      </trkpt>
      <trkpt lat="43.81706" lon="5.47397">
        <ele>1120.75</ele>
        <time>2015-04-05T13:30:18Z</time>
      </trkpt>
      <trkpt lat="43.81728" lon="5.47404">
        <ele>1117.97</ele>
        <time>2015-04-05T13:30:22Z</time>
      </trkpt>
      <trkpt lat="43.81752" lon="5.47408">
        <ele>1116.77</ele>
        <time>2015-04-05T13:30:26Z</time>
      </trkpt>
      <trkpt lat="43.8177" lon="5.47409">
        <ele>1118.54</ele>
        <time>2015-04-05T13:30:29Z</time>
      </trkpt>
      <trkpt lat="43.81792" lon="5.47412">
        <ele>1120</ele>
        <time>2015-04-05T13:30:33Z</time>
      </trkpt>
      <trkpt lat="43.81815" lon="5.47415">
        <ele>1118.56</ele>
        <time>2015-04-05T13:30:37Z</time>
      </trkpt>
      <trkpt lat="43.81836" lon="5.47414">
        <ele>1118.64</ele>
        <time>2015-04-05T13:30:41Z</time>
      </trkpt>
      <trkpt lat="43.81857" lon="5.47412">
        <ele>1116.35</ele>
        <time>2015-04-05T13:30:45Z</time>
      </trkpt>
      <trkpt lat="43.81879" lon="5.47412">
        <ele>1113.88</ele>
        <time>2015-04-05T13:30:49Z</time>
      </trkpt>
      <trkpt lat="43.81897" lon="5.47423">
        <ele>1111.87</ele>
        <time>2015-04-05T13:30:53Z</time>
      </trkpt>
      <trkpt lat="43.81909" lon="5.47445">
        <ele>1109.67</ele>
        <time>2015-04-05T13:30:57Z</time>
      </trkpt>
      <trkpt lat="43.81909" lon="5.47476">
        <ele>1108.11</ele>
        <time>2015-04-05T13:31:02Z</time>
      </trkpt>
      <trkpt lat="43.81905" lon="5.47502">
        <ele>1107.47</ele>
        <time>2015-04-05T13:31:07Z</time>
      </trkpt>
      <trkpt lat="43.81898" lon="5.47527">
        <ele>1101.92</ele>
        <time>2015-04-05T13:31:11Z</time>
      </trkpt>
      <trkpt lat="43.8189" lon="5.47552">
        <ele>1097.7</ele>
        <time>2015-04-05T13:31:16Z</time>
      </trkpt>
      <trkpt lat="43.8188" lon="5.47576">
        <ele>1091.04</ele>
        <time>2015-04-05T13:31:20Z</time>
      </trkpt>
      <trkpt lat="43.81869" lon="5.47605">
        <ele>1082.7</ele>
        <time>2015-04-05T13:31:24Z</time>
      </trkpt>
      <trkpt lat="43.81863" lon="5.47631">
        <ele>1077.56</ele>
        <time>2015-04-05T13:31:28Z</time>
      </trkpt>
      <trkpt lat="43.81859" lon="5.47662">
        <ele>1072.99</ele>
        <time>2015-04-05T13:31:33Z</time>
      </trkpt>
      <trkpt lat="43.81858" lon="5.47692">
        <ele>1069.89</ele>
        <time>2015-04-05T13:31:37Z</time>
      </trkpt>
      <trkpt lat="43.81861" lon="5.47722">
        <ele>1066.78</ele>
        <time>2015-04-05T13:31:41Z</time>
      </trkpt>
      <trkpt lat="43.81862" lon="5.47747">
        <ele>1066.08</ele>
        <time>2015-04-05T13:31:44Z</time>
      </trkpt>
      <trkpt lat="43.81857" lon="5.47772">
        <ele>1068.63</ele>
        <time>2015-04-05T13:31:48Z</time>
      </trkpt>
      <trkpt lat="43.81839" lon="5.47786">
        <ele>1069.36</ele>
        <time>2015-04-05T13:31:52Z</time>
      </trkpt>
      <trkpt lat="43.8182" lon="5.47793">
        <ele>1068.62</ele>
        <time>2015-04-05T13:31:56Z</time>
      </trkpt>
      <trkpt lat="43.81799" lon="5.47798">
        <ele>1069.14</ele>
        <time>2015-04-05T13:32:01Z</time>
      </trkpt>
      <trkpt lat="43.81776" lon="5.47798">
        <ele>1073.69</ele>
        <time>2015-04-05T13:32:06Z</time>
      </trkpt>
      <trkpt lat="43.81757" lon="5.47797">
        <ele>1073.69</ele>
        <time>2015-04-05T13:32:10Z</time>
      </trkpt>
      <trkpt lat="43.81739" lon="5.47802">
        <ele>1072.52</ele>
        <time>2015-04-05T13:32:14Z</time>
      </trkpt>
      <trkpt lat="43.81726" lon="5.47825">
        <ele>1073.75</ele>
        <time>2015-04-05T13:32:18Z</time>
      </trkpt>
      <trkpt lat="43.81721" lon="5.47854">
        <ele>1074.86</ele>
        <time>2015-04-05T13:32:21Z</time>
      </trkpt>
      <trkpt lat="43.81722" lon="5.47882">
        <ele>1074.02</ele>
        <time>2015-04-05T13:32:24Z</time>
      </trkpt>
      <trkpt lat="43.81729" lon="5.4791">
        <ele>1073.38</ele>
        <time>2015-04-05T13:32:28Z</time>
      </trkpt>
      <trkpt lat="43.81737" lon="5.47933">
        <ele>1073.14</ele>
        <time>2015-04-05T13:32:31Z</time>
      </trkpt>
      <trkpt lat="43.81745" lon="5.4796">
        <ele>1071.07</ele>
        <time>2015-04-05T13:32:34Z</time>
      </trkpt>
      <trkpt lat="43.8175" lon="5.47987">
        <ele>1070.7</ele>
        <time>2015-04-05T13:32:37Z</time>
      </trkpt>
      <trkpt lat="43.81754" lon="5.48019">
        <ele>1070.01</ele>
        <time>2015-04-05T13:32:41Z</time>
      </trkpt>
      <trkpt lat="43.81753" lon="5.48045">
        <ele>1070.34</ele>
        <time>2015-04-05T13:32:45Z</time>
      </trkpt>
      <trkpt lat="43.81742" lon="5.48067">
        <ele>1071.71</ele>
        <time>2015-04-05T13:32:50Z</time>
      </trkpt>
      <trkpt lat="43.81721" lon="5.48073">
        <ele>1072.18</ele>
        <time>2015-04-05T13:32:57Z</time>
      </trkpt>
      <trkpt lat="43.81702" lon="5.48073">
        <ele>1071.72</ele>
        <time>2015-04-05T13:33:05Z</time>
      </trkpt>
      <trkpt lat="43.81684" lon="5.48071">
        <ele>1069</ele>
        <time>2015-04-05T13:34:02Z</time>
      </trkpt>
      <trkpt lat="43.81676" lon="5.48094">
        <ele>1066.34</ele>
        <time>2015-04-05T13:34:29Z</time>
      </trkpt>
      <trkpt lat="43.81668" lon="5.48119">
        <ele>1064.73</ele>
        <time>2015-04-05T13:34:54Z</time>
      </trkpt>
      <trkpt lat="43.8165" lon="5.48117">
        <ele>1055.59</ele>
        <time>2015-04-05T13:35:36Z</time>
      </trkpt>
      <trkpt lat="43.81635" lon="5.48102">
        <ele>1051.36</ele>
        <time>2015-04-05T13:36:04Z</time>
      </trkpt>
      <trkpt lat="43.8162" lon="5.48087">
        <ele>1049.02</ele>
        <time>2015-04-05T13:36:13Z</time>
      </trkpt>
      <trkpt lat="43.81604" lon="5.48075">
        <ele>1047</ele>
        <time>2015-04-05T13:36:22Z</time>
      </trkpt>
      <trkpt lat="43.81589" lon="5.4806">
        <ele>1040.4</ele>
        <time>2015-04-05T13:36:53Z</time>
      </trkpt>
      <trkpt lat="43.81574" lon="5.48075">
        <ele>1021.41</ele>
        <time>2015-04-05T13:38:50Z</time>
      </trkpt>
      <trkpt lat="43.81569" lon="5.48102">
        <ele>1018.96</ele>
        <time>2015-04-05T13:39:02Z</time>
      </trkpt>
      <trkpt lat="43.81569" lon="5.48127">
        <ele>1015.28</ele>
        <time>2015-04-05T13:39:18Z</time>
      </trkpt>
      <trkpt lat="43.81563" lon="5.48153">
        <ele>1009.12</ele>
        <time>2015-04-05T13:40:04Z</time>
      </trkpt>
      <trkpt lat="43.81545" lon="5.48155">
        <ele>1001.67</ele>
        <time>2015-04-05T13:40:45Z</time>
      </trkpt>
      <trkpt lat="43.81534" lon="5.48135">
        <ele>998.85</ele>
        <time>2015-04-05T13:40:53Z</time>
      </trkpt>
      <trkpt lat="43.8152" lon="5.48116">
        <ele>994.83</ele>
        <time>2015-04-05T13:41:02Z</time>
      </trkpt>
      <trkpt lat="43.81504" lon="5.48102">
        <ele>991.5</ele>
        <time>2015-04-05T13:41:09Z</time>
      </trkpt>
      <trkpt lat="43.81491" lon="5.48085">
        <ele>986.98</ele>
        <time>2015-04-05T13:41:17Z</time>
      </trkpt>
      <trkpt lat="43.81474" lon="5.4807">
        <ele>982.87</ele>
        <time>2015-04-05T13:41:25Z</time>
      </trkpt>
      <trkpt lat="43.81458" lon="5.48057">
        <ele>977.16</ele>
        <time>2015-04-05T13:41:35Z</time>
      </trkpt>
      <trkpt lat="43.81442" lon="5.48043">
        <ele>973.12</ele>
        <time>2015-04-05T13:41:42Z</time>
      </trkpt>
      <trkpt lat="43.81426" lon="5.48031">
        <ele>968.23</ele>
        <time>2015-04-05T13:41:51Z</time>
      </trkpt>
      <trkpt lat="43.8142" lon="5.48055">
        <ele>961.87</ele>
        <time>2015-04-05T13:42:01Z</time>
      </trkpt>
      <trkpt lat="43.81418" lon="5.4808">
        <ele>955.9</ele>
        <time>2015-04-05T13:42:12Z</time>
      </trkpt>
      <trkpt lat="43.8141" lon="5.48104">
        <ele>950.04</ele>
        <time>2015-04-05T13:42:30Z</time>
      </trkpt>
      <trkpt lat="43.81408" lon="5.4813">
        <ele>946.52</ele>
        <time>2015-04-05T13:42:37Z</time>
      </trkpt>
      <trkpt lat="43.81409" lon="5.48156">
        <ele>942.35</ele>
        <time>2015-04-05T13:42:43Z</time>
      </trkpt>
      <trkpt lat="43.81405" lon="5.48184">
        <ele>935.77</ele>
        <time>2015-04-05T13:42:52Z</time>
      </trkpt>
      <trkpt lat="43.81404" lon="5.48209">
        <ele>930.73</ele>
        <time>2015-04-05T13:42:59Z</time>
      </trkpt>
      <trkpt lat="43.814" lon="5.48234">
        <ele>926.07</ele>
        <time>2015-04-05T13:43:06Z</time>
      </trkpt>
      <trkpt lat="43.81398" lon="5.48262">
        <ele>922.26</ele>
        <time>2015-04-05T13:43:12Z</time>
      </trkpt>
      <trkpt lat="43.81389" lon="5.48286">
        <ele>914.16</ele>
        <time>2015-04-05T13:43:41Z</time>
      </trkpt>
      <trkpt lat="43.81371" lon="5.48284">
        <ele>907.58</ele>
        <time>2015-04-05T13:44:09Z</time>
      </trkpt>
      <trkpt lat="43.81356" lon="5.48268">
        <ele>904.28</ele>
        <time>2015-04-05T13:44:16Z</time>
      </trkpt>
      <trkpt lat="43.81344" lon="5.48246">
        <ele>900.58</ele>
        <time>2015-04-05T13:44:23Z</time>
      </trkpt>
      <trkpt lat="43.8133" lon="5.48226">
        <ele>896.77</ele>
        <time>2015-04-05T13:44:30Z</time>
      </trkpt>
      <trkpt lat="43.81316" lon="5.48208">
        <ele>892.28</ele>
        <time>2015-04-05T13:44:38Z</time>
      </trkpt>
      <trkpt lat="43.81305" lon="5.48188">
        <ele>888</ele>
        <time>2015-04-05T13:44:45Z</time>
      </trkpt>
      <trkpt lat="43.81289" lon="5.48175">
        <ele>884.43</ele>
        <time>2015-04-05T13:44:52Z</time>
      </trkpt>
      <trkpt lat="43.81273" lon="5.48158">
        <ele>876.5</ele>
        <time>2015-04-05T13:45:15Z</time>
      </trkpt>
      <trkpt lat="43.81256" lon="5.48146">
        <ele>873.25</ele>
        <time>2015-04-05T13:45:22Z</time>
      </trkpt>
      <trkpt lat="43.81238" lon="5.48153">
        <ele>869.88</ele>
        <time>2015-04-05T13:45:30Z</time>
      </trkpt>
      <trkpt lat="43.81217" lon="5.48143">
        <ele>858.82</ele>
        <time>2015-04-05T13:45:35Z</time>
      </trkpt>
      <trkpt lat="43.81201" lon="5.48128">
        <ele>855</ele>
        <time>2015-04-05T13:45:42Z</time>
      </trkpt>
      <trkpt lat="43.81182" lon="5.48123">
        <ele>850.45</ele>
        <time>2015-04-05T13:46:09Z</time>
      </trkpt>
      <trkpt lat="43.81163" lon="5.48116">
        <ele>847.8</ele>
        <time>2015-04-05T13:46:17Z</time>
      </trkpt>
      <trkpt lat="43.81146" lon="5.48102">
        <ele>844.79</ele>
        <time>2015-04-05T13:46:25Z</time>
      </trkpt>
      <trkpt lat="43.81129" lon="5.48112">
        <ele>835.09</ele>
        <time>2015-04-05T13:47:12Z</time>
      </trkpt>
      <trkpt lat="43.81128" lon="5.48136">
        <ele>821.11</ele>
        <time>2015-04-05T13:51:13Z</time>
      </trkpt>
      <trkpt lat="43.81133" lon="5.48161">
        <ele>819.48</ele>
        <time>2015-04-05T13:51:30Z</time>
      </trkpt>
      <trkpt lat="43.81138" lon="5.48186">
        <ele>816.29</ele>
        <time>2015-04-05T13:51:41Z</time>
      </trkpt>
      <trkpt lat="43.81141" lon="5.48212">
        <ele>804.15</ele>
        <time>2015-04-05T13:52:18Z</time>
      </trkpt>
      <trkpt lat="43.81133" lon="5.48237">
        <ele>802.98</ele>
        <time>2015-04-05T13:52:25Z</time>
      </trkpt>
      <trkpt lat="43.81118" lon="5.4825">
        <ele>802.2</ele>
        <time>2015-04-05T13:52:30Z</time>
      </trkpt>
      <trkpt lat="43.81101" lon="5.48261">
        <ele>799.55</ele>
        <time>2015-04-05T13:52:43Z</time>
      </trkpt>
      <trkpt lat="43.81085" lon="5.48274">
        <ele>797.73</ele>
        <time>2015-04-05T13:52:52Z</time>
      </trkpt>
      <trkpt lat="43.8107" lon="5.48292">
        <ele>795.21</ele>
        <time>2015-04-05T13:53:00Z</time>
      </trkpt>
      <trkpt lat="43.81059" lon="5.48313">
        <ele>790.75</ele>
        <time>2015-04-05T13:53:11Z</time>
      </trkpt>
      <trkpt lat="43.81048" lon="5.48333">
        <ele>784.88</ele>
        <time>2015-04-05T13:53:48Z</time>
      </trkpt>
      <trkpt lat="43.81035" lon="5.48349">
        <ele>780.2</ele>
        <time>2015-04-05T13:54:05Z</time>
      </trkpt>
      <trkpt lat="43.81022" lon="5.48369">
        <ele>776.72</ele>
        <time>2015-04-05T13:54:18Z</time>
      </trkpt>
      <trkpt lat="43.81013" lon="5.48392">
        <ele>772.25</ele>
        <time>2015-04-05T13:54:28Z</time>
      </trkpt>
      <trkpt lat="43.80997" lon="5.48405">
        <ele>767.86</ele>
        <time>2015-04-05T13:54:39Z</time>
      </trkpt>
      <trkpt lat="43.80983" lon="5.48422">
        <ele>761.36</ele>
        <time>2015-04-05T13:55:03Z</time>
      </trkpt>
      <trkpt lat="43.80967" lon="5.48435">
        <ele>757.04</ele>
        <time>2015-04-05T13:55:16Z</time>
      </trkpt>
      <trkpt lat="43.80951" lon="5.48451">
        <ele>753.82</ele>
        <time>2015-04-05T13:55:35Z</time>
      </trkpt>
      <trkpt lat="43.80934" lon="5.48459">
        <ele>751.14</ele>
        <time>2015-04-05T13:55:45Z</time>
      </trkpt>
      <trkpt lat="43.80919" lon="5.48473">
        <ele>747.96</ele>
        <time>2015-04-05T13:55:54Z</time>
      </trkpt>
      <trkpt lat="43.80903" lon="5.48487">
        <ele>744.46</ele>
        <time>2015-04-05T13:56:03Z</time>
      </trkpt>
      <trkpt lat="43.80886" lon="5.48499">
        <ele>739.59</ele>
        <time>2015-04-05T13:56:25Z</time>
      </trkpt>
      <trkpt lat="43.80871" lon="5.48512">
        <ele>735.01</ele>
        <time>2015-04-05T13:56:46Z</time>
      </trkpt>
      <trkpt lat="43.80854" lon="5.48527">
        <ele>731.42</ele>
        <time>2015-04-05T13:56:56Z</time>
      </trkpt>
      <trkpt lat="43.80838" lon="5.48542">
        <ele>727.75</ele>
        <time>2015-04-05T13:57:04Z</time>
      </trkpt>
      <trkpt lat="43.80819" lon="5.48553">
        <ele>724.07</ele>
        <time>2015-04-05T13:57:12Z</time>
      </trkpt>
      <trkpt lat="43.80805" lon="5.48569">
        <ele>721.15</ele>
        <time>2015-04-05T13:57:19Z</time>
      </trkpt>
      <trkpt lat="43.8079" lon="5.48584">
        <ele>718.41</ele>
        <time>2015-04-05T13:57:27Z</time>
      </trkpt>
      <trkpt lat="43.80779" lon="5.48606">
        <ele>713.29</ele>
        <time>2015-04-05T13:58:34Z</time>
      </trkpt>
      <trkpt lat="43.80766" lon="5.48628">
        <ele>711.21</ele>
        <time>2015-04-05T13:58:41Z</time>
      </trkpt>
      <trkpt lat="43.80747" lon="5.48638">
        <ele>708.95</ele>
        <time>2015-04-05T13:58:48Z</time>
      </trkpt>
      <trkpt lat="43.8073" lon="5.48644">
        <ele>707.26</ele>
        <time>2015-04-05T13:58:54Z</time>
      </trkpt>
      <trkpt lat="43.80713" lon="5.48633">
        <ele>704.18</ele>
        <time>2015-04-05T13:59:04Z</time>
      </trkpt>
      <trkpt lat="43.80694" lon="5.48637">
        <ele>695.33</ele>
        <time>2015-04-05T13:59:35Z</time>
      </trkpt>
      <trkpt lat="43.80686" lon="5.48661">
        <ele>691.39</ele>
        <time>2015-04-05T13:59:48Z</time>
      </trkpt>
      <trkpt lat="43.80697" lon="5.48682">
        <ele>686.47</ele>
        <time>2015-04-05T13:59:59Z</time>
      </trkpt>
      <trkpt lat="43.80708" lon="5.48703">
        <ele>682.47</ele>
        <time>2015-04-05T14:00:07Z</time>
      </trkpt>
      <trkpt lat="43.80702" lon="5.48732">
        <ele>678.45</ele>
        <time>2015-04-05T14:00:15Z</time>
      </trkpt>
      <trkpt lat="43.80695" lon="5.48758">
        <ele>676.34</ele>
        <time>2015-04-05T14:00:20Z</time>
      </trkpt>
      <trkpt lat="43.80688" lon="5.48781">
        <ele>674.04</ele>
        <time>2015-04-05T14:00:25Z</time>
      </trkpt>
      <trkpt lat="43.80673" lon="5.48796">
        <ele>670.34</ele>
        <time>2015-04-05T14:00:32Z</time>
      </trkpt>
      <trkpt lat="43.80659" lon="5.48813">
        <ele>663.27</ele>
        <time>2015-04-05T14:00:37Z</time>
      </trkpt>
      <trkpt lat="43.8064" lon="5.4883">
        <ele>652.87</ele>
        <time>2015-04-05T14:00:41Z</time>
      </trkpt>
      <trkpt lat="43.80627" lon="5.48848">
        <ele>647.85</ele>
        <time>2015-04-05T14:00:44Z</time>
      </trkpt>
      <trkpt lat="43.80619" lon="5.48876">
        <ele>646.24</ele>
        <time>2015-04-05T14:00:48Z</time>
      </trkpt>
      <trkpt lat="43.8061" lon="5.48897">
        <ele>643.24</ele>
        <time>2015-04-05T14:00:53Z</time>
      </trkpt>
      <trkpt lat="43.806" lon="5.48919">
        <ele>642.22</ele>
        <time>2015-04-05T14:01:01Z</time>
      </trkpt>
      <trkpt lat="43.80582" lon="5.48932">
        <ele>638.61</ele>
        <time>2015-04-05T14:02:14Z</time>
      </trkpt>
      <trkpt lat="43.8056" lon="5.48945">
        <ele>635.15</ele>
        <time>2015-04-05T14:02:19Z</time>
      </trkpt>
      <trkpt lat="43.80544" lon="5.48954">
        <ele>633.62</ele>
        <time>2015-04-05T14:02:22Z</time>
      </trkpt>
      <trkpt lat="43.80524" lon="5.48965">
        <ele>634.63</ele>
        <time>2015-04-05T14:02:26Z</time>
      </trkpt>
      <trkpt lat="43.80503" lon="5.48976">
        <ele>635.03</ele>
        <time>2015-04-05T14:02:30Z</time>
      </trkpt>
      <trkpt lat="43.80484" lon="5.48994">
        <ele>635.71</ele>
        <time>2015-04-05T14:02:34Z</time>
      </trkpt>
      <trkpt lat="43.80466" lon="5.49013">
        <ele>634.1</ele>
        <time>2015-04-05T14:02:38Z</time>
      </trkpt>
      <trkpt lat="43.80448" lon="5.49023">
        <ele>632.6</ele>
        <time>2015-04-05T14:02:41Z</time>
      </trkpt>
      <trkpt lat="43.80425" lon="5.49027">
        <ele>631.18</ele>
        <time>2015-04-05T14:02:45Z</time>
      </trkpt>
      <trkpt lat="43.80404" lon="5.49036">
        <ele>631.82</ele>
        <time>2015-04-05T14:02:50Z</time>
      </trkpt>
      <trkpt lat="43.80388" lon="5.49048">
        <ele>631.99</ele>
        <time>2015-04-05T14:02:55Z</time>
      </trkpt>
      <trkpt lat="43.80373" lon="5.49064">
        <ele>632.34</ele>
        <time>2015-04-05T14:03:01Z</time>
      </trkpt>
      <trkpt lat="43.80358" lon="5.49079">
        <ele>632.74</ele>
        <time>2015-04-05T14:03:08Z</time>
      </trkpt>
      <trkpt lat="43.80351" lon="5.49106">
        <ele>632.59</ele>
        <time>2015-04-05T14:03:15Z</time>
      </trkpt>
      <trkpt lat="43.80348" lon="5.49131">
        <ele>632.63</ele>
        <time>2015-04-05T14:03:20Z</time>
      </trkpt>
      <trkpt lat="43.80341" lon="5.49156">
        <ele>631.89</ele>
        <time>2015-04-05T14:03:24Z</time>
      </trkpt>
      <trkpt lat="43.80332" lon="5.49183">
        <ele>630.48</ele>
        <time>2015-04-05T14:03:28Z</time>
      </trkpt>
      <trkpt lat="43.80325" lon="5.49212">
        <ele>627.53</ele>
        <time>2015-04-05T14:03:32Z</time>
      </trkpt>
      <trkpt lat="43.80323" lon="5.49237">
        <ele>624.9</ele>
        <time>2015-04-05T14:03:35Z</time>
      </trkpt>
      <trkpt lat="43.80324" lon="5.49264">
        <ele>623.03</ele>
        <time>2015-04-05T14:03:38Z</time>
      </trkpt>
      <trkpt lat="43.80325" lon="5.49293">
        <ele>621.54</ele>
        <time>2015-04-05T14:03:41Z</time>
      </trkpt>
      <trkpt lat="43.80324" lon="5.49319">
        <ele>623.56</ele>
        <time>2015-04-05T14:03:44Z</time>
      </trkpt>
      <trkpt lat="43.80319" lon="5.49346">
        <ele>624.79</ele>
        <time>2015-04-05T14:03:48Z</time>
      </trkpt>
      <trkpt lat="43.80312" lon="5.49371">
        <ele>625.64</ele>
        <time>2015-04-05T14:03:54Z</time>
      </trkpt>
      <trkpt lat="43.80296" lon="5.49387">
        <ele>627.35</ele>
        <time>2015-04-05T14:04:03Z</time>
      </trkpt>
      <trkpt lat="43.80276" lon="5.49395">
        <ele>628.74</ele>
        <time>2015-04-05T14:04:10Z</time>
      </trkpt>
      <trkpt lat="43.80257" lon="5.49385">
        <ele>630.3</ele>
        <time>2015-04-05T14:04:14Z</time>
      </trkpt>
      <trkpt lat="43.8024" lon="5.4937">
        <ele>629.93</ele>
        <time>2015-04-05T14:04:17Z</time>
      </trkpt>
      <trkpt lat="43.80218" lon="5.49355">
        <ele>629.04</ele>
        <time>2015-04-05T14:04:21Z</time>
      </trkpt>
      <trkpt lat="43.80198" lon="5.49342">
        <ele>627.17</ele>
        <time>2015-04-05T14:04:24Z</time>
      </trkpt>
      <trkpt lat="43.80177" lon="5.49341">
        <ele>625.04</ele>
        <time>2015-04-05T14:04:27Z</time>
      </trkpt>
      <trkpt lat="43.80157" lon="5.49342">
        <ele>622.7</ele>
        <time>2015-04-05T14:04:30Z</time>
      </trkpt>
      <trkpt lat="43.80135" lon="5.49333">
        <ele>620.03</ele>
        <time>2015-04-05T14:04:33Z</time>
      </trkpt>
      <trkpt lat="43.80114" lon="5.49321">
        <ele>618.01</ele>
        <time>2015-04-05T14:04:36Z</time>
      </trkpt>
      <trkpt lat="43.80092" lon="5.49317">
        <ele>615.85</ele>
        <time>2015-04-05T14:04:39Z</time>
      </trkpt>
      <trkpt lat="43.8007" lon="5.49317">
        <ele>614.07</ele>
        <time>2015-04-05T14:04:42Z</time>
      </trkpt>
      <trkpt lat="43.80049" lon="5.49317">
        <ele>613.56</ele>
        <time>2015-04-05T14:04:45Z</time>
      </trkpt>
      <trkpt lat="43.80028" lon="5.49317">
        <ele>613.35</ele>
        <time>2015-04-05T14:04:48Z</time>
      </trkpt>
      <trkpt lat="43.80009" lon="5.49316">
        <ele>612.43</ele>
        <time>2015-04-05T14:04:51Z</time>
      </trkpt>
      <trkpt lat="43.79987" lon="5.49314">
        <ele>609.7</ele>
        <time>2015-04-05T14:04:55Z</time>
      </trkpt>
      <trkpt lat="43.79967" lon="5.49304">
        <ele>607.63</ele>
        <time>2015-04-05T14:04:59Z</time>
      </trkpt>
      <trkpt lat="43.79946" lon="5.49292">
        <ele>604.38</ele>
        <time>2015-04-05T14:05:03Z</time>
      </trkpt>
      <trkpt lat="43.79926" lon="5.49282">
        <ele>602.97</ele>
        <time>2015-04-05T14:05:07Z</time>
      </trkpt>
      <trkpt lat="43.79904" lon="5.49277">
        <ele>600.22</ele>
        <time>2015-04-05T14:05:11Z</time>
      </trkpt>
      <trkpt lat="43.79883" lon="5.49273">
        <ele>593.96</ele>
        <time>2015-04-05T14:05:15Z</time>
      </trkpt>
      <trkpt lat="43.79864" lon="5.49266">
        <ele>590.53</ele>
        <time>2015-04-05T14:05:18Z</time>
      </trkpt>
      <trkpt lat="43.79849" lon="5.49251">
        <ele>587.32</ele>
        <time>2015-04-05T14:05:21Z</time>
      </trkpt>
      <trkpt lat="43.79838" lon="5.49231">
        <ele>584.46</ele>
        <time>2015-04-05T14:05:24Z</time>
      </trkpt>
      <trkpt lat="43.79828" lon="5.49209">
        <ele>582.64</ele>
        <time>2015-04-05T14:05:27Z</time>
      </trkpt>
      <trkpt lat="43.79817" lon="5.49187">
        <ele>579.39</ele>
        <time>2015-04-05T14:05:31Z</time>
      </trkpt>
      <trkpt lat="43.79799" lon="5.49166">
        <ele>577.51</ele>
        <time>2015-04-05T14:05:35Z</time>
      </trkpt>
      <trkpt lat="43.79785" lon="5.49146">
        <ele>577.96</ele>
        <time>2015-04-05T14:05:38Z</time>
      </trkpt>
      <trkpt lat="43.79772" lon="5.49125">
        <ele>577.23</ele>
        <time>2015-04-05T14:05:41Z</time>
      </trkpt>
      <trkpt lat="43.79759" lon="5.49105">
        <ele>575.56</ele>
        <time>2015-04-05T14:05:44Z</time>
      </trkpt>
      <trkpt lat="43.79742" lon="5.49084">
        <ele>573.46</ele>
        <time>2015-04-05T14:05:47Z</time>
      </trkpt>
      <trkpt lat="43.79725" lon="5.49065">
        <ele>572.04</ele>
        <time>2015-04-05T14:05:50Z</time>
      </trkpt>
      <trkpt lat="43.79709" lon="5.49048">
        <ele>570.89</ele>
        <time>2015-04-05T14:05:53Z</time>
      </trkpt>
      <trkpt lat="43.79692" lon="5.49032">
        <ele>570.49</ele>
        <time>2015-04-05T14:05:56Z</time>
      </trkpt>
      <trkpt lat="43.79674" lon="5.49018">
        <ele>571.79</ele>
        <time>2015-04-05T14:05:59Z</time>
      </trkpt>
      <trkpt lat="43.79652" lon="5.49008">
        <ele>571.59</ele>
        <time>2015-04-05T14:06:02Z</time>
      </trkpt>
      <trkpt lat="43.7963" lon="5.49">
        <ele>570.6</ele>
        <time>2015-04-05T14:06:05Z</time>
      </trkpt>
      <trkpt lat="43.79609" lon="5.48992">
        <ele>569.91</ele>
        <time>2015-04-05T14:06:08Z</time>
      </trkpt>
      <trkpt lat="43.79588" lon="5.48985">
        <ele>570.87</ele>
        <time>2015-04-05T14:06:11Z</time>
      </trkpt>
      <trkpt lat="43.79567" lon="5.48977">
        <ele>570.17</ele>
        <time>2015-04-05T14:06:14Z</time>
      </trkpt>
      <trkpt lat="43.79547" lon="5.48973">
        <ele>568.04</ele>
        <time>2015-04-05T14:06:17Z</time>
      </trkpt>
      <trkpt lat="43.79525" lon="5.48977">
        <ele>565.31</ele>
        <time>2015-04-05T14:06:20Z</time>
      </trkpt>
      <trkpt lat="43.79504" lon="5.48978">
        <ele>563.02</ele>
        <time>2015-04-05T14:06:23Z</time>
      </trkpt>
      <trkpt lat="43.79483" lon="5.48972">
        <ele>561.18</ele>
        <time>2015-04-05T14:06:26Z</time>
      </trkpt>
      <trkpt lat="43.79463" lon="5.48966">
        <ele>557.99</ele>
        <time>2015-04-05T14:06:29Z</time>
      </trkpt>
      <trkpt lat="43.7944" lon="5.48957">
        <ele>553.64</ele>
        <time>2015-04-05T14:06:32Z</time>
      </trkpt>
      <trkpt lat="43.79419" lon="5.48947">
        <ele>550.88</ele>
        <time>2015-04-05T14:06:35Z</time>
      </trkpt>
      <trkpt lat="43.79402" lon="5.48937">
        <ele>549.27</ele>
        <time>2015-04-05T14:06:38Z</time>
      </trkpt>
      <trkpt lat="43.79381" lon="5.48921">
        <ele>549.27</ele>
        <time>2015-04-05T14:06:42Z</time>
      </trkpt>
      <trkpt lat="43.79362" lon="5.48908">
        <ele>548.18</ele>
        <time>2015-04-05T14:06:45Z</time>
      </trkpt>
      <trkpt lat="43.79341" lon="5.48904">
        <ele>547.37</ele>
        <time>2015-04-05T14:06:48Z</time>
      </trkpt>
      <trkpt lat="43.79322" lon="5.48907">
        <ele>546.86</ele>
        <time>2015-04-05T14:06:51Z</time>
      </trkpt>
      <trkpt lat="43.79301" lon="5.4891">
        <ele>546.6</ele>
        <time>2015-04-05T14:06:54Z</time>
      </trkpt>
      <trkpt lat="43.79279" lon="5.48911">
        <ele>545.73</ele>
        <time>2015-04-05T14:06:57Z</time>
      </trkpt>
      <trkpt lat="43.79255" lon="5.48911">
        <ele>543.93</ele>
        <time>2015-04-05T14:07:00Z</time>
      </trkpt>
      <trkpt lat="43.79231" lon="5.4891">
        <ele>541.32</ele>
        <time>2015-04-05T14:07:03Z</time>
      </trkpt>
      <trkpt lat="43.79205" lon="5.48908">
        <ele>538.68</ele>
        <time>2015-04-05T14:07:06Z</time>
      </trkpt>
      <trkpt lat="43.79181" lon="5.48905">
        <ele>536.43</ele>
        <time>2015-04-05T14:07:09Z</time>
      </trkpt>
      <trkpt lat="43.79159" lon="5.48903">
        <ele>534.99</ele>
        <time>2015-04-05T14:07:12Z</time>
      </trkpt>
      <trkpt lat="43.79134" lon="5.489">
        <ele>533.06</ele>
        <time>2015-04-05T14:07:15Z</time>
      </trkpt>
      <trkpt lat="43.79113" lon="5.48897">
        <ele>531.07</ele>
        <time>2015-04-05T14:07:18Z</time>
      </trkpt>
      <trkpt lat="43.7909" lon="5.48895">
        <ele>529.35</ele>
        <time>2015-04-05T14:07:21Z</time>
      </trkpt>
      <trkpt lat="43.79068" lon="5.48892">
        <ele>527.97</ele>
        <time>2015-04-05T14:07:24Z</time>
      </trkpt>
      <trkpt lat="43.79045" lon="5.48892">
        <ele>526.03</ele>
        <time>2015-04-05T14:07:27Z</time>
      </trkpt>
      <trkpt lat="43.79021" lon="5.48891">
        <ele>524.39</ele>
        <time>2015-04-05T14:07:30Z</time>
      </trkpt>
      <trkpt lat="43.78998" lon="5.48892">
        <ele>523.17</ele>
        <time>2015-04-05T14:07:33Z</time>
      </trkpt>
      <trkpt lat="43.78979" lon="5.48903">
        <ele>521.7</ele>
        <time>2015-04-05T14:07:36Z</time>
      </trkpt>
      <trkpt lat="43.78961" lon="5.48917">
        <ele>520.16</ele>
        <time>2015-04-05T14:07:39Z</time>
      </trkpt>
      <trkpt lat="43.78942" lon="5.48931">
        <ele>518.6</ele>
        <time>2015-04-05T14:07:42Z</time>
      </trkpt>
      <trkpt lat="43.78925" lon="5.48947">
        <ele>517.21</ele>
        <time>2015-04-05T14:07:45Z</time>
      </trkpt>
      <trkpt lat="43.78905" lon="5.48962">
        <ele>515.6</ele>
        <time>2015-04-05T14:07:48Z</time>
      </trkpt>
      <trkpt lat="43.78884" lon="5.48977">
        <ele>514.94</ele>
        <time>2015-04-05T14:07:51Z</time>
      </trkpt>
      <trkpt lat="43.78864" lon="5.48993">
        <ele>515.14</ele>
        <time>2015-04-05T14:07:54Z</time>
      </trkpt>
      <trkpt lat="43.78842" lon="5.49007">
        <ele>513.54</ele>
        <time>2015-04-05T14:07:57Z</time>
      </trkpt>
      <trkpt lat="43.7882" lon="5.49017">
        <ele>510.58</ele>
        <time>2015-04-05T14:08:00Z</time>
      </trkpt>
      <trkpt lat="43.78805" lon="5.49035">
        <ele>507.52</ele>
        <time>2015-04-05T14:08:03Z</time>
      </trkpt>
      <trkpt lat="43.78797" lon="5.49062">
        <ele>508.16</ele>
        <time>2015-04-05T14:08:07Z</time>
      </trkpt>
      <trkpt lat="43.78786" lon="5.49086">
        <ele>509.25</ele>
        <time>2015-04-05T14:08:11Z</time>
      </trkpt>
      <trkpt lat="43.78775" lon="5.49111">
        <ele>509.49</ele>
        <time>2015-04-05T14:08:15Z</time>
      </trkpt>
      <trkpt lat="43.78768" lon="5.4914">
        <ele>510.07</ele>
        <time>2015-04-05T14:08:20Z</time>
      </trkpt>
      <trkpt lat="43.78761" lon="5.49166">
        <ele>510.39</ele>
        <time>2015-04-05T14:08:25Z</time>
      </trkpt>
      <trkpt lat="43.78753" lon="5.49189">
        <ele>511.28</ele>
        <time>2015-04-05T14:08:30Z</time>
      </trkpt>
      <trkpt lat="43.78744" lon="5.49216">
        <ele>509.27</ele>
        <time>2015-04-05T14:08:35Z</time>
      </trkpt>
      <trkpt lat="43.78736" lon="5.49244">
        <ele>505.86</ele>
        <time>2015-04-05T14:08:40Z</time>
      </trkpt>
      <trkpt lat="43.78729" lon="5.49268">
        <ele>502.01</ele>
        <time>2015-04-05T14:08:45Z</time>
      </trkpt>
      <trkpt lat="43.78723" lon="5.49293">
        <ele>500.08</ele>
        <time>2015-04-05T14:08:49Z</time>
      </trkpt>
      <trkpt lat="43.78716" lon="5.49321">
        <ele>499.25</ele>
        <time>2015-04-05T14:08:53Z</time>
      </trkpt>
      <trkpt lat="43.78707" lon="5.49348">
        <ele>498.72</ele>
        <time>2015-04-05T14:08:56Z</time>
      </trkpt>
      <trkpt lat="43.78697" lon="5.49373">
        <ele>496.91</ele>
        <time>2015-04-05T14:08:59Z</time>
      </trkpt>
      <trkpt lat="43.78688" lon="5.49401">
        <ele>495.17</ele>
        <time>2015-04-05T14:09:02Z</time>
      </trkpt>
      <trkpt lat="43.78679" lon="5.49425">
        <ele>493.25</ele>
        <time>2015-04-05T14:09:05Z</time>
      </trkpt>
      <trkpt lat="43.78669" lon="5.4945">
        <ele>492.71</ele>
        <time>2015-04-05T14:09:09Z</time>
      </trkpt>
      <trkpt lat="43.7866" lon="5.49473">
        <ele>492.3</ele>
        <time>2015-04-05T14:09:12Z</time>
      </trkpt>
      <trkpt lat="43.78645" lon="5.49496">
        <ele>490.3</ele>
        <time>2015-04-05T14:09:15Z</time>
      </trkpt>
      <trkpt lat="43.78627" lon="5.49516">
        <ele>489.33</ele>
        <time>2015-04-05T14:09:18Z</time>
      </trkpt>
      <trkpt lat="43.78611" lon="5.49538">
        <ele>488.5</ele>
        <time>2015-04-05T14:09:21Z</time>
      </trkpt>
      <trkpt lat="43.78594" lon="5.49561">
        <ele>487.39</ele>
        <time>2015-04-05T14:09:24Z</time>
      </trkpt>
      <trkpt lat="43.78573" lon="5.49577">
        <ele>486.11</ele>
        <time>2015-04-05T14:09:27Z</time>
      </trkpt>
      <trkpt lat="43.78552" lon="5.49594">
        <ele>484.03</ele>
        <time>2015-04-05T14:09:30Z</time>
      </trkpt>
      <trkpt lat="43.78531" lon="5.49614">
        <ele>482.15</ele>
        <time>2015-04-05T14:09:33Z</time>
      </trkpt>
      <trkpt lat="43.78522" lon="5.49635">
        <ele>480.42</ele>
        <time>2015-04-05T14:09:37Z</time>
      </trkpt>
      <trkpt lat="43.78515" lon="5.4966">
        <ele>478.68</ele>
        <time>2015-04-05T14:10:32Z</time>
      </trkpt>
      <trkpt lat="43.785" lon="5.49677">
        <ele>478.96</ele>
        <time>2015-04-05T14:10:38Z</time>
      </trkpt>
      <trkpt lat="43.7849" lon="5.49705">
        <ele>477.98</ele>
        <time>2015-04-05T14:10:48Z</time>
      </trkpt>
      <trkpt lat="43.78473" lon="5.49721">
        <ele>475.94</ele>
        <time>2015-04-05T14:10:56Z</time>
      </trkpt>
      <trkpt lat="43.78454" lon="5.49727">
        <ele>473.55</ele>
        <time>2015-04-05T14:11:04Z</time>
      </trkpt>
      <trkpt lat="43.78435" lon="5.49729">
        <ele>470.52</ele>
        <time>2015-04-05T14:11:09Z</time>
      </trkpt>
      <trkpt lat="43.78415" lon="5.49732">
        <ele>463.54</ele>
        <time>2015-04-05T14:11:12Z</time>
      </trkpt>
      <trkpt lat="43.78396" lon="5.49735">
        <ele>458.05</ele>
        <time>2015-04-05T14:11:16Z</time>
      </trkpt>
      <trkpt lat="43.78376" lon="5.49748">
        <ele>452.81</ele>
        <time>2015-04-05T14:11:20Z</time>
      </trkpt>
      <trkpt lat="43.78359" lon="5.49762">
        <ele>451.57</ele>
        <time>2015-04-05T14:11:23Z</time>
      </trkpt>
      <trkpt lat="43.78337" lon="5.49769">
        <ele>450.93</ele>
        <time>2015-04-05T14:11:26Z</time>
      </trkpt>
      <trkpt lat="43.78311" lon="5.49774">
        <ele>449.8</ele>
        <time>2015-04-05T14:11:29Z</time>
      </trkpt>
      <trkpt lat="43.78292" lon="5.49777">
        <ele>449.18</ele>
        <time>2015-04-05T14:11:31Z</time>
      </trkpt>
      <trkpt lat="43.78267" lon="5.49779">
        <ele>448.1</ele>
        <time>2015-04-05T14:11:34Z</time>
      </trkpt>
      <trkpt lat="43.7823" lon="5.49785">
        <ele>445.8</ele>
        <time>2015-04-05T14:11:39Z</time>
      </trkpt>
      <trkpt lat="43.78203" lon="5.49788">
        <ele>443.79</ele>
        <time>2015-04-05T14:11:42Z</time>
      </trkpt>
      <trkpt lat="43.78185" lon="5.4979">
        <ele>443.04</ele>
        <time>2015-04-05T14:11:44Z</time>
      </trkpt>
      <trkpt lat="43.78159" lon="5.49793">
        <ele>442.12</ele>
        <time>2015-04-05T14:11:47Z</time>
      </trkpt>
      <trkpt lat="43.78132" lon="5.49797">
        <ele>441.21</ele>
        <time>2015-04-05T14:11:50Z</time>
      </trkpt>
      <trkpt lat="43.78106" lon="5.49801">
        <ele>439.85</ele>
        <time>2015-04-05T14:11:53Z</time>
      </trkpt>
      <trkpt lat="43.78086" lon="5.49805">
        <ele>437.11</ele>
        <time>2015-04-05T14:11:56Z</time>
      </trkpt>
      <trkpt lat="43.78066" lon="5.49811">
        <ele>433.4</ele>
        <time>2015-04-05T14:11:59Z</time>
      </trkpt>
      <trkpt lat="43.78042" lon="5.49812">
        <ele>430.41</ele>
        <time>2015-04-05T14:12:02Z</time>
      </trkpt>
      <trkpt lat="43.78022" lon="5.49814">
        <ele>426.67</ele>
        <time>2015-04-05T14:12:05Z</time>
      </trkpt>
      <trkpt lat="43.78001" lon="5.49816">
        <ele>425.39</ele>
        <time>2015-04-05T14:12:08Z</time>
      </trkpt>
      <trkpt lat="43.77977" lon="5.49819">
        <ele>425.6</ele>
        <time>2015-04-05T14:12:11Z</time>
      </trkpt>
      <trkpt lat="43.77953" lon="5.49819">
        <ele>426.4</ele>
        <time>2015-04-05T14:12:14Z</time>
      </trkpt>
      <trkpt lat="43.7793" lon="5.49813">
        <ele>425.97</ele>
        <time>2015-04-05T14:12:17Z</time>
      </trkpt>
      <trkpt lat="43.77907" lon="5.49803">
        <ele>424.25</ele>
        <time>2015-04-05T14:12:20Z</time>
      </trkpt>
      <trkpt lat="43.77886" lon="5.4979">
        <ele>422.8</ele>
        <time>2015-04-05T14:12:23Z</time>
      </trkpt>
      <trkpt lat="43.77864" lon="5.49779">
        <ele>421.58</ele>
        <time>2015-04-05T14:12:26Z</time>
      </trkpt>
      <trkpt lat="43.77842" lon="5.49774">
        <ele>420.84</ele>
        <time>2015-04-05T14:12:29Z</time>
      </trkpt>
      <trkpt lat="43.77821" lon="5.49776">
        <ele>418.19</ele>
        <time>2015-04-05T14:12:32Z</time>
      </trkpt>
      <trkpt lat="43.778" lon="5.49783">
        <ele>416.13</ele>
        <time>2015-04-05T14:12:35Z</time>
      </trkpt>
      <trkpt lat="43.77778" lon="5.4979">
        <ele>414.94</ele>
        <time>2015-04-05T14:12:38Z</time>
      </trkpt>
      <trkpt lat="43.77755" lon="5.49799">
        <ele>413.8</ele>
        <time>2015-04-05T14:12:41Z</time>
      </trkpt>
      <trkpt lat="43.7773" lon="5.49807">
        <ele>411.72</ele>
        <time>2015-04-05T14:12:44Z</time>
      </trkpt>
      <trkpt lat="43.77705" lon="5.49815">
        <ele>412.25</ele>
        <time>2015-04-05T14:12:47Z</time>
      </trkpt>
      <trkpt lat="43.77682" lon="5.49824">
        <ele>414.96</ele>
        <time>2015-04-05T14:12:50Z</time>
      </trkpt>
      <trkpt lat="43.77657" lon="5.49832">
        <ele>416.83</ele>
        <time>2015-04-05T14:12:53Z</time>
      </trkpt>
      <trkpt lat="43.77634" lon="5.4984">
        <ele>417.74</ele>
        <time>2015-04-05T14:12:56Z</time>
      </trkpt>
      <trkpt lat="43.7761" lon="5.49848">
        <ele>416.57</ele>
        <time>2015-04-05T14:12:59Z</time>
      </trkpt>
      <trkpt lat="43.77583" lon="5.49854">
        <ele>415.12</ele>
        <time>2015-04-05T14:13:02Z</time>
      </trkpt>
      <trkpt lat="43.7756" lon="5.49859">
        <ele>413.89</ele>
        <time>2015-04-05T14:13:05Z</time>
      </trkpt>
      <trkpt lat="43.77539" lon="5.49864">
        <ele>414.32</ele>
        <time>2015-04-05T14:13:08Z</time>
      </trkpt>
      <trkpt lat="43.77516" lon="5.49867">
        <ele>415.36</ele>
        <time>2015-04-05T14:13:11Z</time>
      </trkpt>
      <trkpt lat="43.77493" lon="5.49868">
        <ele>415.46</ele>
        <time>2015-04-05T14:13:14Z</time>
      </trkpt>
      <trkpt lat="43.77472" lon="5.49864">
        <ele>414.12</ele>
        <time>2015-04-05T14:13:17Z</time>
      </trkpt>
      <trkpt lat="43.77451" lon="5.49857">
        <ele>413.86</ele>
        <time>2015-04-05T14:13:20Z</time>
      </trkpt>
      <trkpt lat="43.77428" lon="5.49849">
        <ele>414.41</ele>
        <time>2015-04-05T14:13:23Z</time>
      </trkpt>
      <trkpt lat="43.77408" lon="5.49847">
        <ele>413.06</ele>
        <time>2015-04-05T14:13:26Z</time>
      </trkpt>
      <trkpt lat="43.77384" lon="5.49849">
        <ele>410.05</ele>
        <time>2015-04-05T14:13:29Z</time>
      </trkpt>
      <trkpt lat="43.77362" lon="5.49853">
        <ele>407.9</ele>
        <time>2015-04-05T14:13:32Z</time>
      </trkpt>
      <trkpt lat="43.77337" lon="5.49857">
        <ele>405.64</ele>
        <time>2015-04-05T14:13:35Z</time>
      </trkpt>
      <trkpt lat="43.77318" lon="5.4986">
        <ele>403.78</ele>
        <time>2015-04-05T14:13:37Z</time>
      </trkpt>
      <trkpt lat="43.77299" lon="5.49863">
        <ele>401.65</ele>
        <time>2015-04-05T14:13:39Z</time>
      </trkpt>
      <trkpt lat="43.77273" lon="5.49867">
        <ele>399.46</ele>
        <time>2015-04-05T14:13:42Z</time>
      </trkpt>
      <trkpt lat="43.77248" lon="5.49871">
        <ele>398.63</ele>
        <time>2015-04-05T14:13:45Z</time>
      </trkpt>
      <trkpt lat="43.77229" lon="5.49873">
        <ele>398.21</ele>
        <time>2015-04-05T14:13:47Z</time>
      </trkpt>
      <trkpt lat="43.77189" lon="5.49877">
        <ele>397.66</ele>
        <time>2015-04-05T14:13:51Z</time>
      </trkpt>
      <trkpt lat="43.77167" lon="5.49879">
        <ele>397.21</ele>
        <time>2015-04-05T14:13:53Z</time>
      </trkpt>
      <trkpt lat="43.77147" lon="5.49882">
        <ele>396.98</ele>
        <time>2015-04-05T14:13:55Z</time>
      </trkpt>
      <trkpt lat="43.77129" lon="5.49884">
        <ele>396.47</ele>
        <time>2015-04-05T14:13:57Z</time>
      </trkpt>
      <trkpt lat="43.77111" lon="5.49886">
        <ele>395.75</ele>
        <time>2015-04-05T14:13:59Z</time>
      </trkpt>
      <trkpt lat="43.77093" lon="5.49889">
        <ele>395.25</ele>
        <time>2015-04-05T14:14:01Z</time>
      </trkpt>
      <trkpt lat="43.77075" lon="5.49891">
        <ele>394.29</ele>
        <time>2015-04-05T14:14:03Z</time>
      </trkpt>
      <trkpt lat="43.77056" lon="5.49894">
        <ele>392.38</ele>
        <time>2015-04-05T14:14:05Z</time>
      </trkpt>
      <trkpt lat="43.77037" lon="5.49897">
        <ele>390.46</ele>
        <time>2015-04-05T14:14:07Z</time>
      </trkpt>
      <trkpt lat="43.77018" lon="5.499">
        <ele>388.75</ele>
        <time>2015-04-05T14:14:09Z</time>
      </trkpt>
      <trkpt lat="43.76998" lon="5.49903">
        <ele>387.48</ele>
        <time>2015-04-05T14:14:11Z</time>
      </trkpt>
      <trkpt lat="43.76978" lon="5.49905">
        <ele>386.11</ele>
        <time>2015-04-05T14:14:13Z</time>
      </trkpt>
      <trkpt lat="43.76959" lon="5.49908">
        <ele>384.83</ele>
        <time>2015-04-05T14:14:15Z</time>
      </trkpt>
      <trkpt lat="43.76933" lon="5.4991">
        <ele>383.17</ele>
        <time>2015-04-05T14:14:18Z</time>
      </trkpt>
      <trkpt lat="43.76915" lon="5.49911">
        <ele>383.34</ele>
        <time>2015-04-05T14:14:20Z</time>
      </trkpt>
      <trkpt lat="43.76888" lon="5.49913">
        <ele>384.4</ele>
        <time>2015-04-05T14:14:23Z</time>
      </trkpt>
      <trkpt lat="43.76865" lon="5.4991">
        <ele>384.05</ele>
        <time>2015-04-05T14:14:26Z</time>
      </trkpt>
      <trkpt lat="43.76843" lon="5.49905">
        <ele>383.42</ele>
        <time>2015-04-05T14:14:29Z</time>
      </trkpt>
      <trkpt lat="43.76822" lon="5.49894">
        <ele>383.9</ele>
        <time>2015-04-05T14:14:33Z</time>
      </trkpt>
      <trkpt lat="43.76803" lon="5.49885">
        <ele>384.08</ele>
        <time>2015-04-05T14:14:38Z</time>
      </trkpt>
      <trkpt lat="43.76782" lon="5.49881">
        <ele>384.45</ele>
        <time>2015-04-05T14:14:43Z</time>
      </trkpt>
      <trkpt lat="43.76761" lon="5.49883">
        <ele>385.58</ele>
        <time>2015-04-05T14:14:49Z</time>
      </trkpt>
      <trkpt lat="43.76741" lon="5.49886">
        <ele>387.1</ele>
        <time>2015-04-05T14:14:55Z</time>
      </trkpt>
      <trkpt lat="43.76723" lon="5.49889">
        <ele>388.61</ele>
        <time>2015-04-05T14:15:01Z</time>
      </trkpt>
      <trkpt lat="43.76704" lon="5.49898">
        <ele>390.01</ele>
        <time>2015-04-05T14:15:08Z</time>
      </trkpt>
      <trkpt lat="43.76687" lon="5.4991">
        <ele>392.75</ele>
        <time>2015-04-05T14:15:55Z</time>
      </trkpt>
      <trkpt lat="43.76666" lon="5.49912">
        <ele>398.93</ele>
        <time>2015-04-05T14:16:14Z</time>
      </trkpt>
      <trkpt lat="43.76646" lon="5.49915">
        <ele>401.88</ele>
        <time>2015-04-05T14:16:17Z</time>
      </trkpt>
      <trkpt lat="43.76627" lon="5.49915">
        <ele>402.96</ele>
        <time>2015-04-05T14:16:20Z</time>
      </trkpt>
      <trkpt lat="43.76605" lon="5.49916">
        <ele>400.38</ele>
        <time>2015-04-05T14:16:24Z</time>
      </trkpt>
      <trkpt lat="43.76586" lon="5.49916">
        <ele>397.91</ele>
        <time>2015-04-05T14:16:27Z</time>
      </trkpt>
      <trkpt lat="43.76566" lon="5.49918">
        <ele>396.06</ele>
        <time>2015-04-05T14:16:30Z</time>
      </trkpt>
      <trkpt lat="43.76543" lon="5.49921">
        <ele>395.21</ele>
        <time>2015-04-05T14:16:33Z</time>
      </trkpt>
      <trkpt lat="43.76518" lon="5.49927">
        <ele>395.13</ele>
        <time>2015-04-05T14:16:36Z</time>
      </trkpt>
      <trkpt lat="43.76499" lon="5.49933">
        <ele>395.48</ele>
        <time>2015-04-05T14:16:38Z</time>
      </trkpt>
      <trkpt lat="43.76481" lon="5.4994">
        <ele>395.41</ele>
        <time>2015-04-05T14:16:40Z</time>
      </trkpt>
      <trkpt lat="43.76463" lon="5.49947">
        <ele>395.68</ele>
        <time>2015-04-05T14:16:42Z</time>
      </trkpt>
      <trkpt lat="43.76444" lon="5.49953">
        <ele>395.53</ele>
        <time>2015-04-05T14:16:44Z</time>
      </trkpt>
      <trkpt lat="43.76425" lon="5.4996">
        <ele>395.59</ele>
        <time>2015-04-05T14:16:46Z</time>
      </trkpt>
      <trkpt lat="43.76406" lon="5.49967">
        <ele>395.75</ele>
        <time>2015-04-05T14:16:48Z</time>
      </trkpt>
      <trkpt lat="43.7638" lon="5.49975">
        <ele>396.18</ele>
        <time>2015-04-05T14:16:51Z</time>
      </trkpt>
      <trkpt lat="43.76354" lon="5.49985">
        <ele>396.46</ele>
        <time>2015-04-05T14:16:54Z</time>
      </trkpt>
      <trkpt lat="43.76337" lon="5.49994">
        <ele>396.36</ele>
        <time>2015-04-05T14:16:56Z</time>
      </trkpt>
      <trkpt lat="43.76319" lon="5.50005">
        <ele>396.07</ele>
        <time>2015-04-05T14:16:58Z</time>
      </trkpt>
      <trkpt lat="43.76303" lon="5.50017">
        <ele>395.61</ele>
        <time>2015-04-05T14:17:00Z</time>
      </trkpt>
      <trkpt lat="43.7628" lon="5.50036">
        <ele>394.25</ele>
        <time>2015-04-05T14:17:03Z</time>
      </trkpt>
      <trkpt lat="43.76261" lon="5.50054">
        <ele>392.04</ele>
        <time>2015-04-05T14:17:06Z</time>
      </trkpt>
      <trkpt lat="43.76241" lon="5.50072">
        <ele>388.51</ele>
        <time>2015-04-05T14:17:09Z</time>
      </trkpt>
      <trkpt lat="43.76221" lon="5.50091">
        <ele>385.1</ele>
        <time>2015-04-05T14:17:12Z</time>
      </trkpt>
      <trkpt lat="43.76202" lon="5.50105">
        <ele>383.96</ele>
        <time>2015-04-05T14:17:15Z</time>
      </trkpt>
      <trkpt lat="43.76182" lon="5.50118">
        <ele>383.62</ele>
        <time>2015-04-05T14:17:18Z</time>
      </trkpt>
      <trkpt lat="43.76161" lon="5.50128">
        <ele>383.17</ele>
        <time>2015-04-05T14:17:21Z</time>
      </trkpt>
      <trkpt lat="43.76138" lon="5.50135">
        <ele>382.91</ele>
        <time>2015-04-05T14:17:24Z</time>
      </trkpt>
      <trkpt lat="43.76117" lon="5.5014">
        <ele>381.73</ele>
        <time>2015-04-05T14:17:27Z</time>
      </trkpt>
      <trkpt lat="43.76097" lon="5.50145">
        <ele>381.68</ele>
        <time>2015-04-05T14:17:30Z</time>
      </trkpt>
      <trkpt lat="43.76076" lon="5.5015">
        <ele>381.72</ele>
        <time>2015-04-05T14:17:33Z</time>
      </trkpt>
      <trkpt lat="43.76057" lon="5.50152">
        <ele>382.74</ele>
        <time>2015-04-05T14:17:35Z</time>
      </trkpt>
      <trkpt lat="43.76033" lon="5.50154">
        <ele>386.17</ele>
        <time>2015-04-05T14:17:38Z</time>
      </trkpt>
      <trkpt lat="43.76011" lon="5.50158">
        <ele>389.29</ele>
        <time>2015-04-05T14:17:41Z</time>
      </trkpt>
      <trkpt lat="43.75987" lon="5.50163">
        <ele>391.05</ele>
        <time>2015-04-05T14:17:44Z</time>
      </trkpt>
      <trkpt lat="43.75961" lon="5.5017">
        <ele>392.08</ele>
        <time>2015-04-05T14:17:47Z</time>
      </trkpt>
      <trkpt lat="43.75938" lon="5.50177">
        <ele>392.42</ele>
        <time>2015-04-05T14:17:50Z</time>
      </trkpt>
      <trkpt lat="43.75918" lon="5.50184">
        <ele>391.66</ele>
        <time>2015-04-05T14:17:53Z</time>
      </trkpt>
      <trkpt lat="43.75894" lon="5.50193">
        <ele>390.32</ele>
        <time>2015-04-05T14:17:56Z</time>
      </trkpt>
      <trkpt lat="43.75875" lon="5.502">
        <ele>389.3</ele>
        <time>2015-04-05T14:17:58Z</time>
      </trkpt>
      <trkpt lat="43.75851" lon="5.50208">
        <ele>387.96</ele>
        <time>2015-04-05T14:18:01Z</time>
      </trkpt>
      <trkpt lat="43.7583" lon="5.50215">
        <ele>387.06</ele>
        <time>2015-04-05T14:18:04Z</time>
      </trkpt>
      <trkpt lat="43.75809" lon="5.50222">
        <ele>386.5</ele>
        <time>2015-04-05T14:18:07Z</time>
      </trkpt>
      <trkpt lat="43.75787" lon="5.50227">
        <ele>385.41</ele>
        <time>2015-04-05T14:18:11Z</time>
      </trkpt>
      <trkpt lat="43.75779" lon="5.50251">
        <ele>384.49</ele>
        <time>2015-04-05T14:18:15Z</time>
      </trkpt>
      <trkpt lat="43.75778" lon="5.5028">
        <ele>383.96</ele>
        <time>2015-04-05T14:18:18Z</time>
      </trkpt>
      <trkpt lat="43.75777" lon="5.50308">
        <ele>384.16</ele>
        <time>2015-04-05T14:18:21Z</time>
      </trkpt>
      <trkpt lat="43.75775" lon="5.50338">
        <ele>385.03</ele>
        <time>2015-04-05T14:18:24Z</time>
      </trkpt>
      <trkpt lat="43.75773" lon="5.50369">
        <ele>384.69</ele>
        <time>2015-04-05T14:18:27Z</time>
      </trkpt>
      <trkpt lat="43.75773" lon="5.50402">
        <ele>382.69</ele>
        <time>2015-04-05T14:18:30Z</time>
      </trkpt>
      <trkpt lat="43.75776" lon="5.50433">
        <ele>379.75</ele>
        <time>2015-04-05T14:18:33Z</time>
      </trkpt>
      <trkpt lat="43.75779" lon="5.50463">
        <ele>377.01</ele>
        <time>2015-04-05T14:18:36Z</time>
      </trkpt>
      <trkpt lat="43.75784" lon="5.50495">
        <ele>374.44</ele>
        <time>2015-04-05T14:18:39Z</time>
      </trkpt>
      <trkpt lat="43.75789" lon="5.50523">
        <ele>374</ele>
        <time>2015-04-05T14:18:42Z</time>
      </trkpt>
      <trkpt lat="43.75794" lon="5.50551">
        <ele>374.4</ele>
        <time>2015-04-05T14:18:45Z</time>
      </trkpt>
      <trkpt lat="43.75799" lon="5.5058">
        <ele>374.03</ele>
        <time>2015-04-05T14:18:48Z</time>
      </trkpt>
      <trkpt lat="43.75805" lon="5.50608">
        <ele>371.9</ele>
        <time>2015-04-05T14:18:51Z</time>
      </trkpt>
      <trkpt lat="43.75813" lon="5.50636">
        <ele>371.52</ele>
        <time>2015-04-05T14:18:54Z</time>
      </trkpt>
      <trkpt lat="43.75821" lon="5.50663">
        <ele>372.76</ele>
        <time>2015-04-05T14:18:57Z</time>
      </trkpt>
      <trkpt lat="43.75829" lon="5.50685">
        <ele>374.86</ele>
        <time>2015-04-05T14:19:00Z</time>
      </trkpt>
      <trkpt lat="43.75838" lon="5.50711">
        <ele>378.07</ele>
        <time>2015-04-05T14:19:04Z</time>
      </trkpt>
      <trkpt lat="43.75856" lon="5.50726">
        <ele>379.68</ele>
        <time>2015-04-05T14:19:10Z</time>
      </trkpt>
      <trkpt lat="43.75875" lon="5.50716">
        <ele>379.26</ele>
        <time>2015-04-05T14:19:27Z</time>
      </trkpt>
    </trkseg>
  </trk>
</gpx>